<?xml version="1.0" encoding="UTF-8" standalone="no" ?>
<gpx xmlns="http://www.topografix.com/GPX/1/1" xmlns:xsi="http://www.w3.org/2001/XMLSchema-instance" xsi:schemaLocation="http://www.topografix.com/GPX/1/1 http://www.topografix.com/GPX/1/1/gpx.xsd" version="1.1" creator="VisuGPX - https://www.visugpx.com">
  <metadata>
    <name>Chanu-La Chapelle Biche</name>
    <desc><![CDATA[sortie dans les chemins boueux]]></desc>
  </metadata>
  <trk>
    <name><![CDATA[Chanu-La Chapelle Biche]]></name>
    <trkseg>
      <trkpt lat="48.72916" lon="-0.67808">
        <ele>287</ele>
        <time>2014-01-09T13:22:49.000Z</time>
      </trkpt>
      <trkpt lat="48.7292" lon="-0.67795">
        <ele>286.79998779297</ele>
        <time>2014-01-09T13:22:54.000Z</time>
      </trkpt>
      <trkpt lat="48.72922" lon="-0.67775">
        <ele>286.60000610352</ele>
        <time>2014-01-09T13:23:00.000Z</time>
      </trkpt>
      <trkpt lat="48.72922" lon="-0.67757">
        <ele>286.60000610352</ele>
        <time>2014-01-09T13:23:01.000Z</time>
      </trkpt>
      <trkpt lat="48.72923" lon="-0.67751">
        <ele>286.60000610352</ele>
        <time>2014-01-09T13:23:05.000Z</time>
      </trkpt>
      <trkpt lat="48.72921" lon="-0.6774">
        <ele>286.39999389648</ele>
        <time>2014-01-09T13:23:07.000Z</time>
      </trkpt>
      <trkpt lat="48.72919" lon="-0.67734">
        <ele>286.39999389648</ele>
        <time>2014-01-09T13:23:08.000Z</time>
      </trkpt>
      <trkpt lat="48.72908" lon="-0.67715">
        <ele>286</ele>
        <time>2014-01-09T13:23:12.000Z</time>
      </trkpt>
      <trkpt lat="48.72898" lon="-0.67697">
        <ele>285.60000610352</ele>
        <time>2014-01-09T13:23:16.000Z</time>
      </trkpt>
      <trkpt lat="48.72892" lon="-0.67685">
        <ele>285.39999389648</ele>
        <time>2014-01-09T13:23:19.000Z</time>
      </trkpt>
      <trkpt lat="48.7289" lon="-0.67681">
        <ele>285.39999389648</ele>
        <time>2014-01-09T13:23:20.000Z</time>
      </trkpt>
      <trkpt lat="48.72888" lon="-0.67677">
        <ele>285.39999389648</ele>
        <time>2014-01-09T13:23:21.000Z</time>
      </trkpt>
      <trkpt lat="48.72884" lon="-0.67669">
        <ele>285.20001220703</ele>
        <time>2014-01-09T13:23:23.000Z</time>
      </trkpt>
      <trkpt lat="48.72881" lon="-0.67664">
        <ele>285.20001220703</ele>
        <time>2014-01-09T13:23:24.000Z</time>
      </trkpt>
      <trkpt lat="48.72874" lon="-0.6765">
        <ele>284.79998779297</ele>
        <time>2014-01-09T13:23:27.000Z</time>
      </trkpt>
      <trkpt lat="48.72868" lon="-0.67638">
        <ele>284.39999389648</ele>
        <time>2014-01-09T13:23:29.000Z</time>
      </trkpt>
      <trkpt lat="48.72855" lon="-0.67616">
        <ele>283.79998779297</ele>
        <time>2014-01-09T13:23:31.000Z</time>
      </trkpt>
      <trkpt lat="48.72854" lon="-0.67614">
        <ele>283.79998779297</ele>
        <time>2014-01-09T13:23:35.000Z</time>
      </trkpt>
      <trkpt lat="48.72849" lon="-0.67608">
        <ele>283.60000610352</ele>
        <time>2014-01-09T13:23:40.000Z</time>
      </trkpt>
      <trkpt lat="48.72842" lon="-0.6759">
        <ele>283</ele>
        <time>2014-01-09T13:23:46.000Z</time>
      </trkpt>
      <trkpt lat="48.72834" lon="-0.67577">
        <ele>282.39999389648</ele>
        <time>2014-01-09T13:23:50.000Z</time>
      </trkpt>
      <trkpt lat="48.72832" lon="-0.67569">
        <ele>281.79998779297</ele>
        <time>2014-01-09T13:23:52.000Z</time>
      </trkpt>
      <trkpt lat="48.72825" lon="-0.67558">
        <ele>281</ele>
        <time>2014-01-09T13:23:56.000Z</time>
      </trkpt>
      <trkpt lat="48.72823" lon="-0.67555">
        <ele>281</ele>
        <time>2014-01-09T13:23:57.000Z</time>
      </trkpt>
      <trkpt lat="48.72819" lon="-0.6755">
        <ele>280.60000610352</ele>
        <time>2014-01-09T13:23:59.000Z</time>
      </trkpt>
      <trkpt lat="48.72815" lon="-0.67534">
        <ele>279.60000610352</ele>
        <time>2014-01-09T13:24:01.000Z</time>
      </trkpt>
      <trkpt lat="48.72815" lon="-0.67534">
        <ele>279.60000610352</ele>
        <time>2014-01-09T13:24:04.000Z</time>
      </trkpt>
      <trkpt lat="48.72817" lon="-0.67525">
        <ele>278.79998779297</ele>
        <time>2014-01-09T13:24:06.000Z</time>
      </trkpt>
      <trkpt lat="48.72818" lon="-0.67514">
        <ele>278</ele>
        <time>2014-01-09T13:24:08.000Z</time>
      </trkpt>
      <trkpt lat="48.72819" lon="-0.67504">
        <ele>277.20001220703</ele>
        <time>2014-01-09T13:24:10.000Z</time>
      </trkpt>
      <trkpt lat="48.72822" lon="-0.67484">
        <ele>275.79998779297</ele>
        <time>2014-01-09T13:24:14.000Z</time>
      </trkpt>
      <trkpt lat="48.72824" lon="-0.67469">
        <ele>275</ele>
        <time>2014-01-09T13:24:17.000Z</time>
      </trkpt>
      <trkpt lat="48.72825" lon="-0.67458">
        <ele>274.39999389648</ele>
        <time>2014-01-09T13:24:20.000Z</time>
      </trkpt>
      <trkpt lat="48.72825" lon="-0.67454">
        <ele>274.20001220703</ele>
        <time>2014-01-09T13:24:21.000Z</time>
      </trkpt>
      <trkpt lat="48.72826" lon="-0.67443">
        <ele>273.60000610352</ele>
        <time>2014-01-09T13:24:24.000Z</time>
      </trkpt>
      <trkpt lat="48.72825" lon="-0.67431">
        <ele>273.20001220703</ele>
        <time>2014-01-09T13:24:27.000Z</time>
      </trkpt>
      <trkpt lat="48.72824" lon="-0.67422">
        <ele>272.79998779297</ele>
        <time>2014-01-09T13:24:29.000Z</time>
      </trkpt>
      <trkpt lat="48.72818" lon="-0.67402">
        <ele>272.20001220703</ele>
        <time>2014-01-09T13:24:30.000Z</time>
      </trkpt>
      <trkpt lat="48.72817" lon="-0.67397">
        <ele>272.20001220703</ele>
        <time>2014-01-09T13:24:35.000Z</time>
      </trkpt>
      <trkpt lat="48.72814" lon="-0.67373">
        <ele>271.20001220703</ele>
        <time>2014-01-09T13:24:40.000Z</time>
      </trkpt>
      <trkpt lat="48.72815" lon="-0.67368">
        <ele>271</ele>
        <time>2014-01-09T13:24:41.000Z</time>
      </trkpt>
      <trkpt lat="48.72816" lon="-0.67345">
        <ele>269.79998779297</ele>
        <time>2014-01-09T13:24:46.000Z</time>
      </trkpt>
      <trkpt lat="48.72817" lon="-0.67338">
        <ele>269.39999389648</ele>
        <time>2014-01-09T13:24:48.000Z</time>
      </trkpt>
      <trkpt lat="48.72818" lon="-0.67335">
        <ele>269.20001220703</ele>
        <time>2014-01-09T13:24:49.000Z</time>
      </trkpt>
      <trkpt lat="48.72818" lon="-0.67332">
        <ele>269</ele>
        <time>2014-01-09T13:24:50.000Z</time>
      </trkpt>
      <trkpt lat="48.72819" lon="-0.67321">
        <ele>268.39999389648</ele>
        <time>2014-01-09T13:24:55.000Z</time>
      </trkpt>
      <trkpt lat="48.72819" lon="-0.67321">
        <ele>268.39999389648</ele>
        <time>2014-01-09T13:24:56.000Z</time>
      </trkpt>
      <trkpt lat="48.72819" lon="-0.67321">
        <ele>268.39999389648</ele>
        <time>2014-01-09T13:25:16.000Z</time>
      </trkpt>
      <trkpt lat="48.72819" lon="-0.67314">
        <ele>268</ele>
        <time>2014-01-09T13:25:27.000Z</time>
      </trkpt>
      <trkpt lat="48.72821" lon="-0.67266">
        <ele>265.20001220703</ele>
        <time>2014-01-09T13:25:32.000Z</time>
      </trkpt>
      <trkpt lat="48.72819" lon="-0.6724">
        <ele>264.60000610352</ele>
        <time>2014-01-09T13:25:41.000Z</time>
      </trkpt>
      <trkpt lat="48.72818" lon="-0.6722">
        <ele>264.60000610352</ele>
        <time>2014-01-09T13:25:45.000Z</time>
      </trkpt>
      <trkpt lat="48.72818" lon="-0.67208">
        <ele>264.60000610352</ele>
        <time>2014-01-09T13:25:47.000Z</time>
      </trkpt>
      <trkpt lat="48.72819" lon="-0.67201">
        <ele>264.39999389648</ele>
        <time>2014-01-09T13:25:48.000Z</time>
      </trkpt>
      <trkpt lat="48.7282" lon="-0.67194">
        <ele>264.39999389648</ele>
        <time>2014-01-09T13:25:49.000Z</time>
      </trkpt>
      <trkpt lat="48.72821" lon="-0.67178">
        <ele>264.20001220703</ele>
        <time>2014-01-09T13:25:52.000Z</time>
      </trkpt>
      <trkpt lat="48.7282" lon="-0.67153">
        <ele>264.60000610352</ele>
        <time>2014-01-09T13:25:58.000Z</time>
      </trkpt>
      <trkpt lat="48.72821" lon="-0.67116">
        <ele>265.20001220703</ele>
        <time>2014-01-09T13:26:06.000Z</time>
      </trkpt>
      <trkpt lat="48.7282" lon="-0.67092">
        <ele>265.60000610352</ele>
        <time>2014-01-09T13:26:12.000Z</time>
      </trkpt>
      <trkpt lat="48.7282" lon="-0.67084">
        <ele>265.79998779297</ele>
        <time>2014-01-09T13:26:14.000Z</time>
      </trkpt>
      <trkpt lat="48.72818" lon="-0.6707">
        <ele>265.20001220703</ele>
        <time>2014-01-09T13:26:17.000Z</time>
      </trkpt>
      <trkpt lat="48.72815" lon="-0.67046">
        <ele>264</ele>
        <time>2014-01-09T13:26:22.000Z</time>
      </trkpt>
      <trkpt lat="48.72813" lon="-0.67032">
        <ele>263.20001220703</ele>
        <time>2014-01-09T13:26:25.000Z</time>
      </trkpt>
      <trkpt lat="48.72813" lon="-0.67026">
        <ele>263</ele>
        <time>2014-01-09T13:26:26.000Z</time>
      </trkpt>
      <trkpt lat="48.72813" lon="-0.67008">
        <ele>262</ele>
        <time>2014-01-09T13:26:29.000Z</time>
      </trkpt>
      <trkpt lat="48.72813" lon="-0.66971">
        <ele>260.79998779297</ele>
        <time>2014-01-09T13:26:32.000Z</time>
      </trkpt>
      <trkpt lat="48.72813" lon="-0.66941">
        <ele>260</ele>
        <time>2014-01-09T13:26:41.000Z</time>
      </trkpt>
      <trkpt lat="48.72811" lon="-0.66918">
        <ele>259.60000610352</ele>
        <time>2014-01-09T13:26:45.000Z</time>
      </trkpt>
      <trkpt lat="48.72811" lon="-0.66913">
        <ele>259.60000610352</ele>
        <time>2014-01-09T13:26:46.000Z</time>
      </trkpt>
      <trkpt lat="48.72809" lon="-0.66899">
        <ele>260</ele>
        <time>2014-01-09T13:26:49.000Z</time>
      </trkpt>
      <trkpt lat="48.72809" lon="-0.66894">
        <ele>260.20001220703</ele>
        <time>2014-01-09T13:26:50.000Z</time>
      </trkpt>
      <trkpt lat="48.72806" lon="-0.66886">
        <ele>260.39999389648</ele>
        <time>2014-01-09T13:26:52.000Z</time>
      </trkpt>
      <trkpt lat="48.72798" lon="-0.66862">
        <ele>261.20001220703</ele>
        <time>2014-01-09T13:26:59.000Z</time>
      </trkpt>
      <trkpt lat="48.72787" lon="-0.66843">
        <ele>262.20001220703</ele>
        <time>2014-01-09T13:27:07.000Z</time>
      </trkpt>
      <trkpt lat="48.72768" lon="-0.66825">
        <ele>263</ele>
        <time>2014-01-09T13:27:16.000Z</time>
      </trkpt>
      <trkpt lat="48.72766" lon="-0.66823">
        <ele>263</ele>
        <time>2014-01-09T13:27:17.000Z</time>
      </trkpt>
      <trkpt lat="48.72761" lon="-0.66806">
        <ele>262.79998779297</ele>
        <time>2014-01-09T13:27:22.000Z</time>
      </trkpt>
      <trkpt lat="48.72761" lon="-0.66789">
        <ele>262.60000610352</ele>
        <time>2014-01-09T13:27:26.000Z</time>
      </trkpt>
      <trkpt lat="48.72761" lon="-0.66785">
        <ele>262.39999389648</ele>
        <time>2014-01-09T13:27:27.000Z</time>
      </trkpt>
      <trkpt lat="48.72777" lon="-0.66745">
        <ele>261</ele>
        <time>2014-01-09T13:27:31.000Z</time>
      </trkpt>
      <trkpt lat="48.72777" lon="-0.66745">
        <ele>261</ele>
        <time>2014-01-09T13:27:35.000Z</time>
      </trkpt>
      <trkpt lat="48.72802" lon="-0.66712">
        <ele>260.20001220703</ele>
        <time>2014-01-09T13:27:42.000Z</time>
      </trkpt>
      <trkpt lat="48.72811" lon="-0.667">
        <ele>259.60000610352</ele>
        <time>2014-01-09T13:27:44.000Z</time>
      </trkpt>
      <trkpt lat="48.72816" lon="-0.66696">
        <ele>259.39999389648</ele>
        <time>2014-01-09T13:27:45.000Z</time>
      </trkpt>
      <trkpt lat="48.72821" lon="-0.66693">
        <ele>259</ele>
        <time>2014-01-09T13:27:46.000Z</time>
      </trkpt>
      <trkpt lat="48.72826" lon="-0.66692">
        <ele>258.79998779297</ele>
        <time>2014-01-09T13:27:47.000Z</time>
      </trkpt>
      <trkpt lat="48.7283" lon="-0.6669">
        <ele>258.39999389648</ele>
        <time>2014-01-09T13:27:48.000Z</time>
      </trkpt>
      <trkpt lat="48.72842" lon="-0.66688">
        <ele>257.60000610352</ele>
        <time>2014-01-09T13:27:51.000Z</time>
      </trkpt>
      <trkpt lat="48.72864" lon="-0.66676">
        <ele>255.80000305176</ele>
        <time>2014-01-09T13:27:57.000Z</time>
      </trkpt>
      <trkpt lat="48.72881" lon="-0.66665">
        <ele>254.60000610352</ele>
        <time>2014-01-09T13:28:01.000Z</time>
      </trkpt>
      <trkpt lat="48.72895" lon="-0.66654">
        <ele>253.80000305176</ele>
        <time>2014-01-09T13:28:04.000Z</time>
      </trkpt>
      <trkpt lat="48.72901" lon="-0.66651">
        <ele>253.60000610352</ele>
        <time>2014-01-09T13:28:05.000Z</time>
      </trkpt>
      <trkpt lat="48.72924" lon="-0.66656">
        <ele>252.39999389648</ele>
        <time>2014-01-09T13:28:06.000Z</time>
      </trkpt>
      <trkpt lat="48.72924" lon="-0.66656">
        <ele>252.39999389648</ele>
        <time>2014-01-09T13:28:09.000Z</time>
      </trkpt>
      <trkpt lat="48.72942" lon="-0.66669">
        <ele>252</ele>
        <time>2014-01-09T13:28:12.000Z</time>
      </trkpt>
      <trkpt lat="48.72948" lon="-0.66671">
        <ele>252.19999694824</ele>
        <time>2014-01-09T13:28:13.000Z</time>
      </trkpt>
      <trkpt lat="48.72955" lon="-0.66671">
        <ele>252.19999694824</ele>
        <time>2014-01-09T13:28:14.000Z</time>
      </trkpt>
      <trkpt lat="48.72973" lon="-0.66668">
        <ele>252</ele>
        <time>2014-01-09T13:28:17.000Z</time>
      </trkpt>
      <trkpt lat="48.72982" lon="-0.66664">
        <ele>252</ele>
        <time>2014-01-09T13:28:19.000Z</time>
      </trkpt>
      <trkpt lat="48.7299" lon="-0.66655">
        <ele>252</ele>
        <time>2014-01-09T13:28:21.000Z</time>
      </trkpt>
      <trkpt lat="48.72991" lon="-0.66648">
        <ele>252</ele>
        <time>2014-01-09T13:28:22.000Z</time>
      </trkpt>
      <trkpt lat="48.7299" lon="-0.66627">
        <ele>252.19999694824</ele>
        <time>2014-01-09T13:28:25.000Z</time>
      </trkpt>
      <trkpt lat="48.72982" lon="-0.66611">
        <ele>252.39999389648</ele>
        <time>2014-01-09T13:28:28.000Z</time>
      </trkpt>
      <trkpt lat="48.7298" lon="-0.66606">
        <ele>252.60000610352</ele>
        <time>2014-01-09T13:28:29.000Z</time>
      </trkpt>
      <trkpt lat="48.72974" lon="-0.6659">
        <ele>252.80000305176</ele>
        <time>2014-01-09T13:28:32.000Z</time>
      </trkpt>
      <trkpt lat="48.72967" lon="-0.66548">
        <ele>254.19999694824</ele>
        <time>2014-01-09T13:28:35.000Z</time>
      </trkpt>
      <trkpt lat="48.72967" lon="-0.66548">
        <ele>254.19999694824</ele>
        <time>2014-01-09T13:28:39.000Z</time>
      </trkpt>
      <trkpt lat="48.72967" lon="-0.66541">
        <ele>254.39999389648</ele>
        <time>2014-01-09T13:28:40.000Z</time>
      </trkpt>
      <trkpt lat="48.7297" lon="-0.66516">
        <ele>255</ele>
        <time>2014-01-09T13:28:44.000Z</time>
      </trkpt>
      <trkpt lat="48.72975" lon="-0.66492">
        <ele>255.39999389648</ele>
        <time>2014-01-09T13:28:49.000Z</time>
      </trkpt>
      <trkpt lat="48.72976" lon="-0.66488">
        <ele>255.39999389648</ele>
        <time>2014-01-09T13:28:50.000Z</time>
      </trkpt>
      <trkpt lat="48.72979" lon="-0.66467">
        <ele>255.60000610352</ele>
        <time>2014-01-09T13:28:55.000Z</time>
      </trkpt>
      <trkpt lat="48.7298" lon="-0.66455">
        <ele>255.80000305176</ele>
        <time>2014-01-09T13:28:58.000Z</time>
      </trkpt>
      <trkpt lat="48.7298" lon="-0.66451">
        <ele>255.80000305176</ele>
        <time>2014-01-09T13:28:59.000Z</time>
      </trkpt>
      <trkpt lat="48.7298" lon="-0.66438">
        <ele>256</ele>
        <time>2014-01-09T13:29:02.000Z</time>
      </trkpt>
      <trkpt lat="48.72972" lon="-0.66411">
        <ele>257</ele>
        <time>2014-01-09T13:29:05.000Z</time>
      </trkpt>
      <trkpt lat="48.72972" lon="-0.66411">
        <ele>257</ele>
        <time>2014-01-09T13:29:09.000Z</time>
      </trkpt>
      <trkpt lat="48.72964" lon="-0.66402">
        <ele>257.79998779297</ele>
        <time>2014-01-09T13:29:13.000Z</time>
      </trkpt>
      <trkpt lat="48.72957" lon="-0.66395">
        <ele>258.39999389648</ele>
        <time>2014-01-09T13:29:16.000Z</time>
      </trkpt>
      <trkpt lat="48.72955" lon="-0.66392">
        <ele>258.60000610352</ele>
        <time>2014-01-09T13:29:17.000Z</time>
      </trkpt>
      <trkpt lat="48.72945" lon="-0.66377">
        <ele>259.39999389648</ele>
        <time>2014-01-09T13:29:23.000Z</time>
      </trkpt>
      <trkpt lat="48.72944" lon="-0.66374">
        <ele>259.60000610352</ele>
        <time>2014-01-09T13:29:24.000Z</time>
      </trkpt>
      <trkpt lat="48.72936" lon="-0.66357">
        <ele>260.39999389648</ele>
        <time>2014-01-09T13:29:29.000Z</time>
      </trkpt>
      <trkpt lat="48.72932" lon="-0.6635">
        <ele>260.60000610352</ele>
        <time>2014-01-09T13:29:31.000Z</time>
      </trkpt>
      <trkpt lat="48.72928" lon="-0.6634">
        <ele>261.20001220703</ele>
        <time>2014-01-09T13:29:34.000Z</time>
      </trkpt>
      <trkpt lat="48.72921" lon="-0.66323">
        <ele>261.60000610352</ele>
        <time>2014-01-09T13:29:39.000Z</time>
      </trkpt>
      <trkpt lat="48.72911" lon="-0.663">
        <ele>261.79998779297</ele>
        <time>2014-01-09T13:29:46.000Z</time>
      </trkpt>
      <trkpt lat="48.72899" lon="-0.66273">
        <ele>262</ele>
        <time>2014-01-09T13:29:53.000Z</time>
      </trkpt>
      <trkpt lat="48.72884" lon="-0.66243">
        <ele>262.39999389648</ele>
        <time>2014-01-09T13:30:00.000Z</time>
      </trkpt>
      <trkpt lat="48.72867" lon="-0.66207">
        <ele>263</ele>
        <time>2014-01-09T13:30:08.000Z</time>
      </trkpt>
      <trkpt lat="48.72857" lon="-0.66168">
        <ele>263.39999389648</ele>
        <time>2014-01-09T13:30:15.000Z</time>
      </trkpt>
      <trkpt lat="48.72856" lon="-0.66162">
        <ele>263.60000610352</ele>
        <time>2014-01-09T13:30:16.000Z</time>
      </trkpt>
      <trkpt lat="48.72854" lon="-0.66151">
        <ele>264</ele>
        <time>2014-01-09T13:30:18.000Z</time>
      </trkpt>
      <trkpt lat="48.72853" lon="-0.66125">
        <ele>264.79998779297</ele>
        <time>2014-01-09T13:30:23.000Z</time>
      </trkpt>
      <trkpt lat="48.72856" lon="-0.66097">
        <ele>265.39999389648</ele>
        <time>2014-01-09T13:30:29.000Z</time>
      </trkpt>
      <trkpt lat="48.72857" lon="-0.66093">
        <ele>265.60000610352</ele>
        <time>2014-01-09T13:30:30.000Z</time>
      </trkpt>
      <trkpt lat="48.72856" lon="-0.66062">
        <ele>266.79998779297</ele>
        <time>2014-01-09T13:30:34.000Z</time>
      </trkpt>
      <trkpt lat="48.72856" lon="-0.66062">
        <ele>266.79998779297</ele>
        <time>2014-01-09T13:30:38.000Z</time>
      </trkpt>
      <trkpt lat="48.72854" lon="-0.66039">
        <ele>267.79998779297</ele>
        <time>2014-01-09T13:30:44.000Z</time>
      </trkpt>
      <trkpt lat="48.72853" lon="-0.66022">
        <ele>268.60000610352</ele>
        <time>2014-01-09T13:30:48.000Z</time>
      </trkpt>
      <trkpt lat="48.72852" lon="-0.66005">
        <ele>269.39999389648</ele>
        <time>2014-01-09T13:30:52.000Z</time>
      </trkpt>
      <trkpt lat="48.72852" lon="-0.65976">
        <ele>270</ele>
        <time>2014-01-09T13:30:59.000Z</time>
      </trkpt>
      <trkpt lat="48.72851" lon="-0.65972">
        <ele>270</ele>
        <time>2014-01-09T13:31:00.000Z</time>
      </trkpt>
      <trkpt lat="48.72852" lon="-0.65944">
        <ele>270.60000610352</ele>
        <time>2014-01-09T13:31:08.000Z</time>
      </trkpt>
      <trkpt lat="48.72851" lon="-0.65936">
        <ele>270.79998779297</ele>
        <time>2014-01-09T13:31:10.000Z</time>
      </trkpt>
      <trkpt lat="48.72848" lon="-0.65915">
        <ele>271.39999389648</ele>
        <time>2014-01-09T13:31:15.000Z</time>
      </trkpt>
      <trkpt lat="48.72845" lon="-0.65903">
        <ele>271.79998779297</ele>
        <time>2014-01-09T13:31:18.000Z</time>
      </trkpt>
      <trkpt lat="48.72841" lon="-0.65889">
        <ele>272.39999389648</ele>
        <time>2014-01-09T13:31:22.000Z</time>
      </trkpt>
      <trkpt lat="48.72836" lon="-0.6587">
        <ele>273</ele>
        <time>2014-01-09T13:31:27.000Z</time>
      </trkpt>
      <trkpt lat="48.7283" lon="-0.6586">
        <ele>273.39999389648</ele>
        <time>2014-01-09T13:31:30.000Z</time>
      </trkpt>
      <trkpt lat="48.72816" lon="-0.65826">
        <ele>274.20001220703</ele>
        <time>2014-01-09T13:31:40.000Z</time>
      </trkpt>
      <trkpt lat="48.72804" lon="-0.65804">
        <ele>274.39999389648</ele>
        <time>2014-01-09T13:31:48.000Z</time>
      </trkpt>
      <trkpt lat="48.72793" lon="-0.65801">
        <ele>274.39999389648</ele>
        <time>2014-01-09T13:31:53.000Z</time>
      </trkpt>
      <trkpt lat="48.72775" lon="-0.65796">
        <ele>274.60000610352</ele>
        <time>2014-01-09T13:32:01.000Z</time>
      </trkpt>
      <trkpt lat="48.72759" lon="-0.65789">
        <ele>274.79998779297</ele>
        <time>2014-01-09T13:32:04.000Z</time>
      </trkpt>
      <trkpt lat="48.72753" lon="-0.65786">
        <ele>275</ele>
        <time>2014-01-09T13:32:11.000Z</time>
      </trkpt>
      <trkpt lat="48.72748" lon="-0.65785">
        <ele>275</ele>
        <time>2014-01-09T13:32:13.000Z</time>
      </trkpt>
      <trkpt lat="48.72735" lon="-0.65779">
        <ele>275.60000610352</ele>
        <time>2014-01-09T13:32:19.000Z</time>
      </trkpt>
      <trkpt lat="48.72731" lon="-0.65777">
        <ele>275.79998779297</ele>
        <time>2014-01-09T13:32:21.000Z</time>
      </trkpt>
      <trkpt lat="48.72721" lon="-0.65774">
        <ele>276.20001220703</ele>
        <time>2014-01-09T13:32:25.000Z</time>
      </trkpt>
      <trkpt lat="48.72712" lon="-0.6577">
        <ele>276.79998779297</ele>
        <time>2014-01-09T13:32:29.000Z</time>
      </trkpt>
      <trkpt lat="48.72704" lon="-0.65767">
        <ele>277</ele>
        <time>2014-01-09T13:32:32.000Z</time>
      </trkpt>
      <trkpt lat="48.72672" lon="-0.65755">
        <ele>278.60000610352</ele>
        <time>2014-01-09T13:32:44.000Z</time>
      </trkpt>
      <trkpt lat="48.72656" lon="-0.65747">
        <ele>278.79998779297</ele>
        <time>2014-01-09T13:32:50.000Z</time>
      </trkpt>
      <trkpt lat="48.72653" lon="-0.65746">
        <ele>278.79998779297</ele>
        <time>2014-01-09T13:32:51.000Z</time>
      </trkpt>
      <trkpt lat="48.72631" lon="-0.65738">
        <ele>278.60000610352</ele>
        <time>2014-01-09T13:32:59.000Z</time>
      </trkpt>
      <trkpt lat="48.72628" lon="-0.65737">
        <ele>278.60000610352</ele>
        <time>2014-01-09T13:33:00.000Z</time>
      </trkpt>
      <trkpt lat="48.72608" lon="-0.65729">
        <ele>278.60000610352</ele>
        <time>2014-01-09T13:33:07.000Z</time>
      </trkpt>
      <trkpt lat="48.7258" lon="-0.6572">
        <ele>278.60000610352</ele>
        <time>2014-01-09T13:33:16.000Z</time>
      </trkpt>
      <trkpt lat="48.72565" lon="-0.65714">
        <ele>278.79998779297</ele>
        <time>2014-01-09T13:33:22.000Z</time>
      </trkpt>
      <trkpt lat="48.72548" lon="-0.65708">
        <ele>279.20001220703</ele>
        <time>2014-01-09T13:33:28.000Z</time>
      </trkpt>
      <trkpt lat="48.72533" lon="-0.65702">
        <ele>279.39999389648</ele>
        <time>2014-01-09T13:33:33.000Z</time>
      </trkpt>
      <trkpt lat="48.72505" lon="-0.65693">
        <ele>280.20001220703</ele>
        <time>2014-01-09T13:33:42.000Z</time>
      </trkpt>
      <trkpt lat="48.72491" lon="-0.65687">
        <ele>281.20001220703</ele>
        <time>2014-01-09T13:33:47.000Z</time>
      </trkpt>
      <trkpt lat="48.72486" lon="-0.65684">
        <ele>281.79998779297</ele>
        <time>2014-01-09T13:33:49.000Z</time>
      </trkpt>
      <trkpt lat="48.72473" lon="-0.65678">
        <ele>283</ele>
        <time>2014-01-09T13:33:55.000Z</time>
      </trkpt>
      <trkpt lat="48.72448" lon="-0.65668">
        <ele>284.79998779297</ele>
        <time>2014-01-09T13:34:03.000Z</time>
      </trkpt>
      <trkpt lat="48.72442" lon="-0.65666">
        <ele>285.20001220703</ele>
        <time>2014-01-09T13:34:10.000Z</time>
      </trkpt>
      <trkpt lat="48.72434" lon="-0.65664">
        <ele>285.60000610352</ele>
        <time>2014-01-09T13:34:14.000Z</time>
      </trkpt>
      <trkpt lat="48.72418" lon="-0.65656">
        <ele>286</ele>
        <time>2014-01-09T13:34:22.000Z</time>
      </trkpt>
      <trkpt lat="48.72415" lon="-0.65654">
        <ele>286.20001220703</ele>
        <time>2014-01-09T13:34:24.000Z</time>
      </trkpt>
      <trkpt lat="48.72404" lon="-0.65651">
        <ele>287.20001220703</ele>
        <time>2014-01-09T13:34:29.000Z</time>
      </trkpt>
      <trkpt lat="48.72383" lon="-0.65646">
        <ele>288.79998779297</ele>
        <time>2014-01-09T13:34:39.000Z</time>
      </trkpt>
      <trkpt lat="48.72377" lon="-0.65643">
        <ele>289.20001220703</ele>
        <time>2014-01-09T13:34:42.000Z</time>
      </trkpt>
      <trkpt lat="48.72373" lon="-0.65641">
        <ele>289.39999389648</ele>
        <time>2014-01-09T13:34:44.000Z</time>
      </trkpt>
      <trkpt lat="48.72363" lon="-0.65634">
        <ele>290</ele>
        <time>2014-01-09T13:34:49.000Z</time>
      </trkpt>
      <trkpt lat="48.72349" lon="-0.65628">
        <ele>291</ele>
        <time>2014-01-09T13:34:55.000Z</time>
      </trkpt>
      <trkpt lat="48.72347" lon="-0.65626">
        <ele>291.20001220703</ele>
        <time>2014-01-09T13:34:56.000Z</time>
      </trkpt>
      <trkpt lat="48.72327" lon="-0.65613">
        <ele>292.39999389648</ele>
        <time>2014-01-09T13:35:03.000Z</time>
      </trkpt>
      <trkpt lat="48.72315" lon="-0.656">
        <ele>292.60000610352</ele>
        <time>2014-01-09T13:35:12.000Z</time>
      </trkpt>
      <trkpt lat="48.723" lon="-0.65585">
        <ele>292.79998779297</ele>
        <time>2014-01-09T13:35:19.000Z</time>
      </trkpt>
      <trkpt lat="48.72291" lon="-0.65572">
        <ele>293.39999389648</ele>
        <time>2014-01-09T13:35:25.000Z</time>
      </trkpt>
      <trkpt lat="48.72287" lon="-0.65567">
        <ele>293.60000610352</ele>
        <time>2014-01-09T13:35:27.000Z</time>
      </trkpt>
      <trkpt lat="48.72284" lon="-0.65562">
        <ele>293.79998779297</ele>
        <time>2014-01-09T13:35:29.000Z</time>
      </trkpt>
      <trkpt lat="48.72272" lon="-0.65544">
        <ele>294.39999389648</ele>
        <time>2014-01-09T13:35:32.000Z</time>
      </trkpt>
      <trkpt lat="48.7227" lon="-0.65542">
        <ele>294.60000610352</ele>
        <time>2014-01-09T13:35:37.000Z</time>
      </trkpt>
      <trkpt lat="48.72269" lon="-0.6554">
        <ele>294.60000610352</ele>
        <time>2014-01-09T13:35:38.000Z</time>
      </trkpt>
      <trkpt lat="48.7226" lon="-0.65532">
        <ele>295</ele>
        <time>2014-01-09T13:35:42.000Z</time>
      </trkpt>
      <trkpt lat="48.7225" lon="-0.65523">
        <ele>295.60000610352</ele>
        <time>2014-01-09T13:35:46.000Z</time>
      </trkpt>
      <trkpt lat="48.72245" lon="-0.6552">
        <ele>295.79998779297</ele>
        <time>2014-01-09T13:35:48.000Z</time>
      </trkpt>
      <trkpt lat="48.72227" lon="-0.65506">
        <ele>296.60000610352</ele>
        <time>2014-01-09T13:35:55.000Z</time>
      </trkpt>
      <trkpt lat="48.72211" lon="-0.65497">
        <ele>297.20001220703</ele>
        <time>2014-01-09T13:36:01.000Z</time>
      </trkpt>
      <trkpt lat="48.722" lon="-0.65486">
        <ele>297.39999389648</ele>
        <time>2014-01-09T13:36:02.000Z</time>
      </trkpt>
      <trkpt lat="48.722" lon="-0.65486">
        <ele>297.39999389648</ele>
        <time>2014-01-09T13:36:06.000Z</time>
      </trkpt>
      <trkpt lat="48.72192" lon="-0.65477">
        <ele>297.20001220703</ele>
        <time>2014-01-09T13:36:10.000Z</time>
      </trkpt>
      <trkpt lat="48.72183" lon="-0.65467">
        <ele>297.20001220703</ele>
        <time>2014-01-09T13:36:15.000Z</time>
      </trkpt>
      <trkpt lat="48.72172" lon="-0.65455">
        <ele>297</ele>
        <time>2014-01-09T13:36:21.000Z</time>
      </trkpt>
      <trkpt lat="48.72161" lon="-0.6544">
        <ele>296.60000610352</ele>
        <time>2014-01-09T13:36:27.000Z</time>
      </trkpt>
      <trkpt lat="48.72153" lon="-0.65432">
        <ele>296.39999389648</ele>
        <time>2014-01-09T13:36:31.000Z</time>
      </trkpt>
      <trkpt lat="48.72145" lon="-0.65423">
        <ele>296.39999389648</ele>
        <time>2014-01-09T13:36:35.000Z</time>
      </trkpt>
      <trkpt lat="48.72129" lon="-0.6541">
        <ele>296.20001220703</ele>
        <time>2014-01-09T13:36:43.000Z</time>
      </trkpt>
      <trkpt lat="48.72119" lon="-0.65402">
        <ele>296</ele>
        <time>2014-01-09T13:36:49.000Z</time>
      </trkpt>
      <trkpt lat="48.72103" lon="-0.65392">
        <ele>296</ele>
        <time>2014-01-09T13:36:55.000Z</time>
      </trkpt>
      <trkpt lat="48.72076" lon="-0.65387">
        <ele>296.60000610352</ele>
        <time>2014-01-09T13:37:01.000Z</time>
      </trkpt>
      <trkpt lat="48.7206" lon="-0.6539">
        <ele>296.39999389648</ele>
        <time>2014-01-09T13:37:13.000Z</time>
      </trkpt>
      <trkpt lat="48.72048" lon="-0.65392">
        <ele>296.20001220703</ele>
        <time>2014-01-09T13:37:19.000Z</time>
      </trkpt>
      <trkpt lat="48.72037" lon="-0.65392">
        <ele>295.79998779297</ele>
        <time>2014-01-09T13:37:25.000Z</time>
      </trkpt>
      <trkpt lat="48.72037" lon="-0.65392">
        <ele>295.79998779297</ele>
        <time>2014-01-09T13:37:29.000Z</time>
      </trkpt>
      <trkpt lat="48.72037" lon="-0.65392">
        <ele>295.79998779297</ele>
        <time>2014-01-09T13:37:46.000Z</time>
      </trkpt>
      <trkpt lat="48.72037" lon="-0.65392">
        <ele>295.79998779297</ele>
        <time>2014-01-09T13:37:58.000Z</time>
      </trkpt>
      <trkpt lat="48.72037" lon="-0.65392">
        <ele>295.79998779297</ele>
        <time>2014-01-09T13:38:12.000Z</time>
      </trkpt>
      <trkpt lat="48.72037" lon="-0.65392">
        <ele>295.79998779297</ele>
        <time>2014-01-09T13:38:25.000Z</time>
      </trkpt>
      <trkpt lat="48.72035" lon="-0.65393">
        <ele>295.79998779297</ele>
        <time>2014-01-09T13:38:28.000Z</time>
      </trkpt>
      <trkpt lat="48.72032" lon="-0.65394">
        <ele>295.79998779297</ele>
        <time>2014-01-09T13:38:30.000Z</time>
      </trkpt>
      <trkpt lat="48.72014" lon="-0.65395">
        <ele>295.20001220703</ele>
        <time>2014-01-09T13:38:36.000Z</time>
      </trkpt>
      <trkpt lat="48.72003" lon="-0.65397">
        <ele>294.79998779297</ele>
        <time>2014-01-09T13:38:40.000Z</time>
      </trkpt>
      <trkpt lat="48.71995" lon="-0.65398">
        <ele>294.39999389648</ele>
        <time>2014-01-09T13:38:43.000Z</time>
      </trkpt>
      <trkpt lat="48.7199" lon="-0.65397">
        <ele>294.20001220703</ele>
        <time>2014-01-09T13:38:46.000Z</time>
      </trkpt>
      <trkpt lat="48.71984" lon="-0.65395">
        <ele>293.79998779297</ele>
        <time>2014-01-09T13:38:49.000Z</time>
      </trkpt>
      <trkpt lat="48.71981" lon="-0.65393">
        <ele>293.60000610352</ele>
        <time>2014-01-09T13:38:51.000Z</time>
      </trkpt>
      <trkpt lat="48.71979" lon="-0.65393">
        <ele>293.39999389648</ele>
        <time>2014-01-09T13:38:52.000Z</time>
      </trkpt>
      <trkpt lat="48.71978" lon="-0.65392">
        <ele>293.20001220703</ele>
        <time>2014-01-09T13:38:53.000Z</time>
      </trkpt>
      <trkpt lat="48.71976" lon="-0.65392">
        <ele>293.20001220703</ele>
        <time>2014-01-09T13:38:54.000Z</time>
      </trkpt>
      <trkpt lat="48.71974" lon="-0.65392">
        <ele>293</ele>
        <time>2014-01-09T13:38:56.000Z</time>
      </trkpt>
      <trkpt lat="48.71971" lon="-0.65392">
        <ele>292.79998779297</ele>
        <time>2014-01-09T13:38:58.000Z</time>
      </trkpt>
      <trkpt lat="48.7197" lon="-0.65392">
        <ele>292.79998779297</ele>
        <time>2014-01-09T13:38:59.000Z</time>
      </trkpt>
      <trkpt lat="48.71963" lon="-0.6539">
        <ele>292.39999389648</ele>
        <time>2014-01-09T13:39:04.000Z</time>
      </trkpt>
      <trkpt lat="48.71962" lon="-0.65389">
        <ele>292.20001220703</ele>
        <time>2014-01-09T13:39:05.000Z</time>
      </trkpt>
      <trkpt lat="48.7196" lon="-0.65389">
        <ele>292</ele>
        <time>2014-01-09T13:39:06.000Z</time>
      </trkpt>
      <trkpt lat="48.71951" lon="-0.65387">
        <ele>291.60000610352</ele>
        <time>2014-01-09T13:39:10.000Z</time>
      </trkpt>
      <trkpt lat="48.71947" lon="-0.65386">
        <ele>291.20001220703</ele>
        <time>2014-01-09T13:39:12.000Z</time>
      </trkpt>
      <trkpt lat="48.71941" lon="-0.65384">
        <ele>290.79998779297</ele>
        <time>2014-01-09T13:39:16.000Z</time>
      </trkpt>
      <trkpt lat="48.71939" lon="-0.65383">
        <ele>290.60000610352</ele>
        <time>2014-01-09T13:39:17.000Z</time>
      </trkpt>
      <trkpt lat="48.71932" lon="-0.65381">
        <ele>290.20001220703</ele>
        <time>2014-01-09T13:39:22.000Z</time>
      </trkpt>
      <trkpt lat="48.71927" lon="-0.6538">
        <ele>289.79998779297</ele>
        <time>2014-01-09T13:39:25.000Z</time>
      </trkpt>
      <trkpt lat="48.71922" lon="-0.65376">
        <ele>289.39999389648</ele>
        <time>2014-01-09T13:39:28.000Z</time>
      </trkpt>
      <trkpt lat="48.71913" lon="-0.6537">
        <ele>288.60000610352</ele>
        <time>2014-01-09T13:39:32.000Z</time>
      </trkpt>
      <trkpt lat="48.71907" lon="-0.65368">
        <ele>288</ele>
        <time>2014-01-09T13:39:35.000Z</time>
      </trkpt>
      <trkpt lat="48.71901" lon="-0.65366">
        <ele>287.39999389648</ele>
        <time>2014-01-09T13:39:38.000Z</time>
      </trkpt>
      <trkpt lat="48.71892" lon="-0.65362">
        <ele>286.60000610352</ele>
        <time>2014-01-09T13:39:42.000Z</time>
      </trkpt>
      <trkpt lat="48.71891" lon="-0.65362">
        <ele>286.60000610352</ele>
        <time>2014-01-09T13:39:46.000Z</time>
      </trkpt>
      <trkpt lat="48.71891" lon="-0.65362">
        <ele>286.60000610352</ele>
        <time>2014-01-09T13:39:55.000Z</time>
      </trkpt>
      <trkpt lat="48.71891" lon="-0.65362">
        <ele>286.60000610352</ele>
        <time>2014-01-09T13:39:59.000Z</time>
      </trkpt>
      <trkpt lat="48.71891" lon="-0.65362">
        <ele>286.60000610352</ele>
        <time>2014-01-09T13:40:02.000Z</time>
      </trkpt>
      <trkpt lat="48.71891" lon="-0.65362">
        <ele>286.60000610352</ele>
        <time>2014-01-09T13:40:07.000Z</time>
      </trkpt>
      <trkpt lat="48.71891" lon="-0.65362">
        <ele>286.39999389648</ele>
        <time>2014-01-09T13:40:09.000Z</time>
      </trkpt>
      <trkpt lat="48.71891" lon="-0.65362">
        <ele>286.60000610352</ele>
        <time>2014-01-09T13:40:16.000Z</time>
      </trkpt>
      <trkpt lat="48.71871" lon="-0.65352">
        <ele>284.60000610352</ele>
        <time>2014-01-09T13:40:24.000Z</time>
      </trkpt>
      <trkpt lat="48.71855" lon="-0.65344">
        <ele>283.20001220703</ele>
        <time>2014-01-09T13:40:30.000Z</time>
      </trkpt>
      <trkpt lat="48.71836" lon="-0.65332">
        <ele>281.20001220703</ele>
        <time>2014-01-09T13:40:35.000Z</time>
      </trkpt>
      <trkpt lat="48.71836" lon="-0.65332">
        <ele>281.20001220703</ele>
        <time>2014-01-09T13:40:39.000Z</time>
      </trkpt>
      <trkpt lat="48.71818" lon="-0.65324">
        <ele>279.79998779297</ele>
        <time>2014-01-09T13:40:46.000Z</time>
      </trkpt>
      <trkpt lat="48.71805" lon="-0.65318">
        <ele>279</ele>
        <time>2014-01-09T13:40:52.000Z</time>
      </trkpt>
      <trkpt lat="48.71803" lon="-0.65318">
        <ele>279</ele>
        <time>2014-01-09T13:40:53.000Z</time>
      </trkpt>
      <trkpt lat="48.71792" lon="-0.65314">
        <ele>278.39999389648</ele>
        <time>2014-01-09T13:40:58.000Z</time>
      </trkpt>
      <trkpt lat="48.71788" lon="-0.6531">
        <ele>278</ele>
        <time>2014-01-09T13:41:01.000Z</time>
      </trkpt>
      <trkpt lat="48.71785" lon="-0.65308">
        <ele>277.79998779297</ele>
        <time>2014-01-09T13:41:03.000Z</time>
      </trkpt>
      <trkpt lat="48.71778" lon="-0.65296">
        <ele>277.39999389648</ele>
        <time>2014-01-09T13:41:08.000Z</time>
      </trkpt>
      <trkpt lat="48.71775" lon="-0.65289">
        <ele>277.20001220703</ele>
        <time>2014-01-09T13:41:10.000Z</time>
      </trkpt>
      <trkpt lat="48.71769" lon="-0.65278">
        <ele>276.79998779297</ele>
        <time>2014-01-09T13:41:13.000Z</time>
      </trkpt>
      <trkpt lat="48.7176" lon="-0.65261">
        <ele>276.39999389648</ele>
        <time>2014-01-09T13:41:17.000Z</time>
      </trkpt>
      <trkpt lat="48.71755" lon="-0.65253">
        <ele>276.20001220703</ele>
        <time>2014-01-09T13:41:19.000Z</time>
      </trkpt>
      <trkpt lat="48.71732" lon="-0.65211">
        <ele>275.39999389648</ele>
        <time>2014-01-09T13:41:27.000Z</time>
      </trkpt>
      <trkpt lat="48.71726" lon="-0.652">
        <ele>275.20001220703</ele>
        <time>2014-01-09T13:41:29.000Z</time>
      </trkpt>
      <trkpt lat="48.71708" lon="-0.6517">
        <ele>275</ele>
        <time>2014-01-09T13:41:35.000Z</time>
      </trkpt>
      <trkpt lat="48.71692" lon="-0.65134">
        <ele>275.79998779297</ele>
        <time>2014-01-09T13:41:42.000Z</time>
      </trkpt>
      <trkpt lat="48.71684" lon="-0.65099">
        <ele>276.60000610352</ele>
        <time>2014-01-09T13:41:49.000Z</time>
      </trkpt>
      <trkpt lat="48.71683" lon="-0.65084">
        <ele>277</ele>
        <time>2014-01-09T13:41:52.000Z</time>
      </trkpt>
      <trkpt lat="48.71682" lon="-0.65075">
        <ele>277.20001220703</ele>
        <time>2014-01-09T13:41:54.000Z</time>
      </trkpt>
      <trkpt lat="48.71681" lon="-0.65041">
        <ele>277.79998779297</ele>
        <time>2014-01-09T13:42:02.000Z</time>
      </trkpt>
      <trkpt lat="48.71683" lon="-0.6502">
        <ele>278.20001220703</ele>
        <time>2014-01-09T13:42:07.000Z</time>
      </trkpt>
      <trkpt lat="48.71684" lon="-0.65016">
        <ele>278.20001220703</ele>
        <time>2014-01-09T13:42:08.000Z</time>
      </trkpt>
      <trkpt lat="48.71684" lon="-0.65006">
        <ele>278.39999389648</ele>
        <time>2014-01-09T13:42:14.000Z</time>
      </trkpt>
      <trkpt lat="48.71684" lon="-0.65005">
        <ele>278.39999389648</ele>
        <time>2014-01-09T13:42:29.000Z</time>
      </trkpt>
      <trkpt lat="48.71685" lon="-0.65004">
        <ele>278.39999389648</ele>
        <time>2014-01-09T13:42:39.000Z</time>
      </trkpt>
      <trkpt lat="48.71687" lon="-0.65003">
        <ele>278.39999389648</ele>
        <time>2014-01-09T13:42:40.000Z</time>
      </trkpt>
      <trkpt lat="48.717" lon="-0.64991">
        <ele>278.60000610352</ele>
        <time>2014-01-09T13:42:44.000Z</time>
      </trkpt>
      <trkpt lat="48.71706" lon="-0.64983">
        <ele>278.79998779297</ele>
        <time>2014-01-09T13:42:46.000Z</time>
      </trkpt>
      <trkpt lat="48.71721" lon="-0.64965">
        <ele>279.20001220703</ele>
        <time>2014-01-09T13:42:51.000Z</time>
      </trkpt>
      <trkpt lat="48.7175" lon="-0.64932">
        <ele>279.39999389648</ele>
        <time>2014-01-09T13:42:59.000Z</time>
      </trkpt>
      <trkpt lat="48.71753" lon="-0.64928">
        <ele>279.60000610352</ele>
        <time>2014-01-09T13:43:00.000Z</time>
      </trkpt>
      <trkpt lat="48.71767" lon="-0.64912">
        <ele>280</ele>
        <time>2014-01-09T13:43:04.000Z</time>
      </trkpt>
      <trkpt lat="48.71773" lon="-0.64903">
        <ele>280.39999389648</ele>
        <time>2014-01-09T13:43:06.000Z</time>
      </trkpt>
      <trkpt lat="48.71775" lon="-0.64898">
        <ele>280.60000610352</ele>
        <time>2014-01-09T13:43:07.000Z</time>
      </trkpt>
      <trkpt lat="48.71786" lon="-0.64873">
        <ele>281.39999389648</ele>
        <time>2014-01-09T13:43:12.000Z</time>
      </trkpt>
      <trkpt lat="48.71787" lon="-0.64869">
        <ele>281.60000610352</ele>
        <time>2014-01-09T13:43:13.000Z</time>
      </trkpt>
      <trkpt lat="48.71797" lon="-0.64852">
        <ele>282.20001220703</ele>
        <time>2014-01-09T13:43:18.000Z</time>
      </trkpt>
      <trkpt lat="48.71803" lon="-0.64837">
        <ele>282.60000610352</ele>
        <time>2014-01-09T13:43:23.000Z</time>
      </trkpt>
      <trkpt lat="48.71802" lon="-0.64833">
        <ele>282.79998779297</ele>
        <time>2014-01-09T13:43:24.000Z</time>
      </trkpt>
      <trkpt lat="48.71801" lon="-0.64826">
        <ele>283.20001220703</ele>
        <time>2014-01-09T13:43:26.000Z</time>
      </trkpt>
      <trkpt lat="48.71798" lon="-0.64813">
        <ele>284</ele>
        <time>2014-01-09T13:43:30.000Z</time>
      </trkpt>
      <trkpt lat="48.71796" lon="-0.64807">
        <ele>284.39999389648</ele>
        <time>2014-01-09T13:43:32.000Z</time>
      </trkpt>
      <trkpt lat="48.71795" lon="-0.648">
        <ele>284.79998779297</ele>
        <time>2014-01-09T13:43:34.000Z</time>
      </trkpt>
      <trkpt lat="48.71792" lon="-0.64783">
        <ele>285.79998779297</ele>
        <time>2014-01-09T13:43:39.000Z</time>
      </trkpt>
      <trkpt lat="48.71791" lon="-0.64779">
        <ele>286</ele>
        <time>2014-01-09T13:43:40.000Z</time>
      </trkpt>
      <trkpt lat="48.71788" lon="-0.64769">
        <ele>286.60000610352</ele>
        <time>2014-01-09T13:43:43.000Z</time>
      </trkpt>
      <trkpt lat="48.71785" lon="-0.64753">
        <ele>287.60000610352</ele>
        <time>2014-01-09T13:43:48.000Z</time>
      </trkpt>
      <trkpt lat="48.71785" lon="-0.6475">
        <ele>287.79998779297</ele>
        <time>2014-01-09T13:43:49.000Z</time>
      </trkpt>
      <trkpt lat="48.71784" lon="-0.6474">
        <ele>288.39999389648</ele>
        <time>2014-01-09T13:43:53.000Z</time>
      </trkpt>
      <trkpt lat="48.71783" lon="-0.64739">
        <ele>288.39999389648</ele>
        <time>2014-01-09T13:43:54.000Z</time>
      </trkpt>
      <trkpt lat="48.71782" lon="-0.6474">
        <ele>288.39999389648</ele>
        <time>2014-01-09T13:43:55.000Z</time>
      </trkpt>
      <trkpt lat="48.71776" lon="-0.64742">
        <ele>288.60000610352</ele>
        <time>2014-01-09T13:43:59.000Z</time>
      </trkpt>
      <trkpt lat="48.71761" lon="-0.64749">
        <ele>288.60000610352</ele>
        <time>2014-01-09T13:44:07.000Z</time>
      </trkpt>
      <trkpt lat="48.71756" lon="-0.64751">
        <ele>288.79998779297</ele>
        <time>2014-01-09T13:44:10.000Z</time>
      </trkpt>
      <trkpt lat="48.71751" lon="-0.64754">
        <ele>288.60000610352</ele>
        <time>2014-01-09T13:44:13.000Z</time>
      </trkpt>
      <trkpt lat="48.7174" lon="-0.64756">
        <ele>289.39999389648</ele>
        <time>2014-01-09T13:44:19.000Z</time>
      </trkpt>
      <trkpt lat="48.71735" lon="-0.64753">
        <ele>290</ele>
        <time>2014-01-09T13:44:23.000Z</time>
      </trkpt>
      <trkpt lat="48.71733" lon="-0.64753">
        <ele>290</ele>
        <time>2014-01-09T13:44:25.000Z</time>
      </trkpt>
      <trkpt lat="48.71723" lon="-0.6475">
        <ele>291</ele>
        <time>2014-01-09T13:44:32.000Z</time>
      </trkpt>
      <trkpt lat="48.71714" lon="-0.64747">
        <ele>291.79998779297</ele>
        <time>2014-01-09T13:44:37.000Z</time>
      </trkpt>
      <trkpt lat="48.71711" lon="-0.64746">
        <ele>291.79998779297</ele>
        <time>2014-01-09T13:44:38.000Z</time>
      </trkpt>
      <trkpt lat="48.71706" lon="-0.64745">
        <ele>292.20001220703</ele>
        <time>2014-01-09T13:44:41.000Z</time>
      </trkpt>
      <trkpt lat="48.71701" lon="-0.64743">
        <ele>292.60000610352</ele>
        <time>2014-01-09T13:44:44.000Z</time>
      </trkpt>
      <trkpt lat="48.71699" lon="-0.64743">
        <ele>292.79998779297</ele>
        <time>2014-01-09T13:44:45.000Z</time>
      </trkpt>
      <trkpt lat="48.71692" lon="-0.64741">
        <ele>293.20001220703</ele>
        <time>2014-01-09T13:44:49.000Z</time>
      </trkpt>
      <trkpt lat="48.7169" lon="-0.6474">
        <ele>293.39999389648</ele>
        <time>2014-01-09T13:44:50.000Z</time>
      </trkpt>
      <trkpt lat="48.71682" lon="-0.64739">
        <ele>294</ele>
        <time>2014-01-09T13:44:55.000Z</time>
      </trkpt>
      <trkpt lat="48.71672" lon="-0.64737">
        <ele>294.60000610352</ele>
        <time>2014-01-09T13:45:00.000Z</time>
      </trkpt>
      <trkpt lat="48.71667" lon="-0.64736">
        <ele>294.79998779297</ele>
        <time>2014-01-09T13:45:02.000Z</time>
      </trkpt>
      <trkpt lat="48.71652" lon="-0.64733">
        <ele>295</ele>
        <time>2014-01-09T13:45:07.000Z</time>
      </trkpt>
      <trkpt lat="48.71644" lon="-0.64732">
        <ele>295.20001220703</ele>
        <time>2014-01-09T13:45:10.000Z</time>
      </trkpt>
      <trkpt lat="48.71639" lon="-0.64731">
        <ele>295.20001220703</ele>
        <time>2014-01-09T13:45:12.000Z</time>
      </trkpt>
      <trkpt lat="48.71637" lon="-0.64731">
        <ele>295.39999389648</ele>
        <time>2014-01-09T13:45:13.000Z</time>
      </trkpt>
      <trkpt lat="48.7163" lon="-0.6473">
        <ele>295.39999389648</ele>
        <time>2014-01-09T13:45:16.000Z</time>
      </trkpt>
      <trkpt lat="48.71626" lon="-0.6473">
        <ele>295.60000610352</ele>
        <time>2014-01-09T13:45:18.000Z</time>
      </trkpt>
      <trkpt lat="48.71611" lon="-0.64729">
        <ele>295.79998779297</ele>
        <time>2014-01-09T13:45:25.000Z</time>
      </trkpt>
      <trkpt lat="48.71594" lon="-0.64731">
        <ele>296.20001220703</ele>
        <time>2014-01-09T13:45:32.000Z</time>
      </trkpt>
      <trkpt lat="48.71588" lon="-0.64731">
        <ele>296.20001220703</ele>
        <time>2014-01-09T13:45:38.000Z</time>
      </trkpt>
      <trkpt lat="48.71588" lon="-0.64731">
        <ele>296.20001220703</ele>
        <time>2014-01-09T13:45:53.000Z</time>
      </trkpt>
      <trkpt lat="48.71588" lon="-0.64731">
        <ele>296.20001220703</ele>
        <time>2014-01-09T13:46:07.000Z</time>
      </trkpt>
      <trkpt lat="48.71588" lon="-0.64731">
        <ele>296.20001220703</ele>
        <time>2014-01-09T13:46:22.000Z</time>
      </trkpt>
      <trkpt lat="48.71588" lon="-0.64731">
        <ele>296.20001220703</ele>
        <time>2014-01-09T13:46:35.000Z</time>
      </trkpt>
      <trkpt lat="48.71588" lon="-0.64731">
        <ele>296.20001220703</ele>
        <time>2014-01-09T13:46:47.000Z</time>
      </trkpt>
      <trkpt lat="48.71587" lon="-0.64731">
        <ele>296.20001220703</ele>
        <time>2014-01-09T13:47:00.000Z</time>
      </trkpt>
      <trkpt lat="48.71587" lon="-0.64731">
        <ele>296.20001220703</ele>
        <time>2014-01-09T13:47:17.000Z</time>
      </trkpt>
      <trkpt lat="48.71587" lon="-0.64731">
        <ele>296.20001220703</ele>
        <time>2014-01-09T13:47:37.000Z</time>
      </trkpt>
      <trkpt lat="48.71585" lon="-0.64731">
        <ele>296.20001220703</ele>
        <time>2014-01-09T13:47:46.000Z</time>
      </trkpt>
      <trkpt lat="48.71574" lon="-0.64736">
        <ele>296</ele>
        <time>2014-01-09T13:47:52.000Z</time>
      </trkpt>
      <trkpt lat="48.7157" lon="-0.64737">
        <ele>295.79998779297</ele>
        <time>2014-01-09T13:47:54.000Z</time>
      </trkpt>
      <trkpt lat="48.71561" lon="-0.64741">
        <ele>295.60000610352</ele>
        <time>2014-01-09T13:47:57.000Z</time>
      </trkpt>
      <trkpt lat="48.71552" lon="-0.64747">
        <ele>295.39999389648</ele>
        <time>2014-01-09T13:48:01.000Z</time>
      </trkpt>
      <trkpt lat="48.71544" lon="-0.64752">
        <ele>295.20001220703</ele>
        <time>2014-01-09T13:48:04.000Z</time>
      </trkpt>
      <trkpt lat="48.71535" lon="-0.64757">
        <ele>294.79998779297</ele>
        <time>2014-01-09T13:48:08.000Z</time>
      </trkpt>
      <trkpt lat="48.71529" lon="-0.64761">
        <ele>294.60000610352</ele>
        <time>2014-01-09T13:48:10.000Z</time>
      </trkpt>
      <trkpt lat="48.71501" lon="-0.64773">
        <ele>293.79998779297</ele>
        <time>2014-01-09T13:48:19.000Z</time>
      </trkpt>
      <trkpt lat="48.71479" lon="-0.64782">
        <ele>293.60000610352</ele>
        <time>2014-01-09T13:48:26.000Z</time>
      </trkpt>
      <trkpt lat="48.71475" lon="-0.64783">
        <ele>293.60000610352</ele>
        <time>2014-01-09T13:48:27.000Z</time>
      </trkpt>
      <trkpt lat="48.71458" lon="-0.64788">
        <ele>293.39999389648</ele>
        <time>2014-01-09T13:48:32.000Z</time>
      </trkpt>
      <trkpt lat="48.71443" lon="-0.64794">
        <ele>293.20001220703</ele>
        <time>2014-01-09T13:48:37.000Z</time>
      </trkpt>
      <trkpt lat="48.71436" lon="-0.64793">
        <ele>293</ele>
        <time>2014-01-09T13:48:39.000Z</time>
      </trkpt>
      <trkpt lat="48.71418" lon="-0.64782">
        <ele>292.39999389648</ele>
        <time>2014-01-09T13:48:45.000Z</time>
      </trkpt>
      <trkpt lat="48.71402" lon="-0.64764">
        <ele>292.39999389648</ele>
        <time>2014-01-09T13:48:51.000Z</time>
      </trkpt>
      <trkpt lat="48.71384" lon="-0.64732">
        <ele>291.39999389648</ele>
        <time>2014-01-09T13:48:58.000Z</time>
      </trkpt>
      <trkpt lat="48.71382" lon="-0.64726">
        <ele>291</ele>
        <time>2014-01-09T13:48:59.000Z</time>
      </trkpt>
      <trkpt lat="48.71365" lon="-0.64682">
        <ele>289.20001220703</ele>
        <time>2014-01-09T13:49:07.000Z</time>
      </trkpt>
      <trkpt lat="48.71348" lon="-0.64635">
        <ele>288</ele>
        <time>2014-01-09T13:49:16.000Z</time>
      </trkpt>
      <trkpt lat="48.71338" lon="-0.64607">
        <ele>287.60000610352</ele>
        <time>2014-01-09T13:49:22.000Z</time>
      </trkpt>
      <trkpt lat="48.71336" lon="-0.64603">
        <ele>287.60000610352</ele>
        <time>2014-01-09T13:49:23.000Z</time>
      </trkpt>
      <trkpt lat="48.71325" lon="-0.64574">
        <ele>287.20001220703</ele>
        <time>2014-01-09T13:49:29.000Z</time>
      </trkpt>
      <trkpt lat="48.71308" lon="-0.6453">
        <ele>287.20001220703</ele>
        <time>2014-01-09T13:49:37.000Z</time>
      </trkpt>
      <trkpt lat="48.71286" lon="-0.64473">
        <ele>287.60000610352</ele>
        <time>2014-01-09T13:49:46.000Z</time>
      </trkpt>
      <trkpt lat="48.71266" lon="-0.64419">
        <ele>287.79998779297</ele>
        <time>2014-01-09T13:49:54.000Z</time>
      </trkpt>
      <trkpt lat="48.7125" lon="-0.6438">
        <ele>288.79998779297</ele>
        <time>2014-01-09T13:50:00.000Z</time>
      </trkpt>
      <trkpt lat="48.71241" lon="-0.64361">
        <ele>289.20001220703</ele>
        <time>2014-01-09T13:50:03.000Z</time>
      </trkpt>
      <trkpt lat="48.7122" lon="-0.64328">
        <ele>289.79998779297</ele>
        <time>2014-01-09T13:50:09.000Z</time>
      </trkpt>
      <trkpt lat="48.71206" lon="-0.64307">
        <ele>290</ele>
        <time>2014-01-09T13:50:13.000Z</time>
      </trkpt>
      <trkpt lat="48.71193" lon="-0.64293">
        <ele>290.20001220703</ele>
        <time>2014-01-09T13:50:16.000Z</time>
      </trkpt>
      <trkpt lat="48.71163" lon="-0.64266">
        <ele>290.39999389648</ele>
        <time>2014-01-09T13:50:23.000Z</time>
      </trkpt>
      <trkpt lat="48.71158" lon="-0.64263">
        <ele>290.20001220703</ele>
        <time>2014-01-09T13:50:24.000Z</time>
      </trkpt>
      <trkpt lat="48.71129" lon="-0.64242">
        <ele>289.39999389648</ele>
        <time>2014-01-09T13:50:30.000Z</time>
      </trkpt>
      <trkpt lat="48.71095" lon="-0.6422">
        <ele>288.60000610352</ele>
        <time>2014-01-09T13:50:37.000Z</time>
      </trkpt>
      <trkpt lat="48.7109" lon="-0.64216">
        <ele>288.39999389648</ele>
        <time>2014-01-09T13:50:38.000Z</time>
      </trkpt>
      <trkpt lat="48.7107" lon="-0.64203">
        <ele>288</ele>
        <time>2014-01-09T13:50:42.000Z</time>
      </trkpt>
      <trkpt lat="48.7106" lon="-0.64196">
        <ele>287.60000610352</ele>
        <time>2014-01-09T13:50:44.000Z</time>
      </trkpt>
      <trkpt lat="48.71024" lon="-0.64173">
        <ele>286.20001220703</ele>
        <time>2014-01-09T13:50:51.000Z</time>
      </trkpt>
      <trkpt lat="48.70995" lon="-0.64149">
        <ele>285.20001220703</ele>
        <time>2014-01-09T13:50:57.000Z</time>
      </trkpt>
      <trkpt lat="48.70986" lon="-0.64141">
        <ele>285.20001220703</ele>
        <time>2014-01-09T13:50:59.000Z</time>
      </trkpt>
      <trkpt lat="48.7097" lon="-0.64123">
        <ele>285.20001220703</ele>
        <time>2014-01-09T13:51:03.000Z</time>
      </trkpt>
      <trkpt lat="48.7096" lon="-0.6411">
        <ele>285.20001220703</ele>
        <time>2014-01-09T13:51:06.000Z</time>
      </trkpt>
      <trkpt lat="48.70942" lon="-0.64082">
        <ele>285.60000610352</ele>
        <time>2014-01-09T13:51:13.000Z</time>
      </trkpt>
      <trkpt lat="48.70936" lon="-0.64061">
        <ele>286.39999389648</ele>
        <time>2014-01-09T13:51:18.000Z</time>
      </trkpt>
      <trkpt lat="48.70938" lon="-0.64054">
        <ele>286.79998779297</ele>
        <time>2014-01-09T13:51:20.000Z</time>
      </trkpt>
      <trkpt lat="48.70943" lon="-0.64043">
        <ele>287.39999389648</ele>
        <time>2014-01-09T13:51:23.000Z</time>
      </trkpt>
      <trkpt lat="48.70952" lon="-0.6402">
        <ele>288.60000610352</ele>
        <time>2014-01-09T13:51:29.000Z</time>
      </trkpt>
      <trkpt lat="48.70957" lon="-0.6401">
        <ele>289</ele>
        <time>2014-01-09T13:51:32.000Z</time>
      </trkpt>
      <trkpt lat="48.70965" lon="-0.63993">
        <ele>289.79998779297</ele>
        <time>2014-01-09T13:51:37.000Z</time>
      </trkpt>
      <trkpt lat="48.7097" lon="-0.63983">
        <ele>290</ele>
        <time>2014-01-09T13:51:40.000Z</time>
      </trkpt>
      <trkpt lat="48.70974" lon="-0.63976">
        <ele>290.20001220703</ele>
        <time>2014-01-09T13:51:42.000Z</time>
      </trkpt>
      <trkpt lat="48.70987" lon="-0.63949">
        <ele>290.60000610352</ele>
        <time>2014-01-09T13:51:50.000Z</time>
      </trkpt>
      <trkpt lat="48.70989" lon="-0.63946">
        <ele>290.60000610352</ele>
        <time>2014-01-09T13:51:51.000Z</time>
      </trkpt>
      <trkpt lat="48.70995" lon="-0.63934">
        <ele>290.79998779297</ele>
        <time>2014-01-09T13:51:55.000Z</time>
      </trkpt>
      <trkpt lat="48.71" lon="-0.63924">
        <ele>291</ele>
        <time>2014-01-09T13:51:58.000Z</time>
      </trkpt>
      <trkpt lat="48.71003" lon="-0.63918">
        <ele>291.20001220703</ele>
        <time>2014-01-09T13:52:00.000Z</time>
      </trkpt>
      <trkpt lat="48.71006" lon="-0.63898">
        <ele>291.79998779297</ele>
        <time>2014-01-09T13:52:05.000Z</time>
      </trkpt>
      <trkpt lat="48.71007" lon="-0.63891">
        <ele>292.20001220703</ele>
        <time>2014-01-09T13:52:07.000Z</time>
      </trkpt>
      <trkpt lat="48.7101" lon="-0.63878">
        <ele>292.60000610352</ele>
        <time>2014-01-09T13:52:11.000Z</time>
      </trkpt>
      <trkpt lat="48.71011" lon="-0.63857">
        <ele>293</ele>
        <time>2014-01-09T13:52:17.000Z</time>
      </trkpt>
      <trkpt lat="48.71011" lon="-0.63841">
        <ele>293.60000610352</ele>
        <time>2014-01-09T13:52:22.000Z</time>
      </trkpt>
      <trkpt lat="48.71011" lon="-0.6382">
        <ele>293.79998779297</ele>
        <time>2014-01-09T13:52:28.000Z</time>
      </trkpt>
      <trkpt lat="48.71011" lon="-0.63794">
        <ele>294</ele>
        <time>2014-01-09T13:52:34.000Z</time>
      </trkpt>
      <trkpt lat="48.71011" lon="-0.6378">
        <ele>294.20001220703</ele>
        <time>2014-01-09T13:52:38.000Z</time>
      </trkpt>
      <trkpt lat="48.71011" lon="-0.63776">
        <ele>294.20001220703</ele>
        <time>2014-01-09T13:52:39.000Z</time>
      </trkpt>
      <trkpt lat="48.71011" lon="-0.63764">
        <ele>294.39999389648</ele>
        <time>2014-01-09T13:52:43.000Z</time>
      </trkpt>
      <trkpt lat="48.71012" lon="-0.63758">
        <ele>294.39999389648</ele>
        <time>2014-01-09T13:52:45.000Z</time>
      </trkpt>
      <trkpt lat="48.71012" lon="-0.63737">
        <ele>294</ele>
        <time>2014-01-09T13:52:50.000Z</time>
      </trkpt>
      <trkpt lat="48.71013" lon="-0.63733">
        <ele>293.79998779297</ele>
        <time>2014-01-09T13:52:51.000Z</time>
      </trkpt>
      <trkpt lat="48.71014" lon="-0.63719">
        <ele>293.39999389648</ele>
        <time>2014-01-09T13:52:54.000Z</time>
      </trkpt>
      <trkpt lat="48.71015" lon="-0.63714">
        <ele>293.20001220703</ele>
        <time>2014-01-09T13:52:57.000Z</time>
      </trkpt>
      <trkpt lat="48.71015" lon="-0.63712">
        <ele>293</ele>
        <time>2014-01-09T13:53:04.000Z</time>
      </trkpt>
      <trkpt lat="48.71015" lon="-0.63711">
        <ele>293</ele>
        <time>2014-01-09T13:53:06.000Z</time>
      </trkpt>
      <trkpt lat="48.71015" lon="-0.637">
        <ele>292.60000610352</ele>
        <time>2014-01-09T13:53:09.000Z</time>
      </trkpt>
      <trkpt lat="48.71014" lon="-0.63696">
        <ele>292.60000610352</ele>
        <time>2014-01-09T13:53:10.000Z</time>
      </trkpt>
      <trkpt lat="48.71014" lon="-0.6369">
        <ele>292.39999389648</ele>
        <time>2014-01-09T13:53:11.000Z</time>
      </trkpt>
      <trkpt lat="48.71012" lon="-0.63684">
        <ele>292.39999389648</ele>
        <time>2014-01-09T13:53:13.000Z</time>
      </trkpt>
      <trkpt lat="48.71012" lon="-0.6368">
        <ele>292.20001220703</ele>
        <time>2014-01-09T13:53:14.000Z</time>
      </trkpt>
      <trkpt lat="48.71011" lon="-0.63662">
        <ele>291.60000610352</ele>
        <time>2014-01-09T13:53:17.000Z</time>
      </trkpt>
      <trkpt lat="48.7101" lon="-0.63654">
        <ele>291.39999389648</ele>
        <time>2014-01-09T13:53:18.000Z</time>
      </trkpt>
      <trkpt lat="48.7101" lon="-0.63614">
        <ele>289.39999389648</ele>
        <time>2014-01-09T13:53:24.000Z</time>
      </trkpt>
      <trkpt lat="48.71012" lon="-0.63566">
        <ele>287</ele>
        <time>2014-01-09T13:53:32.000Z</time>
      </trkpt>
      <trkpt lat="48.71017" lon="-0.63533">
        <ele>285.20001220703</ele>
        <time>2014-01-09T13:53:38.000Z</time>
      </trkpt>
      <trkpt lat="48.71018" lon="-0.63528">
        <ele>285</ele>
        <time>2014-01-09T13:53:39.000Z</time>
      </trkpt>
      <trkpt lat="48.71025" lon="-0.635">
        <ele>283.60000610352</ele>
        <time>2014-01-09T13:53:45.000Z</time>
      </trkpt>
      <trkpt lat="48.71025" lon="-0.63496">
        <ele>283.39999389648</ele>
        <time>2014-01-09T13:53:46.000Z</time>
      </trkpt>
      <trkpt lat="48.71028" lon="-0.63489">
        <ele>283</ele>
        <time>2014-01-09T13:53:48.000Z</time>
      </trkpt>
      <trkpt lat="48.71031" lon="-0.63475">
        <ele>282.20001220703</ele>
        <time>2014-01-09T13:53:52.000Z</time>
      </trkpt>
      <trkpt lat="48.71033" lon="-0.63467">
        <ele>281.79998779297</ele>
        <time>2014-01-09T13:53:54.000Z</time>
      </trkpt>
      <trkpt lat="48.71036" lon="-0.6345">
        <ele>281</ele>
        <time>2014-01-09T13:53:58.000Z</time>
      </trkpt>
      <trkpt lat="48.71038" lon="-0.63439">
        <ele>280.60000610352</ele>
        <time>2014-01-09T13:54:01.000Z</time>
      </trkpt>
      <trkpt lat="48.71038" lon="-0.63433">
        <ele>280.20001220703</ele>
        <time>2014-01-09T13:54:03.000Z</time>
      </trkpt>
      <trkpt lat="48.71039" lon="-0.63429">
        <ele>280.20001220703</ele>
        <time>2014-01-09T13:54:04.000Z</time>
      </trkpt>
      <trkpt lat="48.7104" lon="-0.63416">
        <ele>279.60000610352</ele>
        <time>2014-01-09T13:54:07.000Z</time>
      </trkpt>
      <trkpt lat="48.7104" lon="-0.63406">
        <ele>279.60000610352</ele>
        <time>2014-01-09T13:54:09.000Z</time>
      </trkpt>
      <trkpt lat="48.71037" lon="-0.63392">
        <ele>279.60000610352</ele>
        <time>2014-01-09T13:54:13.000Z</time>
      </trkpt>
      <trkpt lat="48.71036" lon="-0.63387">
        <ele>279.79998779297</ele>
        <time>2014-01-09T13:54:14.000Z</time>
      </trkpt>
      <trkpt lat="48.71034" lon="-0.63369">
        <ele>279.79998779297</ele>
        <time>2014-01-09T13:54:20.000Z</time>
      </trkpt>
      <trkpt lat="48.71035" lon="-0.63368">
        <ele>279.79998779297</ele>
        <time>2014-01-09T13:54:21.000Z</time>
      </trkpt>
      <trkpt lat="48.71034" lon="-0.63358">
        <ele>279.79998779297</ele>
        <time>2014-01-09T13:54:26.000Z</time>
      </trkpt>
      <trkpt lat="48.71026" lon="-0.63317">
        <ele>280.79998779297</ele>
        <time>2014-01-09T13:54:35.000Z</time>
      </trkpt>
      <trkpt lat="48.71017" lon="-0.63287">
        <ele>281.79998779297</ele>
        <time>2014-01-09T13:54:42.000Z</time>
      </trkpt>
      <trkpt lat="48.71009" lon="-0.63262">
        <ele>283</ele>
        <time>2014-01-09T13:54:48.000Z</time>
      </trkpt>
      <trkpt lat="48.71007" lon="-0.63254">
        <ele>283.20001220703</ele>
        <time>2014-01-09T13:54:50.000Z</time>
      </trkpt>
      <trkpt lat="48.71005" lon="-0.6324">
        <ele>283.60000610352</ele>
        <time>2014-01-09T13:54:54.000Z</time>
      </trkpt>
      <trkpt lat="48.71001" lon="-0.63221">
        <ele>284</ele>
        <time>2014-01-09T13:54:59.000Z</time>
      </trkpt>
      <trkpt lat="48.70998" lon="-0.63205">
        <ele>284.20001220703</ele>
        <time>2014-01-09T13:55:03.000Z</time>
      </trkpt>
      <trkpt lat="48.70996" lon="-0.63194">
        <ele>284.60000610352</ele>
        <time>2014-01-09T13:55:06.000Z</time>
      </trkpt>
      <trkpt lat="48.70994" lon="-0.63186">
        <ele>284.60000610352</ele>
        <time>2014-01-09T13:55:08.000Z</time>
      </trkpt>
      <trkpt lat="48.70992" lon="-0.63169">
        <ele>285</ele>
        <time>2014-01-09T13:55:12.000Z</time>
      </trkpt>
      <trkpt lat="48.7099" lon="-0.63157">
        <ele>285.39999389648</ele>
        <time>2014-01-09T13:55:15.000Z</time>
      </trkpt>
      <trkpt lat="48.7099" lon="-0.63153">
        <ele>285.60000610352</ele>
        <time>2014-01-09T13:55:16.000Z</time>
      </trkpt>
      <trkpt lat="48.70986" lon="-0.63134">
        <ele>286.39999389648</ele>
        <time>2014-01-09T13:55:21.000Z</time>
      </trkpt>
      <trkpt lat="48.70984" lon="-0.63123">
        <ele>286.79998779297</ele>
        <time>2014-01-09T13:55:24.000Z</time>
      </trkpt>
      <trkpt lat="48.70983" lon="-0.63117">
        <ele>287.20001220703</ele>
        <time>2014-01-09T13:55:26.000Z</time>
      </trkpt>
      <trkpt lat="48.7098" lon="-0.63104">
        <ele>287.60000610352</ele>
        <time>2014-01-09T13:55:30.000Z</time>
      </trkpt>
      <trkpt lat="48.70979" lon="-0.631">
        <ele>287.60000610352</ele>
        <time>2014-01-09T13:55:31.000Z</time>
      </trkpt>
      <trkpt lat="48.70977" lon="-0.63095">
        <ele>288</ele>
        <time>2014-01-09T13:55:36.000Z</time>
      </trkpt>
      <trkpt lat="48.70977" lon="-0.63095">
        <ele>288</ele>
        <time>2014-01-09T13:55:37.000Z</time>
      </trkpt>
      <trkpt lat="48.70977" lon="-0.63095">
        <ele>288</ele>
        <time>2014-01-09T13:55:49.000Z</time>
      </trkpt>
      <trkpt lat="48.70977" lon="-0.63095">
        <ele>288</ele>
        <time>2014-01-09T13:56:05.000Z</time>
      </trkpt>
      <trkpt lat="48.70976" lon="-0.63095">
        <ele>288</ele>
        <time>2014-01-09T13:56:15.000Z</time>
      </trkpt>
      <trkpt lat="48.70976" lon="-0.63094">
        <ele>288</ele>
        <time>2014-01-09T13:56:27.000Z</time>
      </trkpt>
      <trkpt lat="48.70981" lon="-0.63081">
        <ele>288</ele>
        <time>2014-01-09T13:56:31.000Z</time>
      </trkpt>
      <trkpt lat="48.70996" lon="-0.63064">
        <ele>287.79998779297</ele>
        <time>2014-01-09T13:56:36.000Z</time>
      </trkpt>
      <trkpt lat="48.71003" lon="-0.63058">
        <ele>288</ele>
        <time>2014-01-09T13:56:38.000Z</time>
      </trkpt>
      <trkpt lat="48.71015" lon="-0.63047">
        <ele>288.39999389648</ele>
        <time>2014-01-09T13:56:42.000Z</time>
      </trkpt>
      <trkpt lat="48.71034" lon="-0.63031">
        <ele>289.20001220703</ele>
        <time>2014-01-09T13:56:49.000Z</time>
      </trkpt>
      <trkpt lat="48.71049" lon="-0.63018">
        <ele>289.79998779297</ele>
        <time>2014-01-09T13:56:55.000Z</time>
      </trkpt>
      <trkpt lat="48.71054" lon="-0.63014">
        <ele>290</ele>
        <time>2014-01-09T13:56:57.000Z</time>
      </trkpt>
      <trkpt lat="48.71064" lon="-0.63006">
        <ele>290.39999389648</ele>
        <time>2014-01-09T13:57:01.000Z</time>
      </trkpt>
      <trkpt lat="48.71075" lon="-0.62994">
        <ele>291.20001220703</ele>
        <time>2014-01-09T13:57:06.000Z</time>
      </trkpt>
      <trkpt lat="48.7108" lon="-0.62991">
        <ele>291.39999389648</ele>
        <time>2014-01-09T13:57:08.000Z</time>
      </trkpt>
      <trkpt lat="48.71092" lon="-0.62981">
        <ele>292.20001220703</ele>
        <time>2014-01-09T13:57:13.000Z</time>
      </trkpt>
      <trkpt lat="48.71094" lon="-0.62978">
        <ele>292.39999389648</ele>
        <time>2014-01-09T13:57:14.000Z</time>
      </trkpt>
      <trkpt lat="48.71102" lon="-0.62972">
        <ele>292.79998779297</ele>
        <time>2014-01-09T13:57:17.000Z</time>
      </trkpt>
      <trkpt lat="48.71111" lon="-0.62963">
        <ele>293.39999389648</ele>
        <time>2014-01-09T13:57:21.000Z</time>
      </trkpt>
      <trkpt lat="48.71115" lon="-0.62958">
        <ele>293.60000610352</ele>
        <time>2014-01-09T13:57:23.000Z</time>
      </trkpt>
      <trkpt lat="48.71125" lon="-0.62946">
        <ele>294.20001220703</ele>
        <time>2014-01-09T13:57:28.000Z</time>
      </trkpt>
      <trkpt lat="48.71133" lon="-0.62931">
        <ele>294.60000610352</ele>
        <time>2014-01-09T13:57:34.000Z</time>
      </trkpt>
      <trkpt lat="48.71132" lon="-0.62929">
        <ele>294.60000610352</ele>
        <time>2014-01-09T13:57:35.000Z</time>
      </trkpt>
      <trkpt lat="48.71132" lon="-0.62923">
        <ele>294.79998779297</ele>
        <time>2014-01-09T13:57:38.000Z</time>
      </trkpt>
      <trkpt lat="48.71133" lon="-0.6292">
        <ele>295</ele>
        <time>2014-01-09T13:57:39.000Z</time>
      </trkpt>
      <trkpt lat="48.7114" lon="-0.62912">
        <ele>295</ele>
        <time>2014-01-09T13:57:44.000Z</time>
      </trkpt>
      <trkpt lat="48.71143" lon="-0.6291">
        <ele>295</ele>
        <time>2014-01-09T13:57:46.000Z</time>
      </trkpt>
      <trkpt lat="48.71151" lon="-0.629">
        <ele>294.79998779297</ele>
        <time>2014-01-09T13:57:51.000Z</time>
      </trkpt>
      <trkpt lat="48.71164" lon="-0.62883">
        <ele>294.20001220703</ele>
        <time>2014-01-09T13:57:57.000Z</time>
      </trkpt>
      <trkpt lat="48.71166" lon="-0.6288">
        <ele>294.20001220703</ele>
        <time>2014-01-09T13:57:58.000Z</time>
      </trkpt>
      <trkpt lat="48.71174" lon="-0.6287">
        <ele>293.39999389648</ele>
        <time>2014-01-09T13:58:01.000Z</time>
      </trkpt>
      <trkpt lat="48.71182" lon="-0.62859">
        <ele>292.60000610352</ele>
        <time>2014-01-09T13:58:04.000Z</time>
      </trkpt>
      <trkpt lat="48.71184" lon="-0.62855">
        <ele>292.39999389648</ele>
        <time>2014-01-09T13:58:05.000Z</time>
      </trkpt>
      <trkpt lat="48.71192" lon="-0.62843">
        <ele>291.39999389648</ele>
        <time>2014-01-09T13:58:08.000Z</time>
      </trkpt>
      <trkpt lat="48.71199" lon="-0.62829">
        <ele>290.39999389648</ele>
        <time>2014-01-09T13:58:11.000Z</time>
      </trkpt>
      <trkpt lat="48.71204" lon="-0.62814">
        <ele>289</ele>
        <time>2014-01-09T13:58:14.000Z</time>
      </trkpt>
      <trkpt lat="48.71205" lon="-0.62807">
        <ele>288.60000610352</ele>
        <time>2014-01-09T13:58:15.000Z</time>
      </trkpt>
      <trkpt lat="48.71204" lon="-0.62801">
        <ele>288.20001220703</ele>
        <time>2014-01-09T13:58:16.000Z</time>
      </trkpt>
      <trkpt lat="48.71204" lon="-0.62794">
        <ele>287.79998779297</ele>
        <time>2014-01-09T13:58:17.000Z</time>
      </trkpt>
      <trkpt lat="48.71202" lon="-0.6278">
        <ele>287</ele>
        <time>2014-01-09T13:58:19.000Z</time>
      </trkpt>
      <trkpt lat="48.71201" lon="-0.62773">
        <ele>286.60000610352</ele>
        <time>2014-01-09T13:58:20.000Z</time>
      </trkpt>
      <trkpt lat="48.71199" lon="-0.62759">
        <ele>285.79998779297</ele>
        <time>2014-01-09T13:58:22.000Z</time>
      </trkpt>
      <trkpt lat="48.71196" lon="-0.62752">
        <ele>285.60000610352</ele>
        <time>2014-01-09T13:58:23.000Z</time>
      </trkpt>
      <trkpt lat="48.71193" lon="-0.62737">
        <ele>284.79998779297</ele>
        <time>2014-01-09T13:58:25.000Z</time>
      </trkpt>
      <trkpt lat="48.71191" lon="-0.62729">
        <ele>284.20001220703</ele>
        <time>2014-01-09T13:58:26.000Z</time>
      </trkpt>
      <trkpt lat="48.71189" lon="-0.6272">
        <ele>283.79998779297</ele>
        <time>2014-01-09T13:58:27.000Z</time>
      </trkpt>
      <trkpt lat="48.71183" lon="-0.62696">
        <ele>282.39999389648</ele>
        <time>2014-01-09T13:58:30.000Z</time>
      </trkpt>
      <trkpt lat="48.7118" lon="-0.6268">
        <ele>281.60000610352</ele>
        <time>2014-01-09T13:58:32.000Z</time>
      </trkpt>
      <trkpt lat="48.71174" lon="-0.62651">
        <ele>279.79998779297</ele>
        <time>2014-01-09T13:58:37.000Z</time>
      </trkpt>
      <trkpt lat="48.71169" lon="-0.62624">
        <ele>277.79998779297</ele>
        <time>2014-01-09T13:58:41.000Z</time>
      </trkpt>
      <trkpt lat="48.71168" lon="-0.62618">
        <ele>277.20001220703</ele>
        <time>2014-01-09T13:58:42.000Z</time>
      </trkpt>
      <trkpt lat="48.71168" lon="-0.62602">
        <ele>275.60000610352</ele>
        <time>2014-01-09T13:58:44.000Z</time>
      </trkpt>
      <trkpt lat="48.71168" lon="-0.62593">
        <ele>274.79998779297</ele>
        <time>2014-01-09T13:58:45.000Z</time>
      </trkpt>
      <trkpt lat="48.71169" lon="-0.62576">
        <ele>273.39999389648</ele>
        <time>2014-01-09T13:58:47.000Z</time>
      </trkpt>
      <trkpt lat="48.7117" lon="-0.62567">
        <ele>272.79998779297</ele>
        <time>2014-01-09T13:58:48.000Z</time>
      </trkpt>
      <trkpt lat="48.71172" lon="-0.62554">
        <ele>272</ele>
        <time>2014-01-09T13:58:50.000Z</time>
      </trkpt>
      <trkpt lat="48.71173" lon="-0.62548">
        <ele>271.60000610352</ele>
        <time>2014-01-09T13:58:51.000Z</time>
      </trkpt>
      <trkpt lat="48.71172" lon="-0.62543">
        <ele>271.39999389648</ele>
        <time>2014-01-09T13:58:52.000Z</time>
      </trkpt>
      <trkpt lat="48.71169" lon="-0.62534">
        <ele>271</ele>
        <time>2014-01-09T13:58:54.000Z</time>
      </trkpt>
      <trkpt lat="48.71165" lon="-0.62532">
        <ele>271</ele>
        <time>2014-01-09T13:58:55.000Z</time>
      </trkpt>
      <trkpt lat="48.71161" lon="-0.62529">
        <ele>271.20001220703</ele>
        <time>2014-01-09T13:58:56.000Z</time>
      </trkpt>
      <trkpt lat="48.71156" lon="-0.62526">
        <ele>271.60000610352</ele>
        <time>2014-01-09T13:58:57.000Z</time>
      </trkpt>
      <trkpt lat="48.71152" lon="-0.62523">
        <ele>271.79998779297</ele>
        <time>2014-01-09T13:58:58.000Z</time>
      </trkpt>
      <trkpt lat="48.71138" lon="-0.62509">
        <ele>272</ele>
        <time>2014-01-09T13:59:01.000Z</time>
      </trkpt>
      <trkpt lat="48.71129" lon="-0.62495">
        <ele>271.79998779297</ele>
        <time>2014-01-09T13:59:03.000Z</time>
      </trkpt>
      <trkpt lat="48.71124" lon="-0.62488">
        <ele>271.60000610352</ele>
        <time>2014-01-09T13:59:04.000Z</time>
      </trkpt>
      <trkpt lat="48.71118" lon="-0.62482">
        <ele>271.60000610352</ele>
        <time>2014-01-09T13:59:05.000Z</time>
      </trkpt>
      <trkpt lat="48.71098" lon="-0.62461">
        <ele>271.20001220703</ele>
        <time>2014-01-09T13:59:09.000Z</time>
      </trkpt>
      <trkpt lat="48.71078" lon="-0.6244">
        <ele>270.79998779297</ele>
        <time>2014-01-09T13:59:14.000Z</time>
      </trkpt>
      <trkpt lat="48.71057" lon="-0.62417">
        <ele>270.79998779297</ele>
        <time>2014-01-09T13:59:21.000Z</time>
      </trkpt>
      <trkpt lat="48.7104" lon="-0.62397">
        <ele>271</ele>
        <time>2014-01-09T13:59:28.000Z</time>
      </trkpt>
      <trkpt lat="48.71032" lon="-0.6239">
        <ele>271</ele>
        <time>2014-01-09T13:59:31.000Z</time>
      </trkpt>
      <trkpt lat="48.71015" lon="-0.62374">
        <ele>271.39999389648</ele>
        <time>2014-01-09T13:59:38.000Z</time>
      </trkpt>
      <trkpt lat="48.71001" lon="-0.62364">
        <ele>271.79998779297</ele>
        <time>2014-01-09T13:59:43.000Z</time>
      </trkpt>
      <trkpt lat="48.70993" lon="-0.62359">
        <ele>271.79998779297</ele>
        <time>2014-01-09T13:59:46.000Z</time>
      </trkpt>
      <trkpt lat="48.70969" lon="-0.62343">
        <ele>272</ele>
        <time>2014-01-09T13:59:55.000Z</time>
      </trkpt>
      <trkpt lat="48.70945" lon="-0.62324">
        <ele>272.39999389648</ele>
        <time>2014-01-09T14:00:03.000Z</time>
      </trkpt>
      <trkpt lat="48.70925" lon="-0.62298">
        <ele>272.60000610352</ele>
        <time>2014-01-09T14:00:11.000Z</time>
      </trkpt>
      <trkpt lat="48.70907" lon="-0.6226">
        <ele>272</ele>
        <time>2014-01-09T14:00:20.000Z</time>
      </trkpt>
      <trkpt lat="48.70888" lon="-0.62222">
        <ele>270.79998779297</ele>
        <time>2014-01-09T14:00:29.000Z</time>
      </trkpt>
      <trkpt lat="48.70875" lon="-0.62194">
        <ele>270</ele>
        <time>2014-01-09T14:00:36.000Z</time>
      </trkpt>
      <trkpt lat="48.70859" lon="-0.6216">
        <ele>269.39999389648</ele>
        <time>2014-01-09T14:00:43.000Z</time>
      </trkpt>
      <trkpt lat="48.70843" lon="-0.62124">
        <ele>268.39999389648</ele>
        <time>2014-01-09T14:00:49.000Z</time>
      </trkpt>
      <trkpt lat="48.7084" lon="-0.62116">
        <ele>268.39999389648</ele>
        <time>2014-01-09T14:00:50.000Z</time>
      </trkpt>
      <trkpt lat="48.70832" lon="-0.62095">
        <ele>267.60000610352</ele>
        <time>2014-01-09T14:00:53.000Z</time>
      </trkpt>
      <trkpt lat="48.70824" lon="-0.62073">
        <ele>266.39999389648</ele>
        <time>2014-01-09T14:00:56.000Z</time>
      </trkpt>
      <trkpt lat="48.7082" lon="-0.62059">
        <ele>265.60000610352</ele>
        <time>2014-01-09T14:00:58.000Z</time>
      </trkpt>
      <trkpt lat="48.70813" lon="-0.62036">
        <ele>264.60000610352</ele>
        <time>2014-01-09T14:01:01.000Z</time>
      </trkpt>
      <trkpt lat="48.70811" lon="-0.62028">
        <ele>264.20001220703</ele>
        <time>2014-01-09T14:01:02.000Z</time>
      </trkpt>
      <trkpt lat="48.70808" lon="-0.62012">
        <ele>263.60000610352</ele>
        <time>2014-01-09T14:01:04.000Z</time>
      </trkpt>
      <trkpt lat="48.70804" lon="-0.61997">
        <ele>262.79998779297</ele>
        <time>2014-01-09T14:01:06.000Z</time>
      </trkpt>
      <trkpt lat="48.70803" lon="-0.6199">
        <ele>262.39999389648</ele>
        <time>2014-01-09T14:01:07.000Z</time>
      </trkpt>
      <trkpt lat="48.70801" lon="-0.61983">
        <ele>262.20001220703</ele>
        <time>2014-01-09T14:01:08.000Z</time>
      </trkpt>
      <trkpt lat="48.70799" lon="-0.61963">
        <ele>261</ele>
        <time>2014-01-09T14:01:11.000Z</time>
      </trkpt>
      <trkpt lat="48.70799" lon="-0.61948">
        <ele>260.20001220703</ele>
        <time>2014-01-09T14:01:13.000Z</time>
      </trkpt>
      <trkpt lat="48.70799" lon="-0.6194">
        <ele>259.79998779297</ele>
        <time>2014-01-09T14:01:14.000Z</time>
      </trkpt>
      <trkpt lat="48.70799" lon="-0.61932">
        <ele>259.39999389648</ele>
        <time>2014-01-09T14:01:15.000Z</time>
      </trkpt>
      <trkpt lat="48.70798" lon="-0.61916">
        <ele>258.39999389648</ele>
        <time>2014-01-09T14:01:17.000Z</time>
      </trkpt>
      <trkpt lat="48.70797" lon="-0.61909">
        <ele>257.79998779297</ele>
        <time>2014-01-09T14:01:18.000Z</time>
      </trkpt>
      <trkpt lat="48.70793" lon="-0.61897">
        <ele>256.79998779297</ele>
        <time>2014-01-09T14:01:20.000Z</time>
      </trkpt>
      <trkpt lat="48.70791" lon="-0.61893">
        <ele>256.60000610352</ele>
        <time>2014-01-09T14:01:21.000Z</time>
      </trkpt>
      <trkpt lat="48.70785" lon="-0.61888">
        <ele>256</ele>
        <time>2014-01-09T14:01:23.000Z</time>
      </trkpt>
      <trkpt lat="48.70781" lon="-0.61886">
        <ele>256</ele>
        <time>2014-01-09T14:01:24.000Z</time>
      </trkpt>
      <trkpt lat="48.70774" lon="-0.61884">
        <ele>255.60000610352</ele>
        <time>2014-01-09T14:01:26.000Z</time>
      </trkpt>
      <trkpt lat="48.70761" lon="-0.61883">
        <ele>255.60000610352</ele>
        <time>2014-01-09T14:01:30.000Z</time>
      </trkpt>
      <trkpt lat="48.70758" lon="-0.61885">
        <ele>255.80000305176</ele>
        <time>2014-01-09T14:01:31.000Z</time>
      </trkpt>
      <trkpt lat="48.70747" lon="-0.61898">
        <ele>256.60000610352</ele>
        <time>2014-01-09T14:01:36.000Z</time>
      </trkpt>
      <trkpt lat="48.70736" lon="-0.61901">
        <ele>256.39999389648</ele>
        <time>2014-01-09T14:01:40.000Z</time>
      </trkpt>
      <trkpt lat="48.70718" lon="-0.61908">
        <ele>256.39999389648</ele>
        <time>2014-01-09T14:01:47.000Z</time>
      </trkpt>
      <trkpt lat="48.70716" lon="-0.61909">
        <ele>256.39999389648</ele>
        <time>2014-01-09T14:01:48.000Z</time>
      </trkpt>
      <trkpt lat="48.70702" lon="-0.61919">
        <ele>256.39999389648</ele>
        <time>2014-01-09T14:01:54.000Z</time>
      </trkpt>
      <trkpt lat="48.70693" lon="-0.61925">
        <ele>256.39999389648</ele>
        <time>2014-01-09T14:01:57.000Z</time>
      </trkpt>
      <trkpt lat="48.70687" lon="-0.61936">
        <ele>256.60000610352</ele>
        <time>2014-01-09T14:02:00.000Z</time>
      </trkpt>
      <trkpt lat="48.70683" lon="-0.61948">
        <ele>256.79998779297</ele>
        <time>2014-01-09T14:02:03.000Z</time>
      </trkpt>
      <trkpt lat="48.70682" lon="-0.61957">
        <ele>257.20001220703</ele>
        <time>2014-01-09T14:02:05.000Z</time>
      </trkpt>
      <trkpt lat="48.70673" lon="-0.61977">
        <ele>257.60000610352</ele>
        <time>2014-01-09T14:02:11.000Z</time>
      </trkpt>
      <trkpt lat="48.70656" lon="-0.62001">
        <ele>258.20001220703</ele>
        <time>2014-01-09T14:02:20.000Z</time>
      </trkpt>
      <trkpt lat="48.70643" lon="-0.62015">
        <ele>258.39999389648</ele>
        <time>2014-01-09T14:02:26.000Z</time>
      </trkpt>
      <trkpt lat="48.70628" lon="-0.62027">
        <ele>258.79998779297</ele>
        <time>2014-01-09T14:02:33.000Z</time>
      </trkpt>
      <trkpt lat="48.70619" lon="-0.62031">
        <ele>259</ele>
        <time>2014-01-09T14:02:37.000Z</time>
      </trkpt>
      <trkpt lat="48.70617" lon="-0.62031">
        <ele>259</ele>
        <time>2014-01-09T14:02:38.000Z</time>
      </trkpt>
      <trkpt lat="48.70609" lon="-0.62027">
        <ele>259</ele>
        <time>2014-01-09T14:02:43.000Z</time>
      </trkpt>
      <trkpt lat="48.70607" lon="-0.62025">
        <ele>259</ele>
        <time>2014-01-09T14:02:44.000Z</time>
      </trkpt>
      <trkpt lat="48.70602" lon="-0.62021">
        <ele>259</ele>
        <time>2014-01-09T14:02:47.000Z</time>
      </trkpt>
      <trkpt lat="48.70598" lon="-0.62016">
        <ele>259</ele>
        <time>2014-01-09T14:02:49.000Z</time>
      </trkpt>
      <trkpt lat="48.70589" lon="-0.62001">
        <ele>259</ele>
        <time>2014-01-09T14:02:55.000Z</time>
      </trkpt>
      <trkpt lat="48.70587" lon="-0.61999">
        <ele>259</ele>
        <time>2014-01-09T14:02:56.000Z</time>
      </trkpt>
      <trkpt lat="48.70582" lon="-0.61994">
        <ele>258.79998779297</ele>
        <time>2014-01-09T14:02:59.000Z</time>
      </trkpt>
      <trkpt lat="48.70573" lon="-0.61985">
        <ele>259.20001220703</ele>
        <time>2014-01-09T14:03:04.000Z</time>
      </trkpt>
      <trkpt lat="48.70567" lon="-0.61976">
        <ele>259.39999389648</ele>
        <time>2014-01-09T14:03:09.000Z</time>
      </trkpt>
      <trkpt lat="48.70566" lon="-0.61972">
        <ele>259.20001220703</ele>
        <time>2014-01-09T14:03:11.000Z</time>
      </trkpt>
      <trkpt lat="48.7056" lon="-0.61957">
        <ele>259</ele>
        <time>2014-01-09T14:03:17.000Z</time>
      </trkpt>
      <trkpt lat="48.70557" lon="-0.61948">
        <ele>258.79998779297</ele>
        <time>2014-01-09T14:03:21.000Z</time>
      </trkpt>
      <trkpt lat="48.70557" lon="-0.61943">
        <ele>258.60000610352</ele>
        <time>2014-01-09T14:03:23.000Z</time>
      </trkpt>
      <trkpt lat="48.70554" lon="-0.61925">
        <ele>257.79998779297</ele>
        <time>2014-01-09T14:03:29.000Z</time>
      </trkpt>
      <trkpt lat="48.70553" lon="-0.61904">
        <ele>257.39999389648</ele>
        <time>2014-01-09T14:03:35.000Z</time>
      </trkpt>
      <trkpt lat="48.70552" lon="-0.61901">
        <ele>257.39999389648</ele>
        <time>2014-01-09T14:03:36.000Z</time>
      </trkpt>
      <trkpt lat="48.7055" lon="-0.61878">
        <ele>257.39999389648</ele>
        <time>2014-01-09T14:03:43.000Z</time>
      </trkpt>
      <trkpt lat="48.7055" lon="-0.61856">
        <ele>257.20001220703</ele>
        <time>2014-01-09T14:03:49.000Z</time>
      </trkpt>
      <trkpt lat="48.70549" lon="-0.6183">
        <ele>257</ele>
        <time>2014-01-09T14:03:56.000Z</time>
      </trkpt>
      <trkpt lat="48.70547" lon="-0.61816">
        <ele>257.20001220703</ele>
        <time>2014-01-09T14:04:00.000Z</time>
      </trkpt>
      <trkpt lat="48.70547" lon="-0.61813">
        <ele>257.39999389648</ele>
        <time>2014-01-09T14:04:01.000Z</time>
      </trkpt>
      <trkpt lat="48.70546" lon="-0.61797">
        <ele>257.39999389648</ele>
        <time>2014-01-09T14:04:05.000Z</time>
      </trkpt>
      <trkpt lat="48.70546" lon="-0.61793">
        <ele>257.60000610352</ele>
        <time>2014-01-09T14:04:06.000Z</time>
      </trkpt>
      <trkpt lat="48.70547" lon="-0.61774">
        <ele>257.60000610352</ele>
        <time>2014-01-09T14:04:12.000Z</time>
      </trkpt>
      <trkpt lat="48.7055" lon="-0.61759">
        <ele>257.60000610352</ele>
        <time>2014-01-09T14:04:17.000Z</time>
      </trkpt>
      <trkpt lat="48.70557" lon="-0.61741">
        <ele>257.60000610352</ele>
        <time>2014-01-09T14:04:23.000Z</time>
      </trkpt>
      <trkpt lat="48.70562" lon="-0.61717">
        <ele>258.20001220703</ele>
        <time>2014-01-09T14:04:29.000Z</time>
      </trkpt>
      <trkpt lat="48.70569" lon="-0.61694">
        <ele>258.60000610352</ele>
        <time>2014-01-09T14:04:35.000Z</time>
      </trkpt>
      <trkpt lat="48.70575" lon="-0.61676">
        <ele>259</ele>
        <time>2014-01-09T14:04:41.000Z</time>
      </trkpt>
      <trkpt lat="48.70582" lon="-0.61655">
        <ele>259.20001220703</ele>
        <time>2014-01-09T14:04:48.000Z</time>
      </trkpt>
      <trkpt lat="48.7059" lon="-0.61631">
        <ele>259.20001220703</ele>
        <time>2014-01-09T14:04:55.000Z</time>
      </trkpt>
      <trkpt lat="48.70597" lon="-0.61609">
        <ele>259.39999389648</ele>
        <time>2014-01-09T14:05:01.000Z</time>
      </trkpt>
      <trkpt lat="48.70603" lon="-0.61591">
        <ele>259.60000610352</ele>
        <time>2014-01-09T14:05:07.000Z</time>
      </trkpt>
      <trkpt lat="48.70608" lon="-0.61579">
        <ele>259.79998779297</ele>
        <time>2014-01-09T14:05:11.000Z</time>
      </trkpt>
      <trkpt lat="48.70609" lon="-0.61573">
        <ele>259.79998779297</ele>
        <time>2014-01-09T14:05:13.000Z</time>
      </trkpt>
      <trkpt lat="48.70614" lon="-0.61561">
        <ele>259.60000610352</ele>
        <time>2014-01-09T14:05:18.000Z</time>
      </trkpt>
      <trkpt lat="48.70615" lon="-0.61558">
        <ele>259.60000610352</ele>
        <time>2014-01-09T14:05:19.000Z</time>
      </trkpt>
      <trkpt lat="48.70616" lon="-0.61556">
        <ele>259.60000610352</ele>
        <time>2014-01-09T14:05:25.000Z</time>
      </trkpt>
      <trkpt lat="48.70616" lon="-0.61556">
        <ele>259.60000610352</ele>
        <time>2014-01-09T14:05:40.000Z</time>
      </trkpt>
      <trkpt lat="48.70616" lon="-0.61556">
        <ele>259.60000610352</ele>
        <time>2014-01-09T14:05:55.000Z</time>
      </trkpt>
      <trkpt lat="48.70616" lon="-0.61555">
        <ele>259.60000610352</ele>
        <time>2014-01-09T14:06:08.000Z</time>
      </trkpt>
      <trkpt lat="48.70616" lon="-0.61555">
        <ele>259.60000610352</ele>
        <time>2014-01-09T14:06:15.000Z</time>
      </trkpt>
      <trkpt lat="48.70616" lon="-0.61555">
        <ele>259.60000610352</ele>
        <time>2014-01-09T14:06:18.000Z</time>
      </trkpt>
      <trkpt lat="48.70616" lon="-0.61555">
        <ele>259.60000610352</ele>
        <time>2014-01-09T14:06:28.000Z</time>
      </trkpt>
      <trkpt lat="48.70616" lon="-0.61555">
        <ele>259.60000610352</ele>
        <time>2014-01-09T14:06:46.000Z</time>
      </trkpt>
      <trkpt lat="48.70616" lon="-0.61555">
        <ele>259.60000610352</ele>
        <time>2014-01-09T14:06:55.000Z</time>
      </trkpt>
      <trkpt lat="48.70616" lon="-0.61555">
        <ele>259.60000610352</ele>
        <time>2014-01-09T14:07:09.000Z</time>
      </trkpt>
      <trkpt lat="48.70616" lon="-0.61555">
        <ele>259.60000610352</ele>
        <time>2014-01-09T14:07:25.000Z</time>
      </trkpt>
      <trkpt lat="48.70616" lon="-0.61555">
        <ele>259.60000610352</ele>
        <time>2014-01-09T14:07:45.000Z</time>
      </trkpt>
      <trkpt lat="48.70616" lon="-0.61555">
        <ele>259.60000610352</ele>
        <time>2014-01-09T14:07:58.000Z</time>
      </trkpt>
      <trkpt lat="48.70616" lon="-0.61555">
        <ele>259.60000610352</ele>
        <time>2014-01-09T14:08:11.000Z</time>
      </trkpt>
      <trkpt lat="48.70616" lon="-0.61555">
        <ele>259.60000610352</ele>
        <time>2014-01-09T14:08:21.000Z</time>
      </trkpt>
      <trkpt lat="48.70616" lon="-0.61555">
        <ele>259.60000610352</ele>
        <time>2014-01-09T14:08:36.000Z</time>
      </trkpt>
      <trkpt lat="48.70616" lon="-0.61553">
        <ele>259.60000610352</ele>
        <time>2014-01-09T14:08:51.000Z</time>
      </trkpt>
      <trkpt lat="48.70616" lon="-0.61553">
        <ele>259.60000610352</ele>
        <time>2014-01-09T14:09:09.000Z</time>
      </trkpt>
      <trkpt lat="48.70616" lon="-0.61552">
        <ele>259.60000610352</ele>
        <time>2014-01-09T14:09:21.000Z</time>
      </trkpt>
      <trkpt lat="48.70616" lon="-0.61552">
        <ele>259.60000610352</ele>
        <time>2014-01-09T14:09:37.000Z</time>
      </trkpt>
      <trkpt lat="48.70614" lon="-0.61539">
        <ele>259.79998779297</ele>
        <time>2014-01-09T14:09:42.000Z</time>
      </trkpt>
      <trkpt lat="48.70611" lon="-0.6152">
        <ele>260</ele>
        <time>2014-01-09T14:09:48.000Z</time>
      </trkpt>
      <trkpt lat="48.7061" lon="-0.61514">
        <ele>260</ele>
        <time>2014-01-09T14:09:50.000Z</time>
      </trkpt>
      <trkpt lat="48.70608" lon="-0.61506">
        <ele>260</ele>
        <time>2014-01-09T14:09:53.000Z</time>
      </trkpt>
      <trkpt lat="48.70607" lon="-0.615">
        <ele>260.20001220703</ele>
        <time>2014-01-09T14:09:55.000Z</time>
      </trkpt>
      <trkpt lat="48.70603" lon="-0.61482">
        <ele>260.79998779297</ele>
        <time>2014-01-09T14:10:01.000Z</time>
      </trkpt>
      <trkpt lat="48.70598" lon="-0.61467">
        <ele>261.60000610352</ele>
        <time>2014-01-09T14:10:06.000Z</time>
      </trkpt>
      <trkpt lat="48.70596" lon="-0.6146">
        <ele>261.79998779297</ele>
        <time>2014-01-09T14:10:08.000Z</time>
      </trkpt>
      <trkpt lat="48.70592" lon="-0.61448">
        <ele>262.39999389648</ele>
        <time>2014-01-09T14:10:12.000Z</time>
      </trkpt>
      <trkpt lat="48.70585" lon="-0.6143">
        <ele>263.39999389648</ele>
        <time>2014-01-09T14:10:19.000Z</time>
      </trkpt>
      <trkpt lat="48.70584" lon="-0.61427">
        <ele>263.60000610352</ele>
        <time>2014-01-09T14:10:20.000Z</time>
      </trkpt>
      <trkpt lat="48.70581" lon="-0.61414">
        <ele>264</ele>
        <time>2014-01-09T14:10:24.000Z</time>
      </trkpt>
      <trkpt lat="48.7058" lon="-0.61407">
        <ele>263.79998779297</ele>
        <time>2014-01-09T14:10:26.000Z</time>
      </trkpt>
      <trkpt lat="48.70574" lon="-0.6139">
        <ele>263.39999389648</ele>
        <time>2014-01-09T14:10:31.000Z</time>
      </trkpt>
      <trkpt lat="48.70573" lon="-0.61386">
        <ele>263.39999389648</ele>
        <time>2014-01-09T14:10:32.000Z</time>
      </trkpt>
      <trkpt lat="48.70571" lon="-0.61374">
        <ele>263.20001220703</ele>
        <time>2014-01-09T14:10:35.000Z</time>
      </trkpt>
      <trkpt lat="48.70569" lon="-0.6137">
        <ele>263.20001220703</ele>
        <time>2014-01-09T14:10:36.000Z</time>
      </trkpt>
      <trkpt lat="48.70565" lon="-0.61356">
        <ele>263</ele>
        <time>2014-01-09T14:10:39.000Z</time>
      </trkpt>
      <trkpt lat="48.70563" lon="-0.6135">
        <ele>263</ele>
        <time>2014-01-09T14:10:40.000Z</time>
      </trkpt>
      <trkpt lat="48.70555" lon="-0.61326">
        <ele>262.79998779297</ele>
        <time>2014-01-09T14:10:45.000Z</time>
      </trkpt>
      <trkpt lat="48.70553" lon="-0.61321">
        <ele>262.60000610352</ele>
        <time>2014-01-09T14:10:46.000Z</time>
      </trkpt>
      <trkpt lat="48.70545" lon="-0.61294">
        <ele>262</ele>
        <time>2014-01-09T14:10:52.000Z</time>
      </trkpt>
      <trkpt lat="48.7054" lon="-0.61275">
        <ele>261.39999389648</ele>
        <time>2014-01-09T14:10:57.000Z</time>
      </trkpt>
      <trkpt lat="48.70533" lon="-0.61255">
        <ele>261.20001220703</ele>
        <time>2014-01-09T14:11:02.000Z</time>
      </trkpt>
      <trkpt lat="48.70526" lon="-0.61233">
        <ele>261</ele>
        <time>2014-01-09T14:11:08.000Z</time>
      </trkpt>
      <trkpt lat="48.70524" lon="-0.61224">
        <ele>260.79998779297</ele>
        <time>2014-01-09T14:11:10.000Z</time>
      </trkpt>
      <trkpt lat="48.70518" lon="-0.61206">
        <ele>260.60000610352</ele>
        <time>2014-01-09T14:11:14.000Z</time>
      </trkpt>
      <trkpt lat="48.7051" lon="-0.61176">
        <ele>260</ele>
        <time>2014-01-09T14:11:20.000Z</time>
      </trkpt>
      <trkpt lat="48.70503" lon="-0.61152">
        <ele>259.39999389648</ele>
        <time>2014-01-09T14:11:25.000Z</time>
      </trkpt>
      <trkpt lat="48.70495" lon="-0.6113">
        <ele>258.79998779297</ele>
        <time>2014-01-09T14:11:30.000Z</time>
      </trkpt>
      <trkpt lat="48.70486" lon="-0.61104">
        <ele>258.39999389648</ele>
        <time>2014-01-09T14:11:37.000Z</time>
      </trkpt>
      <trkpt lat="48.70477" lon="-0.61079">
        <ele>257.79998779297</ele>
        <time>2014-01-09T14:11:43.000Z</time>
      </trkpt>
      <trkpt lat="48.70469" lon="-0.61051">
        <ele>257.60000610352</ele>
        <time>2014-01-09T14:11:49.000Z</time>
      </trkpt>
      <trkpt lat="48.70459" lon="-0.61021">
        <ele>257.39999389648</ele>
        <time>2014-01-09T14:11:56.000Z</time>
      </trkpt>
      <trkpt lat="48.70457" lon="-0.61017">
        <ele>257.39999389648</ele>
        <time>2014-01-09T14:11:57.000Z</time>
      </trkpt>
      <trkpt lat="48.70451" lon="-0.60995">
        <ele>257.20001220703</ele>
        <time>2014-01-09T14:12:02.000Z</time>
      </trkpt>
      <trkpt lat="48.70438" lon="-0.60958">
        <ele>258</ele>
        <time>2014-01-09T14:12:11.000Z</time>
      </trkpt>
      <trkpt lat="48.70437" lon="-0.60955">
        <ele>258</ele>
        <time>2014-01-09T14:12:12.000Z</time>
      </trkpt>
      <trkpt lat="48.70433" lon="-0.60944">
        <ele>258.20001220703</ele>
        <time>2014-01-09T14:12:17.000Z</time>
      </trkpt>
      <trkpt lat="48.70433" lon="-0.60943">
        <ele>258.20001220703</ele>
        <time>2014-01-09T14:12:26.000Z</time>
      </trkpt>
      <trkpt lat="48.70433" lon="-0.60943">
        <ele>258.20001220703</ele>
        <time>2014-01-09T14:12:37.000Z</time>
      </trkpt>
      <trkpt lat="48.70433" lon="-0.60943">
        <ele>258.20001220703</ele>
        <time>2014-01-09T14:12:48.000Z</time>
      </trkpt>
      <trkpt lat="48.70433" lon="-0.60942">
        <ele>258.20001220703</ele>
        <time>2014-01-09T14:12:53.000Z</time>
      </trkpt>
      <trkpt lat="48.70433" lon="-0.60937">
        <ele>258.39999389648</ele>
        <time>2014-01-09T14:12:54.000Z</time>
      </trkpt>
      <trkpt lat="48.70431" lon="-0.6093">
        <ele>258.39999389648</ele>
        <time>2014-01-09T14:12:57.000Z</time>
      </trkpt>
      <trkpt lat="48.7043" lon="-0.60927">
        <ele>258.60000610352</ele>
        <time>2014-01-09T14:12:58.000Z</time>
      </trkpt>
      <trkpt lat="48.70429" lon="-0.60922">
        <ele>258.60000610352</ele>
        <time>2014-01-09T14:13:00.000Z</time>
      </trkpt>
      <trkpt lat="48.70427" lon="-0.60916">
        <ele>258.79998779297</ele>
        <time>2014-01-09T14:13:02.000Z</time>
      </trkpt>
      <trkpt lat="48.70425" lon="-0.60914">
        <ele>258.79998779297</ele>
        <time>2014-01-09T14:13:03.000Z</time>
      </trkpt>
      <trkpt lat="48.70423" lon="-0.60906">
        <ele>259</ele>
        <time>2014-01-09T14:13:05.000Z</time>
      </trkpt>
      <trkpt lat="48.70421" lon="-0.60899">
        <ele>259.20001220703</ele>
        <time>2014-01-09T14:13:07.000Z</time>
      </trkpt>
      <trkpt lat="48.70419" lon="-0.60892">
        <ele>259.20001220703</ele>
        <time>2014-01-09T14:13:09.000Z</time>
      </trkpt>
      <trkpt lat="48.70414" lon="-0.60876">
        <ele>259.79998779297</ele>
        <time>2014-01-09T14:13:13.000Z</time>
      </trkpt>
      <trkpt lat="48.70411" lon="-0.60868">
        <ele>260.20001220703</ele>
        <time>2014-01-09T14:13:15.000Z</time>
      </trkpt>
      <trkpt lat="48.7041" lon="-0.60866">
        <ele>260.39999389648</ele>
        <time>2014-01-09T14:13:16.000Z</time>
      </trkpt>
      <trkpt lat="48.70408" lon="-0.60865">
        <ele>260.39999389648</ele>
        <time>2014-01-09T14:13:17.000Z</time>
      </trkpt>
      <trkpt lat="48.70402" lon="-0.60855">
        <ele>261.20001220703</ele>
        <time>2014-01-09T14:13:23.000Z</time>
      </trkpt>
      <trkpt lat="48.70402" lon="-0.60849">
        <ele>261.20001220703</ele>
        <time>2014-01-09T14:13:25.000Z</time>
      </trkpt>
      <trkpt lat="48.70401" lon="-0.60847">
        <ele>261.20001220703</ele>
        <time>2014-01-09T14:13:27.000Z</time>
      </trkpt>
      <trkpt lat="48.70401" lon="-0.60847">
        <ele>261.20001220703</ele>
        <time>2014-01-09T14:13:28.000Z</time>
      </trkpt>
      <trkpt lat="48.70401" lon="-0.60846">
        <ele>261.20001220703</ele>
        <time>2014-01-09T14:13:37.000Z</time>
      </trkpt>
      <trkpt lat="48.70401" lon="-0.60845">
        <ele>261.20001220703</ele>
        <time>2014-01-09T14:13:44.000Z</time>
      </trkpt>
      <trkpt lat="48.70399" lon="-0.60838">
        <ele>261.39999389648</ele>
        <time>2014-01-09T14:13:50.000Z</time>
      </trkpt>
      <trkpt lat="48.70399" lon="-0.60838">
        <ele>261.39999389648</ele>
        <time>2014-01-09T14:13:51.000Z</time>
      </trkpt>
      <trkpt lat="48.70397" lon="-0.60833">
        <ele>261.60000610352</ele>
        <time>2014-01-09T14:14:00.000Z</time>
      </trkpt>
      <trkpt lat="48.70397" lon="-0.60833">
        <ele>261.60000610352</ele>
        <time>2014-01-09T14:14:05.000Z</time>
      </trkpt>
      <trkpt lat="48.70397" lon="-0.60833">
        <ele>261.60000610352</ele>
        <time>2014-01-09T14:14:12.000Z</time>
      </trkpt>
      <trkpt lat="48.70397" lon="-0.60834">
        <ele>261.60000610352</ele>
        <time>2014-01-09T14:14:15.000Z</time>
      </trkpt>
      <trkpt lat="48.70397" lon="-0.60833">
        <ele>261.60000610352</ele>
        <time>2014-01-09T14:14:18.000Z</time>
      </trkpt>
      <trkpt lat="48.70397" lon="-0.60833">
        <ele>261.60000610352</ele>
        <time>2014-01-09T14:14:24.000Z</time>
      </trkpt>
      <trkpt lat="48.70397" lon="-0.60833">
        <ele>261.60000610352</ele>
        <time>2014-01-09T14:14:26.000Z</time>
      </trkpt>
      <trkpt lat="48.70397" lon="-0.60833">
        <ele>261.60000610352</ele>
        <time>2014-01-09T14:14:32.000Z</time>
      </trkpt>
      <trkpt lat="48.70397" lon="-0.60833">
        <ele>261.60000610352</ele>
        <time>2014-01-09T14:14:38.000Z</time>
      </trkpt>
      <trkpt lat="48.70397" lon="-0.60833">
        <ele>261.60000610352</ele>
        <time>2014-01-09T14:14:45.000Z</time>
      </trkpt>
      <trkpt lat="48.70397" lon="-0.60833">
        <ele>261.60000610352</ele>
        <time>2014-01-09T14:14:53.000Z</time>
      </trkpt>
      <trkpt lat="48.70396" lon="-0.60833">
        <ele>261.79998779297</ele>
        <time>2014-01-09T14:14:59.000Z</time>
      </trkpt>
      <trkpt lat="48.70396" lon="-0.60833">
        <ele>261.79998779297</ele>
        <time>2014-01-09T14:15:06.000Z</time>
      </trkpt>
      <trkpt lat="48.70396" lon="-0.60833">
        <ele>261.79998779297</ele>
        <time>2014-01-09T14:15:13.000Z</time>
      </trkpt>
      <trkpt lat="48.70391" lon="-0.60827">
        <ele>262</ele>
        <time>2014-01-09T14:15:22.000Z</time>
      </trkpt>
      <trkpt lat="48.70382" lon="-0.60819">
        <ele>262.39999389648</ele>
        <time>2014-01-09T14:15:28.000Z</time>
      </trkpt>
      <trkpt lat="48.70375" lon="-0.60812">
        <ele>262.60000610352</ele>
        <time>2014-01-09T14:15:35.000Z</time>
      </trkpt>
      <trkpt lat="48.70371" lon="-0.60803">
        <ele>262.60000610352</ele>
        <time>2014-01-09T14:15:42.000Z</time>
      </trkpt>
      <trkpt lat="48.70368" lon="-0.60792">
        <ele>262.20001220703</ele>
        <time>2014-01-09T14:15:50.000Z</time>
      </trkpt>
      <trkpt lat="48.70368" lon="-0.60782">
        <ele>261.79998779297</ele>
        <time>2014-01-09T14:15:57.000Z</time>
      </trkpt>
      <trkpt lat="48.70366" lon="-0.60773">
        <ele>261.39999389648</ele>
        <time>2014-01-09T14:16:04.000Z</time>
      </trkpt>
      <trkpt lat="48.70365" lon="-0.60768">
        <ele>261.39999389648</ele>
        <time>2014-01-09T14:16:10.000Z</time>
      </trkpt>
      <trkpt lat="48.70365" lon="-0.60768">
        <ele>261.39999389648</ele>
        <time>2014-01-09T14:16:19.000Z</time>
      </trkpt>
      <trkpt lat="48.70365" lon="-0.60768">
        <ele>261.39999389648</ele>
        <time>2014-01-09T14:16:23.000Z</time>
      </trkpt>
      <trkpt lat="48.70365" lon="-0.60768">
        <ele>261.39999389648</ele>
        <time>2014-01-09T14:16:31.000Z</time>
      </trkpt>
      <trkpt lat="48.70365" lon="-0.60768">
        <ele>261.39999389648</ele>
        <time>2014-01-09T14:16:44.000Z</time>
      </trkpt>
      <trkpt lat="48.70364" lon="-0.60767">
        <ele>261.39999389648</ele>
        <time>2014-01-09T14:17:01.000Z</time>
      </trkpt>
      <trkpt lat="48.70364" lon="-0.60767">
        <ele>261.39999389648</ele>
        <time>2014-01-09T14:17:17.000Z</time>
      </trkpt>
      <trkpt lat="48.70364" lon="-0.60765">
        <ele>261.20001220703</ele>
        <time>2014-01-09T14:17:29.000Z</time>
      </trkpt>
      <trkpt lat="48.70364" lon="-0.60765">
        <ele>261.20001220703</ele>
        <time>2014-01-09T14:17:39.000Z</time>
      </trkpt>
      <trkpt lat="48.70364" lon="-0.60765">
        <ele>261.20001220703</ele>
        <time>2014-01-09T14:17:53.000Z</time>
      </trkpt>
      <trkpt lat="48.70365" lon="-0.60764">
        <ele>261.20001220703</ele>
        <time>2014-01-09T14:18:12.000Z</time>
      </trkpt>
      <trkpt lat="48.70365" lon="-0.60764">
        <ele>261.20001220703</ele>
        <time>2014-01-09T14:18:31.000Z</time>
      </trkpt>
      <trkpt lat="48.70365" lon="-0.60764">
        <ele>261.20001220703</ele>
        <time>2014-01-09T14:18:40.000Z</time>
      </trkpt>
      <trkpt lat="48.70365" lon="-0.60764">
        <ele>261.20001220703</ele>
        <time>2014-01-09T14:18:53.000Z</time>
      </trkpt>
      <trkpt lat="48.70365" lon="-0.60764">
        <ele>261.20001220703</ele>
        <time>2014-01-09T14:19:03.000Z</time>
      </trkpt>
      <trkpt lat="48.70365" lon="-0.60764">
        <ele>261.20001220703</ele>
        <time>2014-01-09T14:19:13.000Z</time>
      </trkpt>
      <trkpt lat="48.70365" lon="-0.60764">
        <ele>261.20001220703</ele>
        <time>2014-01-09T14:19:23.000Z</time>
      </trkpt>
      <trkpt lat="48.70365" lon="-0.60764">
        <ele>261.20001220703</ele>
        <time>2014-01-09T14:19:39.000Z</time>
      </trkpt>
      <trkpt lat="48.70365" lon="-0.60764">
        <ele>261.20001220703</ele>
        <time>2014-01-09T14:19:50.000Z</time>
      </trkpt>
      <trkpt lat="48.70365" lon="-0.60764">
        <ele>261.20001220703</ele>
        <time>2014-01-09T14:20:03.000Z</time>
      </trkpt>
      <trkpt lat="48.70365" lon="-0.60764">
        <ele>261.20001220703</ele>
        <time>2014-01-09T14:20:14.000Z</time>
      </trkpt>
      <trkpt lat="48.70365" lon="-0.60764">
        <ele>261.20001220703</ele>
        <time>2014-01-09T14:20:20.000Z</time>
      </trkpt>
      <trkpt lat="48.70365" lon="-0.60764">
        <ele>261.20001220703</ele>
        <time>2014-01-09T14:20:24.000Z</time>
      </trkpt>
      <trkpt lat="48.70367" lon="-0.60766">
        <ele>261.20001220703</ele>
        <time>2014-01-09T14:20:26.000Z</time>
      </trkpt>
      <trkpt lat="48.70367" lon="-0.60768">
        <ele>261.20001220703</ele>
        <time>2014-01-09T14:20:27.000Z</time>
      </trkpt>
      <trkpt lat="48.70372" lon="-0.60773">
        <ele>261.20001220703</ele>
        <time>2014-01-09T14:20:34.000Z</time>
      </trkpt>
      <trkpt lat="48.70375" lon="-0.60777">
        <ele>261.20001220703</ele>
        <time>2014-01-09T14:20:40.000Z</time>
      </trkpt>
      <trkpt lat="48.70376" lon="-0.60783">
        <ele>261.39999389648</ele>
        <time>2014-01-09T14:20:46.000Z</time>
      </trkpt>
      <trkpt lat="48.70376" lon="-0.60784">
        <ele>261.39999389648</ele>
        <time>2014-01-09T14:20:47.000Z</time>
      </trkpt>
      <trkpt lat="48.7038" lon="-0.60791">
        <ele>261.39999389648</ele>
        <time>2014-01-09T14:20:54.000Z</time>
      </trkpt>
      <trkpt lat="48.70382" lon="-0.60795">
        <ele>261.39999389648</ele>
        <time>2014-01-09T14:20:57.000Z</time>
      </trkpt>
      <trkpt lat="48.70384" lon="-0.60799">
        <ele>261.39999389648</ele>
        <time>2014-01-09T14:21:00.000Z</time>
      </trkpt>
      <trkpt lat="48.70385" lon="-0.60801">
        <ele>261.39999389648</ele>
        <time>2014-01-09T14:21:02.000Z</time>
      </trkpt>
      <trkpt lat="48.70386" lon="-0.60802">
        <ele>261.39999389648</ele>
        <time>2014-01-09T14:21:05.000Z</time>
      </trkpt>
      <trkpt lat="48.70387" lon="-0.60805">
        <ele>261.39999389648</ele>
        <time>2014-01-09T14:21:14.000Z</time>
      </trkpt>
      <trkpt lat="48.70388" lon="-0.60809">
        <ele>261.60000610352</ele>
        <time>2014-01-09T14:21:21.000Z</time>
      </trkpt>
      <trkpt lat="48.70388" lon="-0.60809">
        <ele>261.60000610352</ele>
        <time>2014-01-09T14:21:28.000Z</time>
      </trkpt>
      <trkpt lat="48.70388" lon="-0.60809">
        <ele>261.60000610352</ele>
        <time>2014-01-09T14:21:30.000Z</time>
      </trkpt>
      <trkpt lat="48.70388" lon="-0.60809">
        <ele>261.60000610352</ele>
        <time>2014-01-09T14:21:37.000Z</time>
      </trkpt>
      <trkpt lat="48.70387" lon="-0.60809">
        <ele>261.60000610352</ele>
        <time>2014-01-09T14:21:44.000Z</time>
      </trkpt>
      <trkpt lat="48.70388" lon="-0.60809">
        <ele>261.60000610352</ele>
        <time>2014-01-09T14:21:51.000Z</time>
      </trkpt>
      <trkpt lat="48.70393" lon="-0.60832">
        <ele>262</ele>
        <time>2014-01-09T14:21:55.000Z</time>
      </trkpt>
      <trkpt lat="48.70394" lon="-0.60836">
        <ele>262</ele>
        <time>2014-01-09T14:21:57.000Z</time>
      </trkpt>
      <trkpt lat="48.70394" lon="-0.60836">
        <ele>262</ele>
        <time>2014-01-09T14:22:04.000Z</time>
      </trkpt>
      <trkpt lat="48.70394" lon="-0.60837">
        <ele>261.79998779297</ele>
        <time>2014-01-09T14:22:09.000Z</time>
      </trkpt>
      <trkpt lat="48.70397" lon="-0.60846">
        <ele>261.60000610352</ele>
        <time>2014-01-09T14:22:13.000Z</time>
      </trkpt>
      <trkpt lat="48.70397" lon="-0.60848">
        <ele>261.60000610352</ele>
        <time>2014-01-09T14:22:14.000Z</time>
      </trkpt>
      <trkpt lat="48.70399" lon="-0.60854">
        <ele>261.39999389648</ele>
        <time>2014-01-09T14:22:17.000Z</time>
      </trkpt>
      <trkpt lat="48.70402" lon="-0.60861">
        <ele>261.20001220703</ele>
        <time>2014-01-09T14:22:20.000Z</time>
      </trkpt>
      <trkpt lat="48.70407" lon="-0.60875">
        <ele>260.60000610352</ele>
        <time>2014-01-09T14:22:24.000Z</time>
      </trkpt>
      <trkpt lat="48.7041" lon="-0.60885">
        <ele>260.20001220703</ele>
        <time>2014-01-09T14:22:27.000Z</time>
      </trkpt>
      <trkpt lat="48.70413" lon="-0.60892">
        <ele>259.79998779297</ele>
        <time>2014-01-09T14:22:30.000Z</time>
      </trkpt>
      <trkpt lat="48.70416" lon="-0.609">
        <ele>259.20001220703</ele>
        <time>2014-01-09T14:22:33.000Z</time>
      </trkpt>
      <trkpt lat="48.70417" lon="-0.60903">
        <ele>259.20001220703</ele>
        <time>2014-01-09T14:22:34.000Z</time>
      </trkpt>
      <trkpt lat="48.70422" lon="-0.60916">
        <ele>258.79998779297</ele>
        <time>2014-01-09T14:22:38.000Z</time>
      </trkpt>
      <trkpt lat="48.70423" lon="-0.60918">
        <ele>258.79998779297</ele>
        <time>2014-01-09T14:22:39.000Z</time>
      </trkpt>
      <trkpt lat="48.70426" lon="-0.60923">
        <ele>258.79998779297</ele>
        <time>2014-01-09T14:22:41.000Z</time>
      </trkpt>
      <trkpt lat="48.70431" lon="-0.60933">
        <ele>258.39999389648</ele>
        <time>2014-01-09T14:22:45.000Z</time>
      </trkpt>
      <trkpt lat="48.70433" lon="-0.60939">
        <ele>258.39999389648</ele>
        <time>2014-01-09T14:22:49.000Z</time>
      </trkpt>
      <trkpt lat="48.70433" lon="-0.60939">
        <ele>258.39999389648</ele>
        <time>2014-01-09T14:22:58.000Z</time>
      </trkpt>
      <trkpt lat="48.70433" lon="-0.60939">
        <ele>258.39999389648</ele>
        <time>2014-01-09T14:23:12.000Z</time>
      </trkpt>
      <trkpt lat="48.70433" lon="-0.60939">
        <ele>258.39999389648</ele>
        <time>2014-01-09T14:23:25.000Z</time>
      </trkpt>
      <trkpt lat="48.70433" lon="-0.60939">
        <ele>258.39999389648</ele>
        <time>2014-01-09T14:23:27.000Z</time>
      </trkpt>
      <trkpt lat="48.70434" lon="-0.6094">
        <ele>258.39999389648</ele>
        <time>2014-01-09T14:23:43.000Z</time>
      </trkpt>
      <trkpt lat="48.70434" lon="-0.6094">
        <ele>258.39999389648</ele>
        <time>2014-01-09T14:24:00.000Z</time>
      </trkpt>
      <trkpt lat="48.70434" lon="-0.60946">
        <ele>258.20001220703</ele>
        <time>2014-01-09T14:24:09.000Z</time>
      </trkpt>
      <trkpt lat="48.70438" lon="-0.60963">
        <ele>258</ele>
        <time>2014-01-09T14:24:15.000Z</time>
      </trkpt>
      <trkpt lat="48.70439" lon="-0.60965">
        <ele>257.79998779297</ele>
        <time>2014-01-09T14:24:16.000Z</time>
      </trkpt>
      <trkpt lat="48.70442" lon="-0.60974">
        <ele>257.79998779297</ele>
        <time>2014-01-09T14:24:19.000Z</time>
      </trkpt>
      <trkpt lat="48.70443" lon="-0.60977">
        <ele>257.60000610352</ele>
        <time>2014-01-09T14:24:20.000Z</time>
      </trkpt>
      <trkpt lat="48.70448" lon="-0.60991">
        <ele>257.39999389648</ele>
        <time>2014-01-09T14:24:26.000Z</time>
      </trkpt>
      <trkpt lat="48.70453" lon="-0.6101">
        <ele>257.39999389648</ele>
        <time>2014-01-09T14:24:32.000Z</time>
      </trkpt>
      <trkpt lat="48.70461" lon="-0.61034">
        <ele>257.60000610352</ele>
        <time>2014-01-09T14:24:39.000Z</time>
      </trkpt>
      <trkpt lat="48.70467" lon="-0.6105">
        <ele>257.60000610352</ele>
        <time>2014-01-09T14:24:44.000Z</time>
      </trkpt>
      <trkpt lat="48.70473" lon="-0.61069">
        <ele>257.79998779297</ele>
        <time>2014-01-09T14:24:50.000Z</time>
      </trkpt>
      <trkpt lat="48.7048" lon="-0.61091">
        <ele>258</ele>
        <time>2014-01-09T14:24:56.000Z</time>
      </trkpt>
      <trkpt lat="48.70487" lon="-0.61114">
        <ele>258.60000610352</ele>
        <time>2014-01-09T14:25:03.000Z</time>
      </trkpt>
      <trkpt lat="48.70494" lon="-0.61133">
        <ele>259</ele>
        <time>2014-01-09T14:25:09.000Z</time>
      </trkpt>
      <trkpt lat="48.70501" lon="-0.61158">
        <ele>259.60000610352</ele>
        <time>2014-01-09T14:25:16.000Z</time>
      </trkpt>
      <trkpt lat="48.70509" lon="-0.61184">
        <ele>260.20001220703</ele>
        <time>2014-01-09T14:25:22.000Z</time>
      </trkpt>
      <trkpt lat="48.70517" lon="-0.6121">
        <ele>260.79998779297</ele>
        <time>2014-01-09T14:25:29.000Z</time>
      </trkpt>
      <trkpt lat="48.70525" lon="-0.61232">
        <ele>261</ele>
        <time>2014-01-09T14:25:35.000Z</time>
      </trkpt>
      <trkpt lat="48.70531" lon="-0.61253">
        <ele>261.20001220703</ele>
        <time>2014-01-09T14:25:40.000Z</time>
      </trkpt>
      <trkpt lat="48.70539" lon="-0.61279">
        <ele>261.60000610352</ele>
        <time>2014-01-09T14:25:47.000Z</time>
      </trkpt>
      <trkpt lat="48.70547" lon="-0.61308">
        <ele>262.39999389648</ele>
        <time>2014-01-09T14:25:55.000Z</time>
      </trkpt>
      <trkpt lat="48.70551" lon="-0.61327">
        <ele>263</ele>
        <time>2014-01-09T14:25:58.000Z</time>
      </trkpt>
      <trkpt lat="48.70552" lon="-0.61331">
        <ele>263</ele>
        <time>2014-01-09T14:26:02.000Z</time>
      </trkpt>
      <trkpt lat="48.70555" lon="-0.61342">
        <ele>263.20001220703</ele>
        <time>2014-01-09T14:26:05.000Z</time>
      </trkpt>
      <trkpt lat="48.70556" lon="-0.61348">
        <ele>263.20001220703</ele>
        <time>2014-01-09T14:26:07.000Z</time>
      </trkpt>
      <trkpt lat="48.70559" lon="-0.61353">
        <ele>263.20001220703</ele>
        <time>2014-01-09T14:26:09.000Z</time>
      </trkpt>
      <trkpt lat="48.70562" lon="-0.61361">
        <ele>263.20001220703</ele>
        <time>2014-01-09T14:26:12.000Z</time>
      </trkpt>
      <trkpt lat="48.70567" lon="-0.6138">
        <ele>263.39999389648</ele>
        <time>2014-01-09T14:26:18.000Z</time>
      </trkpt>
      <trkpt lat="48.70569" lon="-0.61387">
        <ele>263.39999389648</ele>
        <time>2014-01-09T14:26:20.000Z</time>
      </trkpt>
      <trkpt lat="48.7057" lon="-0.61391">
        <ele>263.60000610352</ele>
        <time>2014-01-09T14:26:23.000Z</time>
      </trkpt>
      <trkpt lat="48.7057" lon="-0.61391">
        <ele>263.60000610352</ele>
        <time>2014-01-09T14:26:29.000Z</time>
      </trkpt>
      <trkpt lat="48.70572" lon="-0.61395">
        <ele>263.60000610352</ele>
        <time>2014-01-09T14:26:30.000Z</time>
      </trkpt>
      <trkpt lat="48.70577" lon="-0.6141">
        <ele>263.79998779297</ele>
        <time>2014-01-09T14:26:34.000Z</time>
      </trkpt>
      <trkpt lat="48.70583" lon="-0.6143">
        <ele>263.60000610352</ele>
        <time>2014-01-09T14:26:39.000Z</time>
      </trkpt>
      <trkpt lat="48.70589" lon="-0.6145">
        <ele>262.39999389648</ele>
        <time>2014-01-09T14:26:44.000Z</time>
      </trkpt>
      <trkpt lat="48.70591" lon="-0.61454">
        <ele>262.20001220703</ele>
        <time>2014-01-09T14:26:45.000Z</time>
      </trkpt>
      <trkpt lat="48.70597" lon="-0.61474">
        <ele>261.39999389648</ele>
        <time>2014-01-09T14:26:50.000Z</time>
      </trkpt>
      <trkpt lat="48.70599" lon="-0.6148">
        <ele>261</ele>
        <time>2014-01-09T14:26:52.000Z</time>
      </trkpt>
      <trkpt lat="48.70603" lon="-0.61492">
        <ele>260.60000610352</ele>
        <time>2014-01-09T14:26:55.000Z</time>
      </trkpt>
      <trkpt lat="48.70604" lon="-0.61495">
        <ele>260.39999389648</ele>
        <time>2014-01-09T14:26:56.000Z</time>
      </trkpt>
      <trkpt lat="48.70608" lon="-0.61508">
        <ele>260</ele>
        <time>2014-01-09T14:27:00.000Z</time>
      </trkpt>
      <trkpt lat="48.70614" lon="-0.61526">
        <ele>259.79998779297</ele>
        <time>2014-01-09T14:27:06.000Z</time>
      </trkpt>
      <trkpt lat="48.70621" lon="-0.61544">
        <ele>259.60000610352</ele>
        <time>2014-01-09T14:27:12.000Z</time>
      </trkpt>
      <trkpt lat="48.70628" lon="-0.61568">
        <ele>259.39999389648</ele>
        <time>2014-01-09T14:27:19.000Z</time>
      </trkpt>
      <trkpt lat="48.70633" lon="-0.61575">
        <ele>259.39999389648</ele>
        <time>2014-01-09T14:27:22.000Z</time>
      </trkpt>
      <trkpt lat="48.70637" lon="-0.61577">
        <ele>259.39999389648</ele>
        <time>2014-01-09T14:27:24.000Z</time>
      </trkpt>
      <trkpt lat="48.70638" lon="-0.61577">
        <ele>259.39999389648</ele>
        <time>2014-01-09T14:27:25.000Z</time>
      </trkpt>
      <trkpt lat="48.70643" lon="-0.61581">
        <ele>259.20001220703</ele>
        <time>2014-01-09T14:27:28.000Z</time>
      </trkpt>
      <trkpt lat="48.7065" lon="-0.61584">
        <ele>259.20001220703</ele>
        <time>2014-01-09T14:27:34.000Z</time>
      </trkpt>
      <trkpt lat="48.70655" lon="-0.61583">
        <ele>259.20001220703</ele>
        <time>2014-01-09T14:27:48.000Z</time>
      </trkpt>
      <trkpt lat="48.70666" lon="-0.61581">
        <ele>259</ele>
        <time>2014-01-09T14:27:53.000Z</time>
      </trkpt>
      <trkpt lat="48.70685" lon="-0.61577">
        <ele>258</ele>
        <time>2014-01-09T14:28:00.000Z</time>
      </trkpt>
      <trkpt lat="48.70688" lon="-0.61576">
        <ele>258</ele>
        <time>2014-01-09T14:28:01.000Z</time>
      </trkpt>
      <trkpt lat="48.70707" lon="-0.61569">
        <ele>257.20001220703</ele>
        <time>2014-01-09T14:28:08.000Z</time>
      </trkpt>
      <trkpt lat="48.70713" lon="-0.61566">
        <ele>257</ele>
        <time>2014-01-09T14:28:11.000Z</time>
      </trkpt>
      <trkpt lat="48.70724" lon="-0.61562">
        <ele>256.60000610352</ele>
        <time>2014-01-09T14:28:15.000Z</time>
      </trkpt>
      <trkpt lat="48.70741" lon="-0.61554">
        <ele>256.39999389648</ele>
        <time>2014-01-09T14:28:21.000Z</time>
      </trkpt>
      <trkpt lat="48.70752" lon="-0.6155">
        <ele>256.20001220703</ele>
        <time>2014-01-09T14:28:25.000Z</time>
      </trkpt>
      <trkpt lat="48.70754" lon="-0.61549">
        <ele>256.20001220703</ele>
        <time>2014-01-09T14:28:26.000Z</time>
      </trkpt>
      <trkpt lat="48.70757" lon="-0.61548">
        <ele>256</ele>
        <time>2014-01-09T14:28:27.000Z</time>
      </trkpt>
      <trkpt lat="48.70762" lon="-0.61546">
        <ele>256</ele>
        <time>2014-01-09T14:28:29.000Z</time>
      </trkpt>
      <trkpt lat="48.70768" lon="-0.61544">
        <ele>256</ele>
        <time>2014-01-09T14:28:31.000Z</time>
      </trkpt>
      <trkpt lat="48.70778" lon="-0.6154">
        <ele>256</ele>
        <time>2014-01-09T14:28:35.000Z</time>
      </trkpt>
      <trkpt lat="48.70783" lon="-0.61538">
        <ele>255.80000305176</ele>
        <time>2014-01-09T14:28:37.000Z</time>
      </trkpt>
      <trkpt lat="48.70794" lon="-0.61534">
        <ele>255.80000305176</ele>
        <time>2014-01-09T14:28:42.000Z</time>
      </trkpt>
      <trkpt lat="48.70807" lon="-0.6153">
        <ele>255.80000305176</ele>
        <time>2014-01-09T14:28:47.000Z</time>
      </trkpt>
      <trkpt lat="48.70809" lon="-0.61529">
        <ele>255.80000305176</ele>
        <time>2014-01-09T14:28:48.000Z</time>
      </trkpt>
      <trkpt lat="48.70819" lon="-0.61525">
        <ele>255.80000305176</ele>
        <time>2014-01-09T14:28:53.000Z</time>
      </trkpt>
      <trkpt lat="48.70835" lon="-0.61519">
        <ele>255.80000305176</ele>
        <time>2014-01-09T14:28:59.000Z</time>
      </trkpt>
      <trkpt lat="48.70847" lon="-0.61515">
        <ele>255.60000610352</ele>
        <time>2014-01-09T14:29:05.000Z</time>
      </trkpt>
      <trkpt lat="48.70867" lon="-0.61509">
        <ele>255.19999694824</ele>
        <time>2014-01-09T14:29:13.000Z</time>
      </trkpt>
      <trkpt lat="48.70881" lon="-0.61505">
        <ele>255</ele>
        <time>2014-01-09T14:29:19.000Z</time>
      </trkpt>
      <trkpt lat="48.70894" lon="-0.615">
        <ele>254.80000305176</ele>
        <time>2014-01-09T14:29:25.000Z</time>
      </trkpt>
      <trkpt lat="48.70906" lon="-0.61495">
        <ele>254.60000610352</ele>
        <time>2014-01-09T14:29:30.000Z</time>
      </trkpt>
      <trkpt lat="48.70921" lon="-0.61487">
        <ele>254.39999389648</ele>
        <time>2014-01-09T14:29:36.000Z</time>
      </trkpt>
      <trkpt lat="48.70939" lon="-0.61476">
        <ele>255.19999694824</ele>
        <time>2014-01-09T14:29:44.000Z</time>
      </trkpt>
      <trkpt lat="48.70957" lon="-0.61463">
        <ele>256</ele>
        <time>2014-01-09T14:29:52.000Z</time>
      </trkpt>
      <trkpt lat="48.7097" lon="-0.61454">
        <ele>256.79998779297</ele>
        <time>2014-01-09T14:29:58.000Z</time>
      </trkpt>
      <trkpt lat="48.70983" lon="-0.61444">
        <ele>257.39999389648</ele>
        <time>2014-01-09T14:30:05.000Z</time>
      </trkpt>
      <trkpt lat="48.70988" lon="-0.6144">
        <ele>257.79998779297</ele>
        <time>2014-01-09T14:30:07.000Z</time>
      </trkpt>
      <trkpt lat="48.70995" lon="-0.61436">
        <ele>258.20001220703</ele>
        <time>2014-01-09T14:30:10.000Z</time>
      </trkpt>
      <trkpt lat="48.7101" lon="-0.61428">
        <ele>259</ele>
        <time>2014-01-09T14:30:16.000Z</time>
      </trkpt>
      <trkpt lat="48.71028" lon="-0.61416">
        <ele>260</ele>
        <time>2014-01-09T14:30:23.000Z</time>
      </trkpt>
      <trkpt lat="48.71049" lon="-0.61401">
        <ele>260.79998779297</ele>
        <time>2014-01-09T14:30:31.000Z</time>
      </trkpt>
      <trkpt lat="48.71061" lon="-0.61391">
        <ele>261.20001220703</ele>
        <time>2014-01-09T14:30:36.000Z</time>
      </trkpt>
      <trkpt lat="48.71064" lon="-0.6139">
        <ele>261.20001220703</ele>
        <time>2014-01-09T14:30:37.000Z</time>
      </trkpt>
      <trkpt lat="48.71073" lon="-0.61392">
        <ele>261.60000610352</ele>
        <time>2014-01-09T14:30:42.000Z</time>
      </trkpt>
      <trkpt lat="48.71074" lon="-0.61393">
        <ele>261.60000610352</ele>
        <time>2014-01-09T14:30:43.000Z</time>
      </trkpt>
      <trkpt lat="48.71074" lon="-0.61393">
        <ele>261.60000610352</ele>
        <time>2014-01-09T14:30:46.000Z</time>
      </trkpt>
      <trkpt lat="48.71074" lon="-0.61393">
        <ele>261.60000610352</ele>
        <time>2014-01-09T14:31:00.000Z</time>
      </trkpt>
      <trkpt lat="48.71074" lon="-0.61393">
        <ele>261.60000610352</ele>
        <time>2014-01-09T14:31:14.000Z</time>
      </trkpt>
      <trkpt lat="48.71075" lon="-0.61393">
        <ele>261.60000610352</ele>
        <time>2014-01-09T14:31:27.000Z</time>
      </trkpt>
      <trkpt lat="48.71075" lon="-0.61393">
        <ele>261.60000610352</ele>
        <time>2014-01-09T14:31:38.000Z</time>
      </trkpt>
      <trkpt lat="48.71075" lon="-0.61393">
        <ele>261.60000610352</ele>
        <time>2014-01-09T14:31:41.000Z</time>
      </trkpt>
      <trkpt lat="48.71076" lon="-0.61395">
        <ele>261.79998779297</ele>
        <time>2014-01-09T14:31:50.000Z</time>
      </trkpt>
      <trkpt lat="48.71082" lon="-0.61411">
        <ele>262</ele>
        <time>2014-01-09T14:31:56.000Z</time>
      </trkpt>
      <trkpt lat="48.7109" lon="-0.61434">
        <ele>261.79998779297</ele>
        <time>2014-01-09T14:32:03.000Z</time>
      </trkpt>
      <trkpt lat="48.71094" lon="-0.61447">
        <ele>261.60000610352</ele>
        <time>2014-01-09T14:32:07.000Z</time>
      </trkpt>
      <trkpt lat="48.71096" lon="-0.61454">
        <ele>261.39999389648</ele>
        <time>2014-01-09T14:32:09.000Z</time>
      </trkpt>
      <trkpt lat="48.71103" lon="-0.61475">
        <ele>261.20001220703</ele>
        <time>2014-01-09T14:32:15.000Z</time>
      </trkpt>
      <trkpt lat="48.7111" lon="-0.61498">
        <ele>261</ele>
        <time>2014-01-09T14:32:21.000Z</time>
      </trkpt>
      <trkpt lat="48.71111" lon="-0.61502">
        <ele>260.79998779297</ele>
        <time>2014-01-09T14:32:22.000Z</time>
      </trkpt>
      <trkpt lat="48.71117" lon="-0.61528">
        <ele>260.20001220703</ele>
        <time>2014-01-09T14:32:28.000Z</time>
      </trkpt>
      <trkpt lat="48.71119" lon="-0.61533">
        <ele>260</ele>
        <time>2014-01-09T14:32:29.000Z</time>
      </trkpt>
      <trkpt lat="48.71125" lon="-0.61551">
        <ele>259.60000610352</ele>
        <time>2014-01-09T14:32:33.000Z</time>
      </trkpt>
      <trkpt lat="48.71127" lon="-0.61554">
        <ele>259.60000610352</ele>
        <time>2014-01-09T14:32:34.000Z</time>
      </trkpt>
      <trkpt lat="48.71132" lon="-0.61557">
        <ele>259.79998779297</ele>
        <time>2014-01-09T14:32:36.000Z</time>
      </trkpt>
      <trkpt lat="48.71138" lon="-0.61558">
        <ele>260.20001220703</ele>
        <time>2014-01-09T14:32:38.000Z</time>
      </trkpt>
      <trkpt lat="48.7115" lon="-0.61551">
        <ele>261.39999389648</ele>
        <time>2014-01-09T14:32:44.000Z</time>
      </trkpt>
      <trkpt lat="48.71162" lon="-0.61542">
        <ele>262.60000610352</ele>
        <time>2014-01-09T14:32:50.000Z</time>
      </trkpt>
      <trkpt lat="48.71171" lon="-0.61539">
        <ele>263.39999389648</ele>
        <time>2014-01-09T14:32:54.000Z</time>
      </trkpt>
      <trkpt lat="48.71176" lon="-0.61538">
        <ele>263.60000610352</ele>
        <time>2014-01-09T14:32:56.000Z</time>
      </trkpt>
      <trkpt lat="48.71191" lon="-0.61536">
        <ele>264.20001220703</ele>
        <time>2014-01-09T14:33:02.000Z</time>
      </trkpt>
      <trkpt lat="48.71193" lon="-0.61535">
        <ele>264.39999389648</ele>
        <time>2014-01-09T14:33:03.000Z</time>
      </trkpt>
      <trkpt lat="48.7121" lon="-0.61534">
        <ele>265</ele>
        <time>2014-01-09T14:33:09.000Z</time>
      </trkpt>
      <trkpt lat="48.71213" lon="-0.61534">
        <ele>265.20001220703</ele>
        <time>2014-01-09T14:33:10.000Z</time>
      </trkpt>
      <trkpt lat="48.71236" lon="-0.61532">
        <ele>266.20001220703</ele>
        <time>2014-01-09T14:33:14.000Z</time>
      </trkpt>
      <trkpt lat="48.71238" lon="-0.61531">
        <ele>266.20001220703</ele>
        <time>2014-01-09T14:33:19.000Z</time>
      </trkpt>
      <trkpt lat="48.71254" lon="-0.61529">
        <ele>267</ele>
        <time>2014-01-09T14:33:25.000Z</time>
      </trkpt>
      <trkpt lat="48.71257" lon="-0.61526">
        <ele>267.20001220703</ele>
        <time>2014-01-09T14:33:27.000Z</time>
      </trkpt>
      <trkpt lat="48.71263" lon="-0.61521">
        <ele>267.60000610352</ele>
        <time>2014-01-09T14:33:32.000Z</time>
      </trkpt>
      <trkpt lat="48.71263" lon="-0.61521">
        <ele>267.60000610352</ele>
        <time>2014-01-09T14:33:36.000Z</time>
      </trkpt>
      <trkpt lat="48.71263" lon="-0.61521">
        <ele>267.60000610352</ele>
        <time>2014-01-09T14:33:46.000Z</time>
      </trkpt>
      <trkpt lat="48.71267" lon="-0.6152">
        <ele>267.79998779297</ele>
        <time>2014-01-09T14:33:48.000Z</time>
      </trkpt>
      <trkpt lat="48.71273" lon="-0.61522">
        <ele>267.79998779297</ele>
        <time>2014-01-09T14:33:50.000Z</time>
      </trkpt>
      <trkpt lat="48.71281" lon="-0.61521">
        <ele>267.79998779297</ele>
        <time>2014-01-09T14:33:53.000Z</time>
      </trkpt>
      <trkpt lat="48.71286" lon="-0.61521">
        <ele>267.79998779297</ele>
        <time>2014-01-09T14:33:55.000Z</time>
      </trkpt>
      <trkpt lat="48.71297" lon="-0.61521">
        <ele>268</ele>
        <time>2014-01-09T14:33:59.000Z</time>
      </trkpt>
      <trkpt lat="48.71314" lon="-0.61516">
        <ele>268.79998779297</ele>
        <time>2014-01-09T14:34:05.000Z</time>
      </trkpt>
      <trkpt lat="48.7133" lon="-0.61513">
        <ele>269.39999389648</ele>
        <time>2014-01-09T14:34:12.000Z</time>
      </trkpt>
      <trkpt lat="48.71343" lon="-0.61515">
        <ele>269</ele>
        <time>2014-01-09T14:34:17.000Z</time>
      </trkpt>
      <trkpt lat="48.71355" lon="-0.61515">
        <ele>268.60000610352</ele>
        <time>2014-01-09T14:34:22.000Z</time>
      </trkpt>
      <trkpt lat="48.71364" lon="-0.61516">
        <ele>268.39999389648</ele>
        <time>2014-01-09T14:34:26.000Z</time>
      </trkpt>
      <trkpt lat="48.71375" lon="-0.61516">
        <ele>268.20001220703</ele>
        <time>2014-01-09T14:34:31.000Z</time>
      </trkpt>
      <trkpt lat="48.71377" lon="-0.61515">
        <ele>268.20001220703</ele>
        <time>2014-01-09T14:34:32.000Z</time>
      </trkpt>
      <trkpt lat="48.71383" lon="-0.61512">
        <ele>268.39999389648</ele>
        <time>2014-01-09T14:34:35.000Z</time>
      </trkpt>
      <trkpt lat="48.7139" lon="-0.61501">
        <ele>269.60000610352</ele>
        <time>2014-01-09T14:34:39.000Z</time>
      </trkpt>
      <trkpt lat="48.71392" lon="-0.61497">
        <ele>269.79998779297</ele>
        <time>2014-01-09T14:34:40.000Z</time>
      </trkpt>
      <trkpt lat="48.71402" lon="-0.61484">
        <ele>270.79998779297</ele>
        <time>2014-01-09T14:34:45.000Z</time>
      </trkpt>
      <trkpt lat="48.71408" lon="-0.61483">
        <ele>270.79998779297</ele>
        <time>2014-01-09T14:34:48.000Z</time>
      </trkpt>
      <trkpt lat="48.71418" lon="-0.61483">
        <ele>270.60000610352</ele>
        <time>2014-01-09T14:34:51.000Z</time>
      </trkpt>
      <trkpt lat="48.71434" lon="-0.6148">
        <ele>270.79998779297</ele>
        <time>2014-01-09T14:34:56.000Z</time>
      </trkpt>
      <trkpt lat="48.71437" lon="-0.6148">
        <ele>270.60000610352</ele>
        <time>2014-01-09T14:34:57.000Z</time>
      </trkpt>
      <trkpt lat="48.71455" lon="-0.61476">
        <ele>270.79998779297</ele>
        <time>2014-01-09T14:35:03.000Z</time>
      </trkpt>
      <trkpt lat="48.71471" lon="-0.61473">
        <ele>270.79998779297</ele>
        <time>2014-01-09T14:35:08.000Z</time>
      </trkpt>
      <trkpt lat="48.71486" lon="-0.61469">
        <ele>270.79998779297</ele>
        <time>2014-01-09T14:35:14.000Z</time>
      </trkpt>
      <trkpt lat="48.71502" lon="-0.61462">
        <ele>271</ele>
        <time>2014-01-09T14:35:20.000Z</time>
      </trkpt>
      <trkpt lat="48.71504" lon="-0.61461">
        <ele>271</ele>
        <time>2014-01-09T14:35:21.000Z</time>
      </trkpt>
      <trkpt lat="48.71523" lon="-0.61459">
        <ele>269.79998779297</ele>
        <time>2014-01-09T14:35:29.000Z</time>
      </trkpt>
      <trkpt lat="48.71534" lon="-0.61459">
        <ele>269</ele>
        <time>2014-01-09T14:35:34.000Z</time>
      </trkpt>
      <trkpt lat="48.7155" lon="-0.61461">
        <ele>267.79998779297</ele>
        <time>2014-01-09T14:35:40.000Z</time>
      </trkpt>
      <trkpt lat="48.71561" lon="-0.61462">
        <ele>267</ele>
        <time>2014-01-09T14:35:44.000Z</time>
      </trkpt>
      <trkpt lat="48.7157" lon="-0.61465">
        <ele>266.39999389648</ele>
        <time>2014-01-09T14:35:47.000Z</time>
      </trkpt>
      <trkpt lat="48.71579" lon="-0.61466">
        <ele>265.79998779297</ele>
        <time>2014-01-09T14:35:50.000Z</time>
      </trkpt>
      <trkpt lat="48.71597" lon="-0.61469">
        <ele>264.60000610352</ele>
        <time>2014-01-09T14:35:56.000Z</time>
      </trkpt>
      <trkpt lat="48.71605" lon="-0.6147">
        <ele>264.20001220703</ele>
        <time>2014-01-09T14:35:58.000Z</time>
      </trkpt>
      <trkpt lat="48.71613" lon="-0.61471">
        <ele>263.60000610352</ele>
        <time>2014-01-09T14:36:01.000Z</time>
      </trkpt>
      <trkpt lat="48.71622" lon="-0.61472">
        <ele>263.20001220703</ele>
        <time>2014-01-09T14:36:04.000Z</time>
      </trkpt>
      <trkpt lat="48.71631" lon="-0.61472">
        <ele>262.60000610352</ele>
        <time>2014-01-09T14:36:07.000Z</time>
      </trkpt>
      <trkpt lat="48.71644" lon="-0.61473">
        <ele>261.79998779297</ele>
        <time>2014-01-09T14:36:11.000Z</time>
      </trkpt>
      <trkpt lat="48.71648" lon="-0.61474">
        <ele>261.60000610352</ele>
        <time>2014-01-09T14:36:12.000Z</time>
      </trkpt>
      <trkpt lat="48.71651" lon="-0.61473">
        <ele>261.39999389648</ele>
        <time>2014-01-09T14:36:13.000Z</time>
      </trkpt>
      <trkpt lat="48.71667" lon="-0.61473">
        <ele>260.39999389648</ele>
        <time>2014-01-09T14:36:17.000Z</time>
      </trkpt>
      <trkpt lat="48.71671" lon="-0.61473">
        <ele>260</ele>
        <time>2014-01-09T14:36:18.000Z</time>
      </trkpt>
      <trkpt lat="48.71682" lon="-0.61472">
        <ele>259.20001220703</ele>
        <time>2014-01-09T14:36:21.000Z</time>
      </trkpt>
      <trkpt lat="48.71685" lon="-0.61472">
        <ele>259</ele>
        <time>2014-01-09T14:36:22.000Z</time>
      </trkpt>
      <trkpt lat="48.71697" lon="-0.61469">
        <ele>258.20001220703</ele>
        <time>2014-01-09T14:36:25.000Z</time>
      </trkpt>
      <trkpt lat="48.71705" lon="-0.61467">
        <ele>257.60000610352</ele>
        <time>2014-01-09T14:36:27.000Z</time>
      </trkpt>
      <trkpt lat="48.71719" lon="-0.61464">
        <ele>256.60000610352</ele>
        <time>2014-01-09T14:36:31.000Z</time>
      </trkpt>
      <trkpt lat="48.71734" lon="-0.61459">
        <ele>255.39999389648</ele>
        <time>2014-01-09T14:36:35.000Z</time>
      </trkpt>
      <trkpt lat="48.71737" lon="-0.61457">
        <ele>255.19999694824</ele>
        <time>2014-01-09T14:36:36.000Z</time>
      </trkpt>
      <trkpt lat="48.71757" lon="-0.6145">
        <ele>254</ele>
        <time>2014-01-09T14:36:41.000Z</time>
      </trkpt>
      <trkpt lat="48.71761" lon="-0.61448">
        <ele>254</ele>
        <time>2014-01-09T14:36:42.000Z</time>
      </trkpt>
      <trkpt lat="48.71769" lon="-0.61446">
        <ele>253.60000610352</ele>
        <time>2014-01-09T14:36:44.000Z</time>
      </trkpt>
      <trkpt lat="48.71785" lon="-0.61438">
        <ele>253.19999694824</ele>
        <time>2014-01-09T14:36:49.000Z</time>
      </trkpt>
      <trkpt lat="48.71801" lon="-0.61436">
        <ele>252.80000305176</ele>
        <time>2014-01-09T14:36:55.000Z</time>
      </trkpt>
      <trkpt lat="48.71818" lon="-0.61429">
        <ele>252.60000610352</ele>
        <time>2014-01-09T14:37:01.000Z</time>
      </trkpt>
      <trkpt lat="48.7182" lon="-0.61428">
        <ele>252.60000610352</ele>
        <time>2014-01-09T14:37:02.000Z</time>
      </trkpt>
      <trkpt lat="48.71835" lon="-0.61416">
        <ele>252.80000305176</ele>
        <time>2014-01-09T14:37:08.000Z</time>
      </trkpt>
      <trkpt lat="48.71845" lon="-0.61407">
        <ele>252.39999389648</ele>
        <time>2014-01-09T14:37:12.000Z</time>
      </trkpt>
      <trkpt lat="48.71852" lon="-0.614">
        <ele>252</ele>
        <time>2014-01-09T14:37:15.000Z</time>
      </trkpt>
      <trkpt lat="48.71861" lon="-0.61393">
        <ele>251.80000305176</ele>
        <time>2014-01-09T14:37:19.000Z</time>
      </trkpt>
      <trkpt lat="48.71865" lon="-0.61391">
        <ele>251.60000610352</ele>
        <time>2014-01-09T14:37:21.000Z</time>
      </trkpt>
      <trkpt lat="48.71878" lon="-0.6138">
        <ele>251.19999694824</ele>
        <time>2014-01-09T14:37:27.000Z</time>
      </trkpt>
      <trkpt lat="48.71897" lon="-0.61369">
        <ele>251</ele>
        <time>2014-01-09T14:37:35.000Z</time>
      </trkpt>
      <trkpt lat="48.71908" lon="-0.61357">
        <ele>251</ele>
        <time>2014-01-09T14:37:41.000Z</time>
      </trkpt>
      <trkpt lat="48.71912" lon="-0.6135">
        <ele>251.19999694824</ele>
        <time>2014-01-09T14:37:47.000Z</time>
      </trkpt>
      <trkpt lat="48.71913" lon="-0.61347">
        <ele>251.39999389648</ele>
        <time>2014-01-09T14:37:56.000Z</time>
      </trkpt>
      <trkpt lat="48.71914" lon="-0.61344">
        <ele>251.60000610352</ele>
        <time>2014-01-09T14:37:58.000Z</time>
      </trkpt>
      <trkpt lat="48.71917" lon="-0.61334">
        <ele>252</ele>
        <time>2014-01-09T14:38:01.000Z</time>
      </trkpt>
      <trkpt lat="48.71919" lon="-0.61327">
        <ele>251.60000610352</ele>
        <time>2014-01-09T14:38:03.000Z</time>
      </trkpt>
      <trkpt lat="48.71929" lon="-0.61301">
        <ele>250.19999694824</ele>
        <time>2014-01-09T14:38:09.000Z</time>
      </trkpt>
      <trkpt lat="48.71936" lon="-0.61288">
        <ele>249.39999389648</ele>
        <time>2014-01-09T14:38:12.000Z</time>
      </trkpt>
      <trkpt lat="48.71943" lon="-0.61276">
        <ele>248.80000305176</ele>
        <time>2014-01-09T14:38:15.000Z</time>
      </trkpt>
      <trkpt lat="48.71948" lon="-0.61269">
        <ele>248.39999389648</ele>
        <time>2014-01-09T14:38:17.000Z</time>
      </trkpt>
      <trkpt lat="48.71957" lon="-0.61258">
        <ele>247.80000305176</ele>
        <time>2014-01-09T14:38:21.000Z</time>
      </trkpt>
      <trkpt lat="48.71959" lon="-0.61255">
        <ele>247.60000610352</ele>
        <time>2014-01-09T14:38:22.000Z</time>
      </trkpt>
      <trkpt lat="48.71964" lon="-0.61251">
        <ele>247.39999389648</ele>
        <time>2014-01-09T14:38:24.000Z</time>
      </trkpt>
      <trkpt lat="48.7197" lon="-0.61243">
        <ele>246.60000610352</ele>
        <time>2014-01-09T14:38:27.000Z</time>
      </trkpt>
      <trkpt lat="48.71972" lon="-0.6124">
        <ele>246.39999389648</ele>
        <time>2014-01-09T14:38:28.000Z</time>
      </trkpt>
      <trkpt lat="48.71979" lon="-0.61233">
        <ele>245.80000305176</ele>
        <time>2014-01-09T14:38:31.000Z</time>
      </trkpt>
      <trkpt lat="48.71985" lon="-0.61227">
        <ele>245.19999694824</ele>
        <time>2014-01-09T14:38:34.000Z</time>
      </trkpt>
      <trkpt lat="48.71995" lon="-0.61216">
        <ele>244.19999694824</ele>
        <time>2014-01-09T14:38:39.000Z</time>
      </trkpt>
      <trkpt lat="48.71996" lon="-0.61215">
        <ele>244</ele>
        <time>2014-01-09T14:38:40.000Z</time>
      </trkpt>
      <trkpt lat="48.72003" lon="-0.61205">
        <ele>243.19999694824</ele>
        <time>2014-01-09T14:38:45.000Z</time>
      </trkpt>
      <trkpt lat="48.72005" lon="-0.61203">
        <ele>243.19999694824</ele>
        <time>2014-01-09T14:38:46.000Z</time>
      </trkpt>
      <trkpt lat="48.72011" lon="-0.61195">
        <ele>242.60000610352</ele>
        <time>2014-01-09T14:38:49.000Z</time>
      </trkpt>
      <trkpt lat="48.72017" lon="-0.61187">
        <ele>242.19999694824</ele>
        <time>2014-01-09T14:38:52.000Z</time>
      </trkpt>
      <trkpt lat="48.72022" lon="-0.61182">
        <ele>241.80000305176</ele>
        <time>2014-01-09T14:38:54.000Z</time>
      </trkpt>
      <trkpt lat="48.72031" lon="-0.61171">
        <ele>241.19999694824</ele>
        <time>2014-01-09T14:38:58.000Z</time>
      </trkpt>
      <trkpt lat="48.72042" lon="-0.61157">
        <ele>240.39999389648</ele>
        <time>2014-01-09T14:38:59.000Z</time>
      </trkpt>
      <trkpt lat="48.72058" lon="-0.61139">
        <ele>239.39999389648</ele>
        <time>2014-01-09T14:39:10.000Z</time>
      </trkpt>
      <trkpt lat="48.72068" lon="-0.61127">
        <ele>238.80000305176</ele>
        <time>2014-01-09T14:39:14.000Z</time>
      </trkpt>
      <trkpt lat="48.72076" lon="-0.61119">
        <ele>238.19999694824</ele>
        <time>2014-01-09T14:39:17.000Z</time>
      </trkpt>
      <trkpt lat="48.72078" lon="-0.61116">
        <ele>238</ele>
        <time>2014-01-09T14:39:18.000Z</time>
      </trkpt>
      <trkpt lat="48.72094" lon="-0.61096">
        <ele>236.60000610352</ele>
        <time>2014-01-09T14:39:25.000Z</time>
      </trkpt>
      <trkpt lat="48.72105" lon="-0.61083">
        <ele>235.39999389648</ele>
        <time>2014-01-09T14:39:30.000Z</time>
      </trkpt>
      <trkpt lat="48.72119" lon="-0.6107">
        <ele>234.60000610352</ele>
        <time>2014-01-09T14:39:36.000Z</time>
      </trkpt>
      <trkpt lat="48.72124" lon="-0.61065">
        <ele>234.19999694824</ele>
        <time>2014-01-09T14:39:38.000Z</time>
      </trkpt>
      <trkpt lat="48.72132" lon="-0.61058">
        <ele>233.80000305176</ele>
        <time>2014-01-09T14:39:42.000Z</time>
      </trkpt>
      <trkpt lat="48.72133" lon="-0.61056">
        <ele>233.60000610352</ele>
        <time>2014-01-09T14:39:47.000Z</time>
      </trkpt>
      <trkpt lat="48.72133" lon="-0.61056">
        <ele>233.60000610352</ele>
        <time>2014-01-09T14:40:02.000Z</time>
      </trkpt>
      <trkpt lat="48.72138" lon="-0.61049">
        <ele>233.19999694824</ele>
        <time>2014-01-09T14:40:14.000Z</time>
      </trkpt>
      <trkpt lat="48.72139" lon="-0.61039">
        <ele>232.80000305176</ele>
        <time>2014-01-09T14:40:17.000Z</time>
      </trkpt>
      <trkpt lat="48.72139" lon="-0.61032">
        <ele>232.60000610352</ele>
        <time>2014-01-09T14:40:19.000Z</time>
      </trkpt>
      <trkpt lat="48.72138" lon="-0.6102">
        <ele>232.19999694824</ele>
        <time>2014-01-09T14:40:22.000Z</time>
      </trkpt>
      <trkpt lat="48.72136" lon="-0.61008">
        <ele>231.80000305176</ele>
        <time>2014-01-09T14:40:25.000Z</time>
      </trkpt>
      <trkpt lat="48.72132" lon="-0.60985">
        <ele>230.80000305176</ele>
        <time>2014-01-09T14:40:30.000Z</time>
      </trkpt>
      <trkpt lat="48.72126" lon="-0.6096">
        <ele>229.80000305176</ele>
        <time>2014-01-09T14:40:36.000Z</time>
      </trkpt>
      <trkpt lat="48.72125" lon="-0.60952">
        <ele>229.60000610352</ele>
        <time>2014-01-09T14:40:38.000Z</time>
      </trkpt>
      <trkpt lat="48.72122" lon="-0.60943">
        <ele>229.19999694824</ele>
        <time>2014-01-09T14:40:42.000Z</time>
      </trkpt>
      <trkpt lat="48.72121" lon="-0.60942">
        <ele>229.19999694824</ele>
        <time>2014-01-09T14:40:43.000Z</time>
      </trkpt>
      <trkpt lat="48.72119" lon="-0.60936">
        <ele>229</ele>
        <time>2014-01-09T14:40:47.000Z</time>
      </trkpt>
      <trkpt lat="48.72117" lon="-0.60938">
        <ele>229</ele>
        <time>2014-01-09T14:40:49.000Z</time>
      </trkpt>
      <trkpt lat="48.72117" lon="-0.60939">
        <ele>229</ele>
        <time>2014-01-09T14:40:53.000Z</time>
      </trkpt>
      <trkpt lat="48.72117" lon="-0.60939">
        <ele>229</ele>
        <time>2014-01-09T14:40:54.000Z</time>
      </trkpt>
      <trkpt lat="48.72116" lon="-0.60939">
        <ele>229.19999694824</ele>
        <time>2014-01-09T14:41:01.000Z</time>
      </trkpt>
      <trkpt lat="48.72113" lon="-0.60939">
        <ele>229.19999694824</ele>
        <time>2014-01-09T14:41:04.000Z</time>
      </trkpt>
      <trkpt lat="48.72107" lon="-0.60938">
        <ele>229.19999694824</ele>
        <time>2014-01-09T14:41:08.000Z</time>
      </trkpt>
      <trkpt lat="48.72103" lon="-0.60939">
        <ele>229.39999389648</ele>
        <time>2014-01-09T14:41:10.000Z</time>
      </trkpt>
      <trkpt lat="48.72096" lon="-0.60939">
        <ele>229.60000610352</ele>
        <time>2014-01-09T14:41:14.000Z</time>
      </trkpt>
      <trkpt lat="48.72094" lon="-0.60939">
        <ele>229.60000610352</ele>
        <time>2014-01-09T14:41:15.000Z</time>
      </trkpt>
      <trkpt lat="48.72091" lon="-0.60939">
        <ele>229.60000610352</ele>
        <time>2014-01-09T14:41:17.000Z</time>
      </trkpt>
      <trkpt lat="48.72081" lon="-0.60937">
        <ele>229.80000305176</ele>
        <time>2014-01-09T14:41:22.000Z</time>
      </trkpt>
      <trkpt lat="48.72068" lon="-0.60934">
        <ele>229.80000305176</ele>
        <time>2014-01-09T14:41:27.000Z</time>
      </trkpt>
      <trkpt lat="48.72065" lon="-0.60934">
        <ele>229.80000305176</ele>
        <time>2014-01-09T14:41:28.000Z</time>
      </trkpt>
      <trkpt lat="48.72046" lon="-0.6093">
        <ele>230</ele>
        <time>2014-01-09T14:41:35.000Z</time>
      </trkpt>
      <trkpt lat="48.72022" lon="-0.60925">
        <ele>230</ele>
        <time>2014-01-09T14:41:43.000Z</time>
      </trkpt>
      <trkpt lat="48.72004" lon="-0.60919">
        <ele>230</ele>
        <time>2014-01-09T14:41:48.000Z</time>
      </trkpt>
      <trkpt lat="48.71992" lon="-0.60915">
        <ele>230</ele>
        <time>2014-01-09T14:41:51.000Z</time>
      </trkpt>
      <trkpt lat="48.71972" lon="-0.60909">
        <ele>229.80000305176</ele>
        <time>2014-01-09T14:41:55.000Z</time>
      </trkpt>
      <trkpt lat="48.71956" lon="-0.60906">
        <ele>229.80000305176</ele>
        <time>2014-01-09T14:41:58.000Z</time>
      </trkpt>
      <trkpt lat="48.71951" lon="-0.60905">
        <ele>229.80000305176</ele>
        <time>2014-01-09T14:41:59.000Z</time>
      </trkpt>
      <trkpt lat="48.71923" lon="-0.609">
        <ele>229.60000610352</ele>
        <time>2014-01-09T14:42:04.000Z</time>
      </trkpt>
      <trkpt lat="48.71906" lon="-0.60897">
        <ele>229.60000610352</ele>
        <time>2014-01-09T14:42:07.000Z</time>
      </trkpt>
      <trkpt lat="48.71901" lon="-0.60897">
        <ele>229.60000610352</ele>
        <time>2014-01-09T14:42:08.000Z</time>
      </trkpt>
      <trkpt lat="48.71882" lon="-0.60894">
        <ele>229.60000610352</ele>
        <time>2014-01-09T14:42:12.000Z</time>
      </trkpt>
      <trkpt lat="48.71878" lon="-0.60894">
        <ele>229.80000305176</ele>
        <time>2014-01-09T14:42:13.000Z</time>
      </trkpt>
      <trkpt lat="48.71866" lon="-0.60882">
        <ele>229.60000610352</ele>
        <time>2014-01-09T14:42:17.000Z</time>
      </trkpt>
      <trkpt lat="48.71863" lon="-0.60859">
        <ele>229.60000610352</ele>
        <time>2014-01-09T14:42:21.000Z</time>
      </trkpt>
      <trkpt lat="48.71864" lon="-0.60838">
        <ele>229.39999389648</ele>
        <time>2014-01-09T14:42:25.000Z</time>
      </trkpt>
      <trkpt lat="48.71865" lon="-0.60823">
        <ele>229.19999694824</ele>
        <time>2014-01-09T14:42:28.000Z</time>
      </trkpt>
      <trkpt lat="48.71865" lon="-0.60814">
        <ele>229.19999694824</ele>
        <time>2014-01-09T14:42:30.000Z</time>
      </trkpt>
      <trkpt lat="48.71863" lon="-0.60788">
        <ele>229.39999389648</ele>
        <time>2014-01-09T14:42:36.000Z</time>
      </trkpt>
      <trkpt lat="48.71862" lon="-0.60785">
        <ele>229.60000610352</ele>
        <time>2014-01-09T14:42:37.000Z</time>
      </trkpt>
      <trkpt lat="48.71857" lon="-0.60765">
        <ele>229.80000305176</ele>
        <time>2014-01-09T14:42:42.000Z</time>
      </trkpt>
      <trkpt lat="48.71856" lon="-0.60761">
        <ele>229.80000305176</ele>
        <time>2014-01-09T14:42:43.000Z</time>
      </trkpt>
      <trkpt lat="48.71854" lon="-0.60742">
        <ele>229.80000305176</ele>
        <time>2014-01-09T14:42:48.000Z</time>
      </trkpt>
      <trkpt lat="48.71854" lon="-0.60739">
        <ele>229.80000305176</ele>
        <time>2014-01-09T14:42:49.000Z</time>
      </trkpt>
      <trkpt lat="48.71857" lon="-0.60718">
        <ele>229</ele>
        <time>2014-01-09T14:42:55.000Z</time>
      </trkpt>
      <trkpt lat="48.7186" lon="-0.60703">
        <ele>228.39999389648</ele>
        <time>2014-01-09T14:43:01.000Z</time>
      </trkpt>
      <trkpt lat="48.71854" lon="-0.60689">
        <ele>228.39999389648</ele>
        <time>2014-01-09T14:43:06.000Z</time>
      </trkpt>
      <trkpt lat="48.71841" lon="-0.60667">
        <ele>228.60000610352</ele>
        <time>2014-01-09T14:43:13.000Z</time>
      </trkpt>
      <trkpt lat="48.71828" lon="-0.60652">
        <ele>228.39999389648</ele>
        <time>2014-01-09T14:43:20.000Z</time>
      </trkpt>
      <trkpt lat="48.71822" lon="-0.60638">
        <ele>228</ele>
        <time>2014-01-09T14:43:26.000Z</time>
      </trkpt>
      <trkpt lat="48.71817" lon="-0.60622">
        <ele>227.39999389648</ele>
        <time>2014-01-09T14:43:32.000Z</time>
      </trkpt>
      <trkpt lat="48.71815" lon="-0.6062">
        <ele>227.39999389648</ele>
        <time>2014-01-09T14:43:33.000Z</time>
      </trkpt>
      <trkpt lat="48.71801" lon="-0.60616">
        <ele>227.60000610352</ele>
        <time>2014-01-09T14:43:38.000Z</time>
      </trkpt>
      <trkpt lat="48.71782" lon="-0.60618">
        <ele>228.19999694824</ele>
        <time>2014-01-09T14:43:45.000Z</time>
      </trkpt>
      <trkpt lat="48.71768" lon="-0.60622">
        <ele>228.80000305176</ele>
        <time>2014-01-09T14:43:51.000Z</time>
      </trkpt>
      <trkpt lat="48.71766" lon="-0.60621">
        <ele>228.80000305176</ele>
        <time>2014-01-09T14:43:52.000Z</time>
      </trkpt>
      <trkpt lat="48.71764" lon="-0.60619">
        <ele>228.80000305176</ele>
        <time>2014-01-09T14:43:53.000Z</time>
      </trkpt>
      <trkpt lat="48.71761" lon="-0.60613">
        <ele>228.80000305176</ele>
        <time>2014-01-09T14:43:55.000Z</time>
      </trkpt>
      <trkpt lat="48.71759" lon="-0.60605">
        <ele>228.60000610352</ele>
        <time>2014-01-09T14:43:58.000Z</time>
      </trkpt>
      <trkpt lat="48.71758" lon="-0.606">
        <ele>228.39999389648</ele>
        <time>2014-01-09T14:44:00.000Z</time>
      </trkpt>
      <trkpt lat="48.71754" lon="-0.6058">
        <ele>227.80000305176</ele>
        <time>2014-01-09T14:44:06.000Z</time>
      </trkpt>
      <trkpt lat="48.71754" lon="-0.60577">
        <ele>227.60000610352</ele>
        <time>2014-01-09T14:44:07.000Z</time>
      </trkpt>
      <trkpt lat="48.71753" lon="-0.60565">
        <ele>227.39999389648</ele>
        <time>2014-01-09T14:44:11.000Z</time>
      </trkpt>
      <trkpt lat="48.71752" lon="-0.60563">
        <ele>227.39999389648</ele>
        <time>2014-01-09T14:44:12.000Z</time>
      </trkpt>
      <trkpt lat="48.71749" lon="-0.60553">
        <ele>227.39999389648</ele>
        <time>2014-01-09T14:44:17.000Z</time>
      </trkpt>
      <trkpt lat="48.71745" lon="-0.6055">
        <ele>227.39999389648</ele>
        <time>2014-01-09T14:44:20.000Z</time>
      </trkpt>
      <trkpt lat="48.71738" lon="-0.60544">
        <ele>227.60000610352</ele>
        <time>2014-01-09T14:44:25.000Z</time>
      </trkpt>
      <trkpt lat="48.71727" lon="-0.60535">
        <ele>227.80000305176</ele>
        <time>2014-01-09T14:44:33.000Z</time>
      </trkpt>
      <trkpt lat="48.71725" lon="-0.60532">
        <ele>227.80000305176</ele>
        <time>2014-01-09T14:44:38.000Z</time>
      </trkpt>
      <trkpt lat="48.71724" lon="-0.60531">
        <ele>228</ele>
        <time>2014-01-09T14:44:42.000Z</time>
      </trkpt>
      <trkpt lat="48.71718" lon="-0.60528">
        <ele>228.19999694824</ele>
        <time>2014-01-09T14:44:44.000Z</time>
      </trkpt>
      <trkpt lat="48.71708" lon="-0.60522">
        <ele>228.39999389648</ele>
        <time>2014-01-09T14:44:48.000Z</time>
      </trkpt>
      <trkpt lat="48.71704" lon="-0.60519">
        <ele>228.60000610352</ele>
        <time>2014-01-09T14:44:50.000Z</time>
      </trkpt>
      <trkpt lat="48.71692" lon="-0.60508">
        <ele>229</ele>
        <time>2014-01-09T14:44:56.000Z</time>
      </trkpt>
      <trkpt lat="48.71674" lon="-0.60499">
        <ele>229.60000610352</ele>
        <time>2014-01-09T14:45:02.000Z</time>
      </trkpt>
      <trkpt lat="48.71658" lon="-0.60487">
        <ele>230.39999389648</ele>
        <time>2014-01-09T14:45:08.000Z</time>
      </trkpt>
      <trkpt lat="48.71654" lon="-0.60481">
        <ele>230.39999389648</ele>
        <time>2014-01-09T14:45:10.000Z</time>
      </trkpt>
      <trkpt lat="48.71636" lon="-0.6046">
        <ele>231</ele>
        <time>2014-01-09T14:45:18.000Z</time>
      </trkpt>
      <trkpt lat="48.71621" lon="-0.60436">
        <ele>231.19999694824</ele>
        <time>2014-01-09T14:45:25.000Z</time>
      </trkpt>
      <trkpt lat="48.7161" lon="-0.60413">
        <ele>231</ele>
        <time>2014-01-09T14:45:32.000Z</time>
      </trkpt>
      <trkpt lat="48.71608" lon="-0.60409">
        <ele>231</ele>
        <time>2014-01-09T14:45:33.000Z</time>
      </trkpt>
      <trkpt lat="48.71598" lon="-0.60384">
        <ele>230.60000610352</ele>
        <time>2014-01-09T14:45:40.000Z</time>
      </trkpt>
      <trkpt lat="48.71592" lon="-0.60369">
        <ele>230.19999694824</ele>
        <time>2014-01-09T14:45:46.000Z</time>
      </trkpt>
      <trkpt lat="48.71584" lon="-0.60349">
        <ele>229.60000610352</ele>
        <time>2014-01-09T14:45:53.000Z</time>
      </trkpt>
      <trkpt lat="48.71584" lon="-0.6034">
        <ele>229.19999694824</ele>
        <time>2014-01-09T14:45:57.000Z</time>
      </trkpt>
      <trkpt lat="48.71584" lon="-0.60339">
        <ele>229.19999694824</ele>
        <time>2014-01-09T14:45:58.000Z</time>
      </trkpt>
      <trkpt lat="48.71593" lon="-0.60329">
        <ele>229.19999694824</ele>
        <time>2014-01-09T14:46:06.000Z</time>
      </trkpt>
      <trkpt lat="48.7161" lon="-0.60324">
        <ele>229.60000610352</ele>
        <time>2014-01-09T14:46:13.000Z</time>
      </trkpt>
      <trkpt lat="48.71623" lon="-0.60317">
        <ele>230</ele>
        <time>2014-01-09T14:46:19.000Z</time>
      </trkpt>
      <trkpt lat="48.7163" lon="-0.60308">
        <ele>230.60000610352</ele>
        <time>2014-01-09T14:46:24.000Z</time>
      </trkpt>
      <trkpt lat="48.7164" lon="-0.60307">
        <ele>230.80000305176</ele>
        <time>2014-01-09T14:46:30.000Z</time>
      </trkpt>
      <trkpt lat="48.71651" lon="-0.60304">
        <ele>231</ele>
        <time>2014-01-09T14:46:36.000Z</time>
      </trkpt>
      <trkpt lat="48.71657" lon="-0.60302">
        <ele>231.39999389648</ele>
        <time>2014-01-09T14:46:39.000Z</time>
      </trkpt>
      <trkpt lat="48.71667" lon="-0.60298">
        <ele>231.60000610352</ele>
        <time>2014-01-09T14:46:44.000Z</time>
      </trkpt>
      <trkpt lat="48.71671" lon="-0.60297">
        <ele>231.80000305176</ele>
        <time>2014-01-09T14:46:46.000Z</time>
      </trkpt>
      <trkpt lat="48.71675" lon="-0.60296">
        <ele>232</ele>
        <time>2014-01-09T14:46:49.000Z</time>
      </trkpt>
      <trkpt lat="48.7168" lon="-0.60294">
        <ele>232.19999694824</ele>
        <time>2014-01-09T14:46:52.000Z</time>
      </trkpt>
      <trkpt lat="48.71694" lon="-0.60286">
        <ele>232.80000305176</ele>
        <time>2014-01-09T14:47:00.000Z</time>
      </trkpt>
      <trkpt lat="48.71701" lon="-0.60283">
        <ele>233</ele>
        <time>2014-01-09T14:47:04.000Z</time>
      </trkpt>
      <trkpt lat="48.71706" lon="-0.6028">
        <ele>233.39999389648</ele>
        <time>2014-01-09T14:47:07.000Z</time>
      </trkpt>
      <trkpt lat="48.71717" lon="-0.60271">
        <ele>234</ele>
        <time>2014-01-09T14:47:13.000Z</time>
      </trkpt>
      <trkpt lat="48.71719" lon="-0.60269">
        <ele>234.19999694824</ele>
        <time>2014-01-09T14:47:14.000Z</time>
      </trkpt>
      <trkpt lat="48.71733" lon="-0.60259">
        <ele>235</ele>
        <time>2014-01-09T14:47:20.000Z</time>
      </trkpt>
      <trkpt lat="48.71747" lon="-0.60252">
        <ele>235.80000305176</ele>
        <time>2014-01-09T14:47:26.000Z</time>
      </trkpt>
      <trkpt lat="48.71764" lon="-0.60241">
        <ele>235.80000305176</ele>
        <time>2014-01-09T14:47:34.000Z</time>
      </trkpt>
      <trkpt lat="48.71779" lon="-0.60229">
        <ele>235.39999389648</ele>
        <time>2014-01-09T14:47:41.000Z</time>
      </trkpt>
      <trkpt lat="48.71789" lon="-0.60221">
        <ele>235.19999694824</ele>
        <time>2014-01-09T14:47:46.000Z</time>
      </trkpt>
      <trkpt lat="48.71793" lon="-0.60219">
        <ele>235.19999694824</ele>
        <time>2014-01-09T14:47:48.000Z</time>
      </trkpt>
      <trkpt lat="48.71804" lon="-0.60212">
        <ele>234.80000305176</ele>
        <time>2014-01-09T14:47:54.000Z</time>
      </trkpt>
      <trkpt lat="48.71805" lon="-0.6021">
        <ele>234.80000305176</ele>
        <time>2014-01-09T14:47:55.000Z</time>
      </trkpt>
      <trkpt lat="48.71812" lon="-0.60205">
        <ele>234.60000610352</ele>
        <time>2014-01-09T14:48:00.000Z</time>
      </trkpt>
      <trkpt lat="48.71823" lon="-0.60189">
        <ele>234.39999389648</ele>
        <time>2014-01-09T14:48:07.000Z</time>
      </trkpt>
      <trkpt lat="48.71834" lon="-0.60168">
        <ele>234</ele>
        <time>2014-01-09T14:48:15.000Z</time>
      </trkpt>
      <trkpt lat="48.71839" lon="-0.60159">
        <ele>233.80000305176</ele>
        <time>2014-01-09T14:48:18.000Z</time>
      </trkpt>
      <trkpt lat="48.71848" lon="-0.60143">
        <ele>233.60000610352</ele>
        <time>2014-01-09T14:48:23.000Z</time>
      </trkpt>
      <trkpt lat="48.71862" lon="-0.60127">
        <ele>233.19999694824</ele>
        <time>2014-01-09T14:48:29.000Z</time>
      </trkpt>
      <trkpt lat="48.71875" lon="-0.60116">
        <ele>232.60000610352</ele>
        <time>2014-01-09T14:48:35.000Z</time>
      </trkpt>
      <trkpt lat="48.71877" lon="-0.60115">
        <ele>232.39999389648</ele>
        <time>2014-01-09T14:48:36.000Z</time>
      </trkpt>
      <trkpt lat="48.71891" lon="-0.60105">
        <ele>231.60000610352</ele>
        <time>2014-01-09T14:48:42.000Z</time>
      </trkpt>
      <trkpt lat="48.71909" lon="-0.60093">
        <ele>230.60000610352</ele>
        <time>2014-01-09T14:48:51.000Z</time>
      </trkpt>
      <trkpt lat="48.71911" lon="-0.60092">
        <ele>230.39999389648</ele>
        <time>2014-01-09T14:48:52.000Z</time>
      </trkpt>
      <trkpt lat="48.71918" lon="-0.6009">
        <ele>230</ele>
        <time>2014-01-09T14:48:57.000Z</time>
      </trkpt>
      <trkpt lat="48.71922" lon="-0.6009">
        <ele>230</ele>
        <time>2014-01-09T14:48:59.000Z</time>
      </trkpt>
      <trkpt lat="48.71924" lon="-0.60097">
        <ele>230</ele>
        <time>2014-01-09T14:49:02.000Z</time>
      </trkpt>
      <trkpt lat="48.71924" lon="-0.60096">
        <ele>230</ele>
        <time>2014-01-09T14:49:05.000Z</time>
      </trkpt>
      <trkpt lat="48.71924" lon="-0.60096">
        <ele>230</ele>
        <time>2014-01-09T14:49:16.000Z</time>
      </trkpt>
      <trkpt lat="48.71924" lon="-0.60096">
        <ele>230</ele>
        <time>2014-01-09T14:49:17.000Z</time>
      </trkpt>
      <trkpt lat="48.71924" lon="-0.60096">
        <ele>230</ele>
        <time>2014-01-09T14:49:29.000Z</time>
      </trkpt>
      <trkpt lat="48.71924" lon="-0.60096">
        <ele>230</ele>
        <time>2014-01-09T14:49:41.000Z</time>
      </trkpt>
      <trkpt lat="48.71924" lon="-0.60097">
        <ele>230</ele>
        <time>2014-01-09T14:49:56.000Z</time>
      </trkpt>
      <trkpt lat="48.71923" lon="-0.60102">
        <ele>230</ele>
        <time>2014-01-09T14:49:58.000Z</time>
      </trkpt>
      <trkpt lat="48.71924" lon="-0.60106">
        <ele>230.19999694824</ele>
        <time>2014-01-09T14:49:59.000Z</time>
      </trkpt>
      <trkpt lat="48.71925" lon="-0.60114">
        <ele>230.19999694824</ele>
        <time>2014-01-09T14:50:01.000Z</time>
      </trkpt>
      <trkpt lat="48.71927" lon="-0.60129">
        <ele>230.39999389648</ele>
        <time>2014-01-09T14:50:06.000Z</time>
      </trkpt>
      <trkpt lat="48.71931" lon="-0.60148">
        <ele>230.60000610352</ele>
        <time>2014-01-09T14:50:12.000Z</time>
      </trkpt>
      <trkpt lat="48.71937" lon="-0.60175">
        <ele>230.80000305176</ele>
        <time>2014-01-09T14:50:18.000Z</time>
      </trkpt>
      <trkpt lat="48.71944" lon="-0.60206">
        <ele>230.60000610352</ele>
        <time>2014-01-09T14:50:25.000Z</time>
      </trkpt>
      <trkpt lat="48.71945" lon="-0.60211">
        <ele>230.60000610352</ele>
        <time>2014-01-09T14:50:26.000Z</time>
      </trkpt>
      <trkpt lat="48.71951" lon="-0.60237">
        <ele>230.60000610352</ele>
        <time>2014-01-09T14:50:30.000Z</time>
      </trkpt>
      <trkpt lat="48.71952" lon="-0.60244">
        <ele>230.60000610352</ele>
        <time>2014-01-09T14:50:31.000Z</time>
      </trkpt>
      <trkpt lat="48.71963" lon="-0.60296">
        <ele>228.19999694824</ele>
        <time>2014-01-09T14:50:38.000Z</time>
      </trkpt>
      <trkpt lat="48.71969" lon="-0.60326">
        <ele>226.80000305176</ele>
        <time>2014-01-09T14:50:42.000Z</time>
      </trkpt>
      <trkpt lat="48.71972" lon="-0.60342">
        <ele>225.80000305176</ele>
        <time>2014-01-09T14:50:44.000Z</time>
      </trkpt>
      <trkpt lat="48.71977" lon="-0.60383">
        <ele>223.39999389648</ele>
        <time>2014-01-09T14:50:49.000Z</time>
      </trkpt>
      <trkpt lat="48.71978" lon="-0.60392">
        <ele>222.80000305176</ele>
        <time>2014-01-09T14:50:50.000Z</time>
      </trkpt>
      <trkpt lat="48.71979" lon="-0.60402">
        <ele>222.19999694824</ele>
        <time>2014-01-09T14:50:51.000Z</time>
      </trkpt>
      <trkpt lat="48.71984" lon="-0.60432">
        <ele>221.19999694824</ele>
        <time>2014-01-09T14:50:54.000Z</time>
      </trkpt>
      <trkpt lat="48.71987" lon="-0.60443">
        <ele>221.19999694824</ele>
        <time>2014-01-09T14:50:55.000Z</time>
      </trkpt>
      <trkpt lat="48.7199" lon="-0.60453">
        <ele>221.19999694824</ele>
        <time>2014-01-09T14:50:56.000Z</time>
      </trkpt>
      <trkpt lat="48.72006" lon="-0.60477">
        <ele>221</ele>
        <time>2014-01-09T14:50:59.000Z</time>
      </trkpt>
      <trkpt lat="48.72031" lon="-0.60498">
        <ele>221</ele>
        <time>2014-01-09T14:51:03.000Z</time>
      </trkpt>
      <trkpt lat="48.72037" lon="-0.60502">
        <ele>221</ele>
        <time>2014-01-09T14:51:04.000Z</time>
      </trkpt>
      <trkpt lat="48.72055" lon="-0.60513">
        <ele>221.39999389648</ele>
        <time>2014-01-09T14:51:08.000Z</time>
      </trkpt>
      <trkpt lat="48.72069" lon="-0.60526">
        <ele>221.80000305176</ele>
        <time>2014-01-09T14:51:13.000Z</time>
      </trkpt>
      <trkpt lat="48.72082" lon="-0.60546">
        <ele>222.60000610352</ele>
        <time>2014-01-09T14:51:19.000Z</time>
      </trkpt>
      <trkpt lat="48.72084" lon="-0.60549">
        <ele>222.80000305176</ele>
        <time>2014-01-09T14:51:20.000Z</time>
      </trkpt>
      <trkpt lat="48.72092" lon="-0.60568">
        <ele>223.39999389648</ele>
        <time>2014-01-09T14:51:25.000Z</time>
      </trkpt>
      <trkpt lat="48.72105" lon="-0.60599">
        <ele>224.39999389648</ele>
        <time>2014-01-09T14:51:33.000Z</time>
      </trkpt>
      <trkpt lat="48.72109" lon="-0.60612">
        <ele>224.60000610352</ele>
        <time>2014-01-09T14:51:36.000Z</time>
      </trkpt>
      <trkpt lat="48.72113" lon="-0.60634">
        <ele>225</ele>
        <time>2014-01-09T14:51:41.000Z</time>
      </trkpt>
      <trkpt lat="48.72115" lon="-0.60668">
        <ele>225.60000610352</ele>
        <time>2014-01-09T14:51:48.000Z</time>
      </trkpt>
      <trkpt lat="48.72115" lon="-0.60697">
        <ele>226.39999389648</ele>
        <time>2014-01-09T14:51:54.000Z</time>
      </trkpt>
      <trkpt lat="48.72117" lon="-0.60712">
        <ele>226.60000610352</ele>
        <time>2014-01-09T14:51:57.000Z</time>
      </trkpt>
      <trkpt lat="48.72118" lon="-0.60751">
        <ele>227.60000610352</ele>
        <time>2014-01-09T14:52:05.000Z</time>
      </trkpt>
      <trkpt lat="48.72119" lon="-0.60761">
        <ele>227.60000610352</ele>
        <time>2014-01-09T14:52:07.000Z</time>
      </trkpt>
      <trkpt lat="48.72123" lon="-0.608">
        <ele>227.80000305176</ele>
        <time>2014-01-09T14:52:15.000Z</time>
      </trkpt>
      <trkpt lat="48.72125" lon="-0.60857">
        <ele>228</ele>
        <time>2014-01-09T14:52:23.000Z</time>
      </trkpt>
      <trkpt lat="48.72125" lon="-0.60889">
        <ele>228</ele>
        <time>2014-01-09T14:52:34.000Z</time>
      </trkpt>
      <trkpt lat="48.72125" lon="-0.60904">
        <ele>228</ele>
        <time>2014-01-09T14:52:37.000Z</time>
      </trkpt>
      <trkpt lat="48.72128" lon="-0.60954">
        <ele>229.60000610352</ele>
        <time>2014-01-09T14:52:47.000Z</time>
      </trkpt>
      <trkpt lat="48.7213" lon="-0.60968">
        <ele>230</ele>
        <time>2014-01-09T14:52:50.000Z</time>
      </trkpt>
      <trkpt lat="48.72138" lon="-0.61003">
        <ele>231.39999389648</ele>
        <time>2014-01-09T14:52:58.000Z</time>
      </trkpt>
      <trkpt lat="48.7214" lon="-0.61021">
        <ele>232.19999694824</ele>
        <time>2014-01-09T14:53:02.000Z</time>
      </trkpt>
      <trkpt lat="48.72143" lon="-0.61048">
        <ele>233.19999694824</ele>
        <time>2014-01-09T14:53:08.000Z</time>
      </trkpt>
      <trkpt lat="48.72145" lon="-0.61062">
        <ele>233.80000305176</ele>
        <time>2014-01-09T14:53:11.000Z</time>
      </trkpt>
      <trkpt lat="48.72147" lon="-0.61076">
        <ele>234.19999694824</ele>
        <time>2014-01-09T14:53:14.000Z</time>
      </trkpt>
      <trkpt lat="48.72157" lon="-0.61106">
        <ele>235.19999694824</ele>
        <time>2014-01-09T14:53:21.000Z</time>
      </trkpt>
      <trkpt lat="48.72158" lon="-0.6111">
        <ele>235.19999694824</ele>
        <time>2014-01-09T14:53:22.000Z</time>
      </trkpt>
      <trkpt lat="48.72171" lon="-0.61146">
        <ele>236</ele>
        <time>2014-01-09T14:53:31.000Z</time>
      </trkpt>
      <trkpt lat="48.72173" lon="-0.61153">
        <ele>236.19999694824</ele>
        <time>2014-01-09T14:53:33.000Z</time>
      </trkpt>
      <trkpt lat="48.72178" lon="-0.61167">
        <ele>236.39999389648</ele>
        <time>2014-01-09T14:53:38.000Z</time>
      </trkpt>
      <trkpt lat="48.72187" lon="-0.61193">
        <ele>236.60000610352</ele>
        <time>2014-01-09T14:53:45.000Z</time>
      </trkpt>
      <trkpt lat="48.72189" lon="-0.612">
        <ele>236.60000610352</ele>
        <time>2014-01-09T14:53:47.000Z</time>
      </trkpt>
      <trkpt lat="48.72201" lon="-0.61231">
        <ele>236.60000610352</ele>
        <time>2014-01-09T14:53:55.000Z</time>
      </trkpt>
      <trkpt lat="48.72214" lon="-0.61268">
        <ele>236.60000610352</ele>
        <time>2014-01-09T14:54:04.000Z</time>
      </trkpt>
      <trkpt lat="48.72218" lon="-0.6128">
        <ele>236.39999389648</ele>
        <time>2014-01-09T14:54:07.000Z</time>
      </trkpt>
      <trkpt lat="48.72226" lon="-0.61305">
        <ele>236.60000610352</ele>
        <time>2014-01-09T14:54:13.000Z</time>
      </trkpt>
      <trkpt lat="48.72239" lon="-0.61338">
        <ele>236.60000610352</ele>
        <time>2014-01-09T14:54:21.000Z</time>
      </trkpt>
      <trkpt lat="48.72256" lon="-0.6138">
        <ele>237.39999389648</ele>
        <time>2014-01-09T14:54:31.000Z</time>
      </trkpt>
      <trkpt lat="48.72266" lon="-0.61408">
        <ele>237.80000305176</ele>
        <time>2014-01-09T14:54:38.000Z</time>
      </trkpt>
      <trkpt lat="48.72276" lon="-0.61441">
        <ele>238</ele>
        <time>2014-01-09T14:54:47.000Z</time>
      </trkpt>
      <trkpt lat="48.72289" lon="-0.61483">
        <ele>238.19999694824</ele>
        <time>2014-01-09T14:54:57.000Z</time>
      </trkpt>
      <trkpt lat="48.72301" lon="-0.61528">
        <ele>238.60000610352</ele>
        <time>2014-01-09T14:55:07.000Z</time>
      </trkpt>
      <trkpt lat="48.72312" lon="-0.61567">
        <ele>239</ele>
        <time>2014-01-09T14:55:16.000Z</time>
      </trkpt>
      <trkpt lat="48.7232" lon="-0.61592">
        <ele>238.80000305176</ele>
        <time>2014-01-09T14:55:22.000Z</time>
      </trkpt>
      <trkpt lat="48.72322" lon="-0.61601">
        <ele>238.80000305176</ele>
        <time>2014-01-09T14:55:24.000Z</time>
      </trkpt>
      <trkpt lat="48.72325" lon="-0.61611">
        <ele>238.80000305176</ele>
        <time>2014-01-09T14:55:26.000Z</time>
      </trkpt>
      <trkpt lat="48.7233" lon="-0.6163">
        <ele>238.60000610352</ele>
        <time>2014-01-09T14:55:30.000Z</time>
      </trkpt>
      <trkpt lat="48.72335" lon="-0.61643">
        <ele>238.60000610352</ele>
        <time>2014-01-09T14:55:33.000Z</time>
      </trkpt>
      <trkpt lat="48.72349" lon="-0.61683">
        <ele>238.19999694824</ele>
        <time>2014-01-09T14:55:42.000Z</time>
      </trkpt>
      <trkpt lat="48.72357" lon="-0.61703">
        <ele>238</ele>
        <time>2014-01-09T14:55:47.000Z</time>
      </trkpt>
      <trkpt lat="48.72362" lon="-0.61718">
        <ele>238</ele>
        <time>2014-01-09T14:55:52.000Z</time>
      </trkpt>
      <trkpt lat="48.72363" lon="-0.6172">
        <ele>237.80000305176</ele>
        <time>2014-01-09T14:55:53.000Z</time>
      </trkpt>
      <trkpt lat="48.72367" lon="-0.61729">
        <ele>238</ele>
        <time>2014-01-09T14:55:57.000Z</time>
      </trkpt>
      <trkpt lat="48.72365" lon="-0.61733">
        <ele>238</ele>
        <time>2014-01-09T14:56:01.000Z</time>
      </trkpt>
      <trkpt lat="48.72365" lon="-0.61733">
        <ele>238</ele>
        <time>2014-01-09T14:56:14.000Z</time>
      </trkpt>
      <trkpt lat="48.72362" lon="-0.61737">
        <ele>238.19999694824</ele>
        <time>2014-01-09T14:56:19.000Z</time>
      </trkpt>
      <trkpt lat="48.72353" lon="-0.61749">
        <ele>238.60000610352</ele>
        <time>2014-01-09T14:56:23.000Z</time>
      </trkpt>
      <trkpt lat="48.7235" lon="-0.61753">
        <ele>238.60000610352</ele>
        <time>2014-01-09T14:56:24.000Z</time>
      </trkpt>
      <trkpt lat="48.72337" lon="-0.61775">
        <ele>239.19999694824</ele>
        <time>2014-01-09T14:56:29.000Z</time>
      </trkpt>
      <trkpt lat="48.72334" lon="-0.6178">
        <ele>239.39999389648</ele>
        <time>2014-01-09T14:56:30.000Z</time>
      </trkpt>
      <trkpt lat="48.72331" lon="-0.61785">
        <ele>239.39999389648</ele>
        <time>2014-01-09T14:56:31.000Z</time>
      </trkpt>
      <trkpt lat="48.72302" lon="-0.61832">
        <ele>239.19999694824</ele>
        <time>2014-01-09T14:56:41.000Z</time>
      </trkpt>
      <trkpt lat="48.72296" lon="-0.61846">
        <ele>238.80000305176</ele>
        <time>2014-01-09T14:56:44.000Z</time>
      </trkpt>
      <trkpt lat="48.72294" lon="-0.61855">
        <ele>238.39999389648</ele>
        <time>2014-01-09T14:56:46.000Z</time>
      </trkpt>
      <trkpt lat="48.72292" lon="-0.61859">
        <ele>238.19999694824</ele>
        <time>2014-01-09T14:56:47.000Z</time>
      </trkpt>
      <trkpt lat="48.72289" lon="-0.61867">
        <ele>237.80000305176</ele>
        <time>2014-01-09T14:56:49.000Z</time>
      </trkpt>
      <trkpt lat="48.72286" lon="-0.61876">
        <ele>237.39999389648</ele>
        <time>2014-01-09T14:56:51.000Z</time>
      </trkpt>
      <trkpt lat="48.72283" lon="-0.61884">
        <ele>237</ele>
        <time>2014-01-09T14:56:53.000Z</time>
      </trkpt>
      <trkpt lat="48.7228" lon="-0.61892">
        <ele>236.39999389648</ele>
        <time>2014-01-09T14:56:55.000Z</time>
      </trkpt>
      <trkpt lat="48.72277" lon="-0.619">
        <ele>236</ele>
        <time>2014-01-09T14:56:57.000Z</time>
      </trkpt>
      <trkpt lat="48.72275" lon="-0.61904">
        <ele>235.60000610352</ele>
        <time>2014-01-09T14:56:58.000Z</time>
      </trkpt>
      <trkpt lat="48.72269" lon="-0.61915">
        <ele>234.80000305176</ele>
        <time>2014-01-09T14:57:01.000Z</time>
      </trkpt>
      <trkpt lat="48.72268" lon="-0.61918">
        <ele>234.39999389648</ele>
        <time>2014-01-09T14:57:02.000Z</time>
      </trkpt>
      <trkpt lat="48.72262" lon="-0.61928">
        <ele>233.39999389648</ele>
        <time>2014-01-09T14:57:05.000Z</time>
      </trkpt>
      <trkpt lat="48.72258" lon="-0.61935">
        <ele>232.80000305176</ele>
        <time>2014-01-09T14:57:07.000Z</time>
      </trkpt>
      <trkpt lat="48.72254" lon="-0.61943">
        <ele>232</ele>
        <time>2014-01-09T14:57:09.000Z</time>
      </trkpt>
      <trkpt lat="48.72251" lon="-0.61946">
        <ele>231.80000305176</ele>
        <time>2014-01-09T14:57:10.000Z</time>
      </trkpt>
      <trkpt lat="48.72244" lon="-0.61955">
        <ele>230.60000610352</ele>
        <time>2014-01-09T14:57:13.000Z</time>
      </trkpt>
      <trkpt lat="48.72237" lon="-0.61964">
        <ele>229.60000610352</ele>
        <time>2014-01-09T14:57:16.000Z</time>
      </trkpt>
      <trkpt lat="48.72232" lon="-0.6197">
        <ele>228.80000305176</ele>
        <time>2014-01-09T14:57:18.000Z</time>
      </trkpt>
      <trkpt lat="48.72225" lon="-0.61978">
        <ele>227.80000305176</ele>
        <time>2014-01-09T14:57:21.000Z</time>
      </trkpt>
      <trkpt lat="48.72221" lon="-0.61984">
        <ele>227</ele>
        <time>2014-01-09T14:57:23.000Z</time>
      </trkpt>
      <trkpt lat="48.72212" lon="-0.61993">
        <ele>225.80000305176</ele>
        <time>2014-01-09T14:57:26.000Z</time>
      </trkpt>
      <trkpt lat="48.72206" lon="-0.61998">
        <ele>225</ele>
        <time>2014-01-09T14:57:28.000Z</time>
      </trkpt>
      <trkpt lat="48.72196" lon="-0.62006">
        <ele>223.80000305176</ele>
        <time>2014-01-09T14:57:31.000Z</time>
      </trkpt>
      <trkpt lat="48.72189" lon="-0.62011">
        <ele>223</ele>
        <time>2014-01-09T14:57:35.000Z</time>
      </trkpt>
      <trkpt lat="48.72188" lon="-0.62011">
        <ele>222.80000305176</ele>
        <time>2014-01-09T14:57:36.000Z</time>
      </trkpt>
      <trkpt lat="48.72185" lon="-0.62013">
        <ele>222.60000610352</ele>
        <time>2014-01-09T14:57:43.000Z</time>
      </trkpt>
      <trkpt lat="48.72185" lon="-0.62013">
        <ele>222.60000610352</ele>
        <time>2014-01-09T14:57:51.000Z</time>
      </trkpt>
      <trkpt lat="48.72185" lon="-0.62013">
        <ele>222.60000610352</ele>
        <time>2014-01-09T14:58:02.000Z</time>
      </trkpt>
      <trkpt lat="48.72185" lon="-0.62013">
        <ele>222.60000610352</ele>
        <time>2014-01-09T14:58:11.000Z</time>
      </trkpt>
      <trkpt lat="48.72176" lon="-0.62016">
        <ele>221.80000305176</ele>
        <time>2014-01-09T14:58:19.000Z</time>
      </trkpt>
      <trkpt lat="48.72164" lon="-0.62019">
        <ele>220.80000305176</ele>
        <time>2014-01-09T14:58:24.000Z</time>
      </trkpt>
      <trkpt lat="48.72163" lon="-0.6202">
        <ele>220.80000305176</ele>
        <time>2014-01-09T14:58:25.000Z</time>
      </trkpt>
      <trkpt lat="48.72154" lon="-0.62023">
        <ele>220.60000610352</ele>
        <time>2014-01-09T14:58:30.000Z</time>
      </trkpt>
      <trkpt lat="48.72147" lon="-0.62026">
        <ele>220.60000610352</ele>
        <time>2014-01-09T14:58:36.000Z</time>
      </trkpt>
      <trkpt lat="48.72141" lon="-0.62028">
        <ele>220.60000610352</ele>
        <time>2014-01-09T14:58:42.000Z</time>
      </trkpt>
      <trkpt lat="48.72129" lon="-0.62033">
        <ele>220.60000610352</ele>
        <time>2014-01-09T14:58:48.000Z</time>
      </trkpt>
      <trkpt lat="48.72128" lon="-0.62034">
        <ele>220.60000610352</ele>
        <time>2014-01-09T14:58:49.000Z</time>
      </trkpt>
      <trkpt lat="48.72122" lon="-0.62037">
        <ele>220.39999389648</ele>
        <time>2014-01-09T14:58:52.000Z</time>
      </trkpt>
      <trkpt lat="48.72117" lon="-0.62038">
        <ele>220.39999389648</ele>
        <time>2014-01-09T14:58:54.000Z</time>
      </trkpt>
      <trkpt lat="48.72115" lon="-0.62038">
        <ele>220.39999389648</ele>
        <time>2014-01-09T14:58:55.000Z</time>
      </trkpt>
      <trkpt lat="48.72111" lon="-0.62039">
        <ele>220.39999389648</ele>
        <time>2014-01-09T14:58:58.000Z</time>
      </trkpt>
      <trkpt lat="48.72109" lon="-0.62042">
        <ele>220.39999389648</ele>
        <time>2014-01-09T14:59:00.000Z</time>
      </trkpt>
      <trkpt lat="48.72101" lon="-0.62048">
        <ele>220.60000610352</ele>
        <time>2014-01-09T14:59:06.000Z</time>
      </trkpt>
      <trkpt lat="48.721" lon="-0.62049">
        <ele>220.60000610352</ele>
        <time>2014-01-09T14:59:07.000Z</time>
      </trkpt>
      <trkpt lat="48.72098" lon="-0.62054">
        <ele>220.60000610352</ele>
        <time>2014-01-09T14:59:12.000Z</time>
      </trkpt>
      <trkpt lat="48.72098" lon="-0.62054">
        <ele>220.60000610352</ele>
        <time>2014-01-09T14:59:30.000Z</time>
      </trkpt>
      <trkpt lat="48.72098" lon="-0.62054">
        <ele>220.60000610352</ele>
        <time>2014-01-09T14:59:47.000Z</time>
      </trkpt>
      <trkpt lat="48.72097" lon="-0.62054">
        <ele>220.60000610352</ele>
        <time>2014-01-09T14:59:57.000Z</time>
      </trkpt>
      <trkpt lat="48.72095" lon="-0.62057">
        <ele>220.60000610352</ele>
        <time>2014-01-09T14:59:58.000Z</time>
      </trkpt>
      <trkpt lat="48.72092" lon="-0.6207">
        <ele>220.80000305176</ele>
        <time>2014-01-09T15:00:03.000Z</time>
      </trkpt>
      <trkpt lat="48.72088" lon="-0.62091">
        <ele>221</ele>
        <time>2014-01-09T15:00:08.000Z</time>
      </trkpt>
      <trkpt lat="48.72084" lon="-0.6211">
        <ele>221</ele>
        <time>2014-01-09T15:00:14.000Z</time>
      </trkpt>
      <trkpt lat="48.72078" lon="-0.62127">
        <ele>221.60000610352</ele>
        <time>2014-01-09T15:00:19.000Z</time>
      </trkpt>
      <trkpt lat="48.72071" lon="-0.62154">
        <ele>222.39999389648</ele>
        <time>2014-01-09T15:00:26.000Z</time>
      </trkpt>
      <trkpt lat="48.72064" lon="-0.62181">
        <ele>223.39999389648</ele>
        <time>2014-01-09T15:00:33.000Z</time>
      </trkpt>
      <trkpt lat="48.7206" lon="-0.62195">
        <ele>224.19999694824</ele>
        <time>2014-01-09T15:00:37.000Z</time>
      </trkpt>
      <trkpt lat="48.72057" lon="-0.62202">
        <ele>224.60000610352</ele>
        <time>2014-01-09T15:00:39.000Z</time>
      </trkpt>
      <trkpt lat="48.72052" lon="-0.62223">
        <ele>225.39999389648</ele>
        <time>2014-01-09T15:00:44.000Z</time>
      </trkpt>
      <trkpt lat="48.72046" lon="-0.62243">
        <ele>226.39999389648</ele>
        <time>2014-01-09T15:00:49.000Z</time>
      </trkpt>
      <trkpt lat="48.72045" lon="-0.62247">
        <ele>226.60000610352</ele>
        <time>2014-01-09T15:00:50.000Z</time>
      </trkpt>
      <trkpt lat="48.72039" lon="-0.62265">
        <ele>226.80000305176</ele>
        <time>2014-01-09T15:00:55.000Z</time>
      </trkpt>
      <trkpt lat="48.72038" lon="-0.62268">
        <ele>226.80000305176</ele>
        <time>2014-01-09T15:00:56.000Z</time>
      </trkpt>
      <trkpt lat="48.72031" lon="-0.62292">
        <ele>227</ele>
        <time>2014-01-09T15:01:02.000Z</time>
      </trkpt>
      <trkpt lat="48.72027" lon="-0.62307">
        <ele>227</ele>
        <time>2014-01-09T15:01:06.000Z</time>
      </trkpt>
      <trkpt lat="48.72025" lon="-0.62315">
        <ele>226.80000305176</ele>
        <time>2014-01-09T15:01:08.000Z</time>
      </trkpt>
      <trkpt lat="48.7202" lon="-0.6234">
        <ele>226.60000610352</ele>
        <time>2014-01-09T15:01:14.000Z</time>
      </trkpt>
      <trkpt lat="48.72018" lon="-0.62348">
        <ele>226.39999389648</ele>
        <time>2014-01-09T15:01:16.000Z</time>
      </trkpt>
      <trkpt lat="48.72013" lon="-0.62362">
        <ele>226.19999694824</ele>
        <time>2014-01-09T15:01:20.000Z</time>
      </trkpt>
      <trkpt lat="48.72003" lon="-0.62386">
        <ele>225.60000610352</ele>
        <time>2014-01-09T15:01:27.000Z</time>
      </trkpt>
      <trkpt lat="48.71991" lon="-0.62405">
        <ele>225.60000610352</ele>
        <time>2014-01-09T15:01:33.000Z</time>
      </trkpt>
      <trkpt lat="48.71981" lon="-0.62423">
        <ele>225.80000305176</ele>
        <time>2014-01-09T15:01:39.000Z</time>
      </trkpt>
      <trkpt lat="48.71973" lon="-0.62444">
        <ele>226</ele>
        <time>2014-01-09T15:01:45.000Z</time>
      </trkpt>
      <trkpt lat="48.71965" lon="-0.6246">
        <ele>226.19999694824</ele>
        <time>2014-01-09T15:01:51.000Z</time>
      </trkpt>
      <trkpt lat="48.71957" lon="-0.62475">
        <ele>226.60000610352</ele>
        <time>2014-01-09T15:01:57.000Z</time>
      </trkpt>
      <trkpt lat="48.71957" lon="-0.62474">
        <ele>226.60000610352</ele>
        <time>2014-01-09T15:01:58.000Z</time>
      </trkpt>
      <trkpt lat="48.71956" lon="-0.62475">
        <ele>226.60000610352</ele>
        <time>2014-01-09T15:02:04.000Z</time>
      </trkpt>
      <trkpt lat="48.71955" lon="-0.62476">
        <ele>226.60000610352</ele>
        <time>2014-01-09T15:02:09.000Z</time>
      </trkpt>
      <trkpt lat="48.71952" lon="-0.62481">
        <ele>226.80000305176</ele>
        <time>2014-01-09T15:02:14.000Z</time>
      </trkpt>
      <trkpt lat="48.71952" lon="-0.62482">
        <ele>226.80000305176</ele>
        <time>2014-01-09T15:02:20.000Z</time>
      </trkpt>
      <trkpt lat="48.71952" lon="-0.62482">
        <ele>226.80000305176</ele>
        <time>2014-01-09T15:02:22.000Z</time>
      </trkpt>
      <trkpt lat="48.71952" lon="-0.62482">
        <ele>226.80000305176</ele>
        <time>2014-01-09T15:02:33.000Z</time>
      </trkpt>
      <trkpt lat="48.71952" lon="-0.62482">
        <ele>226.80000305176</ele>
        <time>2014-01-09T15:02:49.000Z</time>
      </trkpt>
      <trkpt lat="48.71952" lon="-0.62483">
        <ele>226.80000305176</ele>
        <time>2014-01-09T15:03:02.000Z</time>
      </trkpt>
      <trkpt lat="48.7195" lon="-0.62487">
        <ele>226.80000305176</ele>
        <time>2014-01-09T15:03:09.000Z</time>
      </trkpt>
      <trkpt lat="48.71946" lon="-0.62495">
        <ele>226.80000305176</ele>
        <time>2014-01-09T15:03:13.000Z</time>
      </trkpt>
      <trkpt lat="48.71944" lon="-0.625">
        <ele>226.60000610352</ele>
        <time>2014-01-09T15:03:15.000Z</time>
      </trkpt>
      <trkpt lat="48.71941" lon="-0.62509">
        <ele>227.19999694824</ele>
        <time>2014-01-09T15:03:21.000Z</time>
      </trkpt>
      <trkpt lat="48.7194" lon="-0.6251">
        <ele>227.19999694824</ele>
        <time>2014-01-09T15:03:34.000Z</time>
      </trkpt>
      <trkpt lat="48.71936" lon="-0.62517">
        <ele>227.60000610352</ele>
        <time>2014-01-09T15:03:40.000Z</time>
      </trkpt>
      <trkpt lat="48.71931" lon="-0.62526">
        <ele>228</ele>
        <time>2014-01-09T15:03:44.000Z</time>
      </trkpt>
      <trkpt lat="48.71928" lon="-0.62529">
        <ele>228.19999694824</ele>
        <time>2014-01-09T15:03:46.000Z</time>
      </trkpt>
      <trkpt lat="48.71919" lon="-0.62538">
        <ele>228.80000305176</ele>
        <time>2014-01-09T15:03:51.000Z</time>
      </trkpt>
      <trkpt lat="48.71914" lon="-0.62545">
        <ele>229.19999694824</ele>
        <time>2014-01-09T15:03:55.000Z</time>
      </trkpt>
      <trkpt lat="48.71909" lon="-0.6255">
        <ele>229.60000610352</ele>
        <time>2014-01-09T15:03:58.000Z</time>
      </trkpt>
      <trkpt lat="48.71904" lon="-0.62556">
        <ele>229.80000305176</ele>
        <time>2014-01-09T15:04:01.000Z</time>
      </trkpt>
      <trkpt lat="48.71902" lon="-0.62558">
        <ele>230</ele>
        <time>2014-01-09T15:04:02.000Z</time>
      </trkpt>
      <trkpt lat="48.71896" lon="-0.62567">
        <ele>230.39999389648</ele>
        <time>2014-01-09T15:04:06.000Z</time>
      </trkpt>
      <trkpt lat="48.71891" lon="-0.62573">
        <ele>230.80000305176</ele>
        <time>2014-01-09T15:04:09.000Z</time>
      </trkpt>
      <trkpt lat="48.71889" lon="-0.62576">
        <ele>231</ele>
        <time>2014-01-09T15:04:10.000Z</time>
      </trkpt>
      <trkpt lat="48.71885" lon="-0.62582">
        <ele>231.19999694824</ele>
        <time>2014-01-09T15:04:13.000Z</time>
      </trkpt>
      <trkpt lat="48.71882" lon="-0.62587">
        <ele>231.60000610352</ele>
        <time>2014-01-09T15:04:16.000Z</time>
      </trkpt>
      <trkpt lat="48.71882" lon="-0.62589">
        <ele>231.80000305176</ele>
        <time>2014-01-09T15:04:17.000Z</time>
      </trkpt>
      <trkpt lat="48.71877" lon="-0.62601">
        <ele>232.39999389648</ele>
        <time>2014-01-09T15:04:23.000Z</time>
      </trkpt>
      <trkpt lat="48.71877" lon="-0.62612">
        <ele>232.80000305176</ele>
        <time>2014-01-09T15:04:31.000Z</time>
      </trkpt>
      <trkpt lat="48.71877" lon="-0.62612">
        <ele>232.80000305176</ele>
        <time>2014-01-09T15:04:40.000Z</time>
      </trkpt>
      <trkpt lat="48.71877" lon="-0.62612">
        <ele>232.80000305176</ele>
        <time>2014-01-09T15:04:47.000Z</time>
      </trkpt>
      <trkpt lat="48.71877" lon="-0.62612">
        <ele>232.80000305176</ele>
        <time>2014-01-09T15:04:56.000Z</time>
      </trkpt>
      <trkpt lat="48.71877" lon="-0.62612">
        <ele>232.80000305176</ele>
        <time>2014-01-09T15:05:00.000Z</time>
      </trkpt>
      <trkpt lat="48.71877" lon="-0.62613">
        <ele>232.80000305176</ele>
        <time>2014-01-09T15:05:15.000Z</time>
      </trkpt>
      <trkpt lat="48.71878" lon="-0.62613">
        <ele>232.80000305176</ele>
        <time>2014-01-09T15:05:21.000Z</time>
      </trkpt>
      <trkpt lat="48.71877" lon="-0.62617">
        <ele>232.80000305176</ele>
        <time>2014-01-09T15:05:22.000Z</time>
      </trkpt>
      <trkpt lat="48.71877" lon="-0.62633">
        <ele>233.39999389648</ele>
        <time>2014-01-09T15:05:27.000Z</time>
      </trkpt>
      <trkpt lat="48.71874" lon="-0.62654">
        <ele>234.19999694824</ele>
        <time>2014-01-09T15:05:33.000Z</time>
      </trkpt>
      <trkpt lat="48.71874" lon="-0.62667">
        <ele>234.60000610352</ele>
        <time>2014-01-09T15:05:37.000Z</time>
      </trkpt>
      <trkpt lat="48.71877" lon="-0.62672">
        <ele>234.60000610352</ele>
        <time>2014-01-09T15:05:39.000Z</time>
      </trkpt>
      <trkpt lat="48.71885" lon="-0.62687">
        <ele>234.60000610352</ele>
        <time>2014-01-09T15:05:44.000Z</time>
      </trkpt>
      <trkpt lat="48.7189" lon="-0.62698">
        <ele>234.80000305176</ele>
        <time>2014-01-09T15:05:48.000Z</time>
      </trkpt>
      <trkpt lat="48.71893" lon="-0.62705">
        <ele>234.80000305176</ele>
        <time>2014-01-09T15:05:51.000Z</time>
      </trkpt>
      <trkpt lat="48.71902" lon="-0.62722">
        <ele>234.80000305176</ele>
        <time>2014-01-09T15:05:57.000Z</time>
      </trkpt>
      <trkpt lat="48.71905" lon="-0.6273">
        <ele>235</ele>
        <time>2014-01-09T15:06:01.000Z</time>
      </trkpt>
      <trkpt lat="48.71906" lon="-0.62732">
        <ele>235</ele>
        <time>2014-01-09T15:06:02.000Z</time>
      </trkpt>
      <trkpt lat="48.71909" lon="-0.62738">
        <ele>235</ele>
        <time>2014-01-09T15:06:05.000Z</time>
      </trkpt>
      <trkpt lat="48.71913" lon="-0.62743">
        <ele>235</ele>
        <time>2014-01-09T15:06:08.000Z</time>
      </trkpt>
      <trkpt lat="48.71921" lon="-0.62752">
        <ele>235</ele>
        <time>2014-01-09T15:06:13.000Z</time>
      </trkpt>
      <trkpt lat="48.71932" lon="-0.6276">
        <ele>235.39999389648</ele>
        <time>2014-01-09T15:06:19.000Z</time>
      </trkpt>
      <trkpt lat="48.71933" lon="-0.62761">
        <ele>235.39999389648</ele>
        <time>2014-01-09T15:06:20.000Z</time>
      </trkpt>
      <trkpt lat="48.71938" lon="-0.62769">
        <ele>236</ele>
        <time>2014-01-09T15:06:24.000Z</time>
      </trkpt>
      <trkpt lat="48.71941" lon="-0.62775">
        <ele>236.39999389648</ele>
        <time>2014-01-09T15:06:26.000Z</time>
      </trkpt>
      <trkpt lat="48.71947" lon="-0.62783">
        <ele>237</ele>
        <time>2014-01-09T15:06:30.000Z</time>
      </trkpt>
      <trkpt lat="48.71957" lon="-0.62803">
        <ele>238.19999694824</ele>
        <time>2014-01-09T15:06:37.000Z</time>
      </trkpt>
      <trkpt lat="48.71964" lon="-0.62821">
        <ele>239.39999389648</ele>
        <time>2014-01-09T15:06:42.000Z</time>
      </trkpt>
      <trkpt lat="48.71965" lon="-0.62824">
        <ele>239.60000610352</ele>
        <time>2014-01-09T15:06:43.000Z</time>
      </trkpt>
      <trkpt lat="48.71968" lon="-0.62828">
        <ele>239.80000305176</ele>
        <time>2014-01-09T15:06:48.000Z</time>
      </trkpt>
      <trkpt lat="48.71968" lon="-0.62828">
        <ele>239.80000305176</ele>
        <time>2014-01-09T15:06:59.000Z</time>
      </trkpt>
      <trkpt lat="48.71968" lon="-0.62828">
        <ele>239.80000305176</ele>
        <time>2014-01-09T15:07:16.000Z</time>
      </trkpt>
      <trkpt lat="48.71968" lon="-0.62829">
        <ele>239.80000305176</ele>
        <time>2014-01-09T15:07:30.000Z</time>
      </trkpt>
      <trkpt lat="48.71969" lon="-0.62831">
        <ele>240</ele>
        <time>2014-01-09T15:07:44.000Z</time>
      </trkpt>
      <trkpt lat="48.71982" lon="-0.62833">
        <ele>239.60000610352</ele>
        <time>2014-01-09T15:07:50.000Z</time>
      </trkpt>
      <trkpt lat="48.71998" lon="-0.62828">
        <ele>238.60000610352</ele>
        <time>2014-01-09T15:07:55.000Z</time>
      </trkpt>
      <trkpt lat="48.72011" lon="-0.62824">
        <ele>237.60000610352</ele>
        <time>2014-01-09T15:07:58.000Z</time>
      </trkpt>
      <trkpt lat="48.72022" lon="-0.62821">
        <ele>236.80000305176</ele>
        <time>2014-01-09T15:08:00.000Z</time>
      </trkpt>
      <trkpt lat="48.72035" lon="-0.62818">
        <ele>236</ele>
        <time>2014-01-09T15:08:02.000Z</time>
      </trkpt>
      <trkpt lat="48.72056" lon="-0.62813">
        <ele>234.80000305176</ele>
        <time>2014-01-09T15:08:05.000Z</time>
      </trkpt>
      <trkpt lat="48.72063" lon="-0.62811">
        <ele>234.39999389648</ele>
        <time>2014-01-09T15:08:06.000Z</time>
      </trkpt>
      <trkpt lat="48.72071" lon="-0.62809">
        <ele>234.19999694824</ele>
        <time>2014-01-09T15:08:07.000Z</time>
      </trkpt>
      <trkpt lat="48.72087" lon="-0.62805">
        <ele>233.39999389648</ele>
        <time>2014-01-09T15:08:09.000Z</time>
      </trkpt>
      <trkpt lat="48.72102" lon="-0.62802">
        <ele>231.80000305176</ele>
        <time>2014-01-09T15:08:11.000Z</time>
      </trkpt>
      <trkpt lat="48.72118" lon="-0.62798">
        <ele>230.39999389648</ele>
        <time>2014-01-09T15:08:13.000Z</time>
      </trkpt>
      <trkpt lat="48.72142" lon="-0.62791">
        <ele>228.39999389648</ele>
        <time>2014-01-09T15:08:16.000Z</time>
      </trkpt>
      <trkpt lat="48.72158" lon="-0.62786">
        <ele>227.19999694824</ele>
        <time>2014-01-09T15:08:18.000Z</time>
      </trkpt>
      <trkpt lat="48.72172" lon="-0.62782">
        <ele>226</ele>
        <time>2014-01-09T15:08:20.000Z</time>
      </trkpt>
      <trkpt lat="48.72192" lon="-0.62776">
        <ele>224.39999389648</ele>
        <time>2014-01-09T15:08:23.000Z</time>
      </trkpt>
      <trkpt lat="48.72198" lon="-0.62774">
        <ele>224</ele>
        <time>2014-01-09T15:08:24.000Z</time>
      </trkpt>
      <trkpt lat="48.72204" lon="-0.62772">
        <ele>223.39999389648</ele>
        <time>2014-01-09T15:08:25.000Z</time>
      </trkpt>
      <trkpt lat="48.72214" lon="-0.62768">
        <ele>222.39999389648</ele>
        <time>2014-01-09T15:08:27.000Z</time>
      </trkpt>
      <trkpt lat="48.72223" lon="-0.62769">
        <ele>221.60000610352</ele>
        <time>2014-01-09T15:08:29.000Z</time>
      </trkpt>
      <trkpt lat="48.72231" lon="-0.62784">
        <ele>221.19999694824</ele>
        <time>2014-01-09T15:08:32.000Z</time>
      </trkpt>
      <trkpt lat="48.72233" lon="-0.62805">
        <ele>221.60000610352</ele>
        <time>2014-01-09T15:08:35.000Z</time>
      </trkpt>
      <trkpt lat="48.72231" lon="-0.62815">
        <ele>222</ele>
        <time>2014-01-09T15:08:37.000Z</time>
      </trkpt>
      <trkpt lat="48.72227" lon="-0.62828">
        <ele>222.39999389648</ele>
        <time>2014-01-09T15:08:40.000Z</time>
      </trkpt>
      <trkpt lat="48.72224" lon="-0.62835">
        <ele>222.60000610352</ele>
        <time>2014-01-09T15:08:42.000Z</time>
      </trkpt>
      <trkpt lat="48.72216" lon="-0.62852">
        <ele>223.39999389648</ele>
        <time>2014-01-09T15:08:48.000Z</time>
      </trkpt>
      <trkpt lat="48.72215" lon="-0.62857">
        <ele>223.60000610352</ele>
        <time>2014-01-09T15:08:50.000Z</time>
      </trkpt>
      <trkpt lat="48.72211" lon="-0.62867">
        <ele>223.80000305176</ele>
        <time>2014-01-09T15:08:54.000Z</time>
      </trkpt>
      <trkpt lat="48.72209" lon="-0.62872">
        <ele>224</ele>
        <time>2014-01-09T15:08:56.000Z</time>
      </trkpt>
      <trkpt lat="48.72206" lon="-0.62881">
        <ele>224</ele>
        <time>2014-01-09T15:08:59.000Z</time>
      </trkpt>
      <trkpt lat="48.72203" lon="-0.6289">
        <ele>224.19999694824</ele>
        <time>2014-01-09T15:09:02.000Z</time>
      </trkpt>
      <trkpt lat="48.722" lon="-0.62898">
        <ele>224.19999694824</ele>
        <time>2014-01-09T15:09:05.000Z</time>
      </trkpt>
      <trkpt lat="48.72198" lon="-0.62904">
        <ele>224.39999389648</ele>
        <time>2014-01-09T15:09:07.000Z</time>
      </trkpt>
      <trkpt lat="48.72194" lon="-0.62917">
        <ele>224.39999389648</ele>
        <time>2014-01-09T15:09:12.000Z</time>
      </trkpt>
      <trkpt lat="48.72193" lon="-0.62923">
        <ele>224.80000305176</ele>
        <time>2014-01-09T15:09:14.000Z</time>
      </trkpt>
      <trkpt lat="48.7219" lon="-0.62931">
        <ele>225.39999389648</ele>
        <time>2014-01-09T15:09:17.000Z</time>
      </trkpt>
      <trkpt lat="48.72189" lon="-0.6294">
        <ele>226</ele>
        <time>2014-01-09T15:09:20.000Z</time>
      </trkpt>
      <trkpt lat="48.72187" lon="-0.62949">
        <ele>226.60000610352</ele>
        <time>2014-01-09T15:09:23.000Z</time>
      </trkpt>
      <trkpt lat="48.72184" lon="-0.62963">
        <ele>227.60000610352</ele>
        <time>2014-01-09T15:09:28.000Z</time>
      </trkpt>
      <trkpt lat="48.72184" lon="-0.62966">
        <ele>227.80000305176</ele>
        <time>2014-01-09T15:09:29.000Z</time>
      </trkpt>
      <trkpt lat="48.7218" lon="-0.62982">
        <ele>229</ele>
        <time>2014-01-09T15:09:34.000Z</time>
      </trkpt>
      <trkpt lat="48.72179" lon="-0.62988">
        <ele>229.39999389648</ele>
        <time>2014-01-09T15:09:36.000Z</time>
      </trkpt>
      <trkpt lat="48.72177" lon="-0.62997">
        <ele>230.19999694824</ele>
        <time>2014-01-09T15:09:39.000Z</time>
      </trkpt>
      <trkpt lat="48.72175" lon="-0.6301">
        <ele>231</ele>
        <time>2014-01-09T15:09:43.000Z</time>
      </trkpt>
      <trkpt lat="48.72174" lon="-0.63013">
        <ele>231.19999694824</ele>
        <time>2014-01-09T15:09:44.000Z</time>
      </trkpt>
      <trkpt lat="48.72171" lon="-0.63026">
        <ele>232</ele>
        <time>2014-01-09T15:09:48.000Z</time>
      </trkpt>
      <trkpt lat="48.72168" lon="-0.63039">
        <ele>232.80000305176</ele>
        <time>2014-01-09T15:09:52.000Z</time>
      </trkpt>
      <trkpt lat="48.72165" lon="-0.63056">
        <ele>234</ele>
        <time>2014-01-09T15:09:57.000Z</time>
      </trkpt>
      <trkpt lat="48.72163" lon="-0.63067">
        <ele>234.60000610352</ele>
        <time>2014-01-09T15:10:00.000Z</time>
      </trkpt>
      <trkpt lat="48.7216" lon="-0.6308">
        <ele>235.39999389648</ele>
        <time>2014-01-09T15:10:04.000Z</time>
      </trkpt>
      <trkpt lat="48.72157" lon="-0.63096">
        <ele>236</ele>
        <time>2014-01-09T15:10:09.000Z</time>
      </trkpt>
      <trkpt lat="48.72157" lon="-0.631">
        <ele>236</ele>
        <time>2014-01-09T15:10:10.000Z</time>
      </trkpt>
      <trkpt lat="48.72153" lon="-0.63121">
        <ele>236.80000305176</ele>
        <time>2014-01-09T15:10:16.000Z</time>
      </trkpt>
      <trkpt lat="48.72151" lon="-0.63131">
        <ele>237.19999694824</ele>
        <time>2014-01-09T15:10:19.000Z</time>
      </trkpt>
      <trkpt lat="48.72149" lon="-0.63138">
        <ele>237.39999389648</ele>
        <time>2014-01-09T15:10:21.000Z</time>
      </trkpt>
      <trkpt lat="48.72146" lon="-0.63159">
        <ele>238.19999694824</ele>
        <time>2014-01-09T15:10:27.000Z</time>
      </trkpt>
      <trkpt lat="48.72145" lon="-0.63162">
        <ele>238.19999694824</ele>
        <time>2014-01-09T15:10:28.000Z</time>
      </trkpt>
      <trkpt lat="48.72142" lon="-0.6318">
        <ele>239.19999694824</ele>
        <time>2014-01-09T15:10:33.000Z</time>
      </trkpt>
      <trkpt lat="48.7214" lon="-0.63191">
        <ele>240</ele>
        <time>2014-01-09T15:10:36.000Z</time>
      </trkpt>
      <trkpt lat="48.72138" lon="-0.63201">
        <ele>240.60000610352</ele>
        <time>2014-01-09T15:10:39.000Z</time>
      </trkpt>
      <trkpt lat="48.72133" lon="-0.63226">
        <ele>242</ele>
        <time>2014-01-09T15:10:46.000Z</time>
      </trkpt>
      <trkpt lat="48.72132" lon="-0.63234">
        <ele>242.39999389648</ele>
        <time>2014-01-09T15:10:48.000Z</time>
      </trkpt>
      <trkpt lat="48.72129" lon="-0.63252">
        <ele>243.39999389648</ele>
        <time>2014-01-09T15:10:53.000Z</time>
      </trkpt>
      <trkpt lat="48.72126" lon="-0.63271">
        <ele>243.80000305176</ele>
        <time>2014-01-09T15:10:58.000Z</time>
      </trkpt>
      <trkpt lat="48.7212" lon="-0.63301">
        <ele>244.19999694824</ele>
        <time>2014-01-09T15:11:06.000Z</time>
      </trkpt>
      <trkpt lat="48.72118" lon="-0.63325">
        <ele>244.60000610352</ele>
        <time>2014-01-09T15:11:12.000Z</time>
      </trkpt>
      <trkpt lat="48.72116" lon="-0.63336">
        <ele>244.80000305176</ele>
        <time>2014-01-09T15:11:15.000Z</time>
      </trkpt>
      <trkpt lat="48.72114" lon="-0.63354">
        <ele>245</ele>
        <time>2014-01-09T15:11:19.000Z</time>
      </trkpt>
      <trkpt lat="48.72109" lon="-0.63384">
        <ele>245.19999694824</ele>
        <time>2014-01-09T15:11:26.000Z</time>
      </trkpt>
      <trkpt lat="48.72107" lon="-0.63398">
        <ele>245.39999389648</ele>
        <time>2014-01-09T15:11:29.000Z</time>
      </trkpt>
      <trkpt lat="48.72102" lon="-0.6343">
        <ele>246</ele>
        <time>2014-01-09T15:11:37.000Z</time>
      </trkpt>
      <trkpt lat="48.72098" lon="-0.63453">
        <ele>246.39999389648</ele>
        <time>2014-01-09T15:11:44.000Z</time>
      </trkpt>
      <trkpt lat="48.72098" lon="-0.63453">
        <ele>246.39999389648</ele>
        <time>2014-01-09T15:11:48.000Z</time>
      </trkpt>
      <trkpt lat="48.72098" lon="-0.63453">
        <ele>246.39999389648</ele>
        <time>2014-01-09T15:12:03.000Z</time>
      </trkpt>
      <trkpt lat="48.72098" lon="-0.63453">
        <ele>246.39999389648</ele>
        <time>2014-01-09T15:12:24.000Z</time>
      </trkpt>
      <trkpt lat="48.72098" lon="-0.63452">
        <ele>246.39999389648</ele>
        <time>2014-01-09T15:12:39.000Z</time>
      </trkpt>
      <trkpt lat="48.72098" lon="-0.63452">
        <ele>246.39999389648</ele>
        <time>2014-01-09T15:12:51.000Z</time>
      </trkpt>
      <trkpt lat="48.72098" lon="-0.63453">
        <ele>246.39999389648</ele>
        <time>2014-01-09T15:13:05.000Z</time>
      </trkpt>
      <trkpt lat="48.72098" lon="-0.63453">
        <ele>246.39999389648</ele>
        <time>2014-01-09T15:13:22.000Z</time>
      </trkpt>
      <trkpt lat="48.72098" lon="-0.63453">
        <ele>246.39999389648</ele>
        <time>2014-01-09T15:13:32.000Z</time>
      </trkpt>
      <trkpt lat="48.72098" lon="-0.63453">
        <ele>246.39999389648</ele>
        <time>2014-01-09T15:13:39.000Z</time>
      </trkpt>
      <trkpt lat="48.72098" lon="-0.63453">
        <ele>246.39999389648</ele>
        <time>2014-01-09T15:13:54.000Z</time>
      </trkpt>
      <trkpt lat="48.72098" lon="-0.63453">
        <ele>246.39999389648</ele>
        <time>2014-01-09T15:14:04.000Z</time>
      </trkpt>
      <trkpt lat="48.72097" lon="-0.63453">
        <ele>246.39999389648</ele>
        <time>2014-01-09T15:14:20.000Z</time>
      </trkpt>
      <trkpt lat="48.72093" lon="-0.63461">
        <ele>246.60000610352</ele>
        <time>2014-01-09T15:14:27.000Z</time>
      </trkpt>
      <trkpt lat="48.72088" lon="-0.6348">
        <ele>247.19999694824</ele>
        <time>2014-01-09T15:14:33.000Z</time>
      </trkpt>
      <trkpt lat="48.72081" lon="-0.63506">
        <ele>247.80000305176</ele>
        <time>2014-01-09T15:14:40.000Z</time>
      </trkpt>
      <trkpt lat="48.7207" lon="-0.63536">
        <ele>247.60000610352</ele>
        <time>2014-01-09T15:14:47.000Z</time>
      </trkpt>
      <trkpt lat="48.72053" lon="-0.63572">
        <ele>247.80000305176</ele>
        <time>2014-01-09T15:14:56.000Z</time>
      </trkpt>
      <trkpt lat="48.72035" lon="-0.63604">
        <ele>248.80000305176</ele>
        <time>2014-01-09T15:15:04.000Z</time>
      </trkpt>
      <trkpt lat="48.72031" lon="-0.63612">
        <ele>249.19999694824</ele>
        <time>2014-01-09T15:15:06.000Z</time>
      </trkpt>
      <trkpt lat="48.72009" lon="-0.63651">
        <ele>251.60000610352</ele>
        <time>2014-01-09T15:15:16.000Z</time>
      </trkpt>
      <trkpt lat="48.72005" lon="-0.63659">
        <ele>252.19999694824</ele>
        <time>2014-01-09T15:15:18.000Z</time>
      </trkpt>
      <trkpt lat="48.71989" lon="-0.63692">
        <ele>252.60000610352</ele>
        <time>2014-01-09T15:15:22.000Z</time>
      </trkpt>
      <trkpt lat="48.71986" lon="-0.637">
        <ele>252.60000610352</ele>
        <time>2014-01-09T15:15:28.000Z</time>
      </trkpt>
      <trkpt lat="48.71975" lon="-0.63722">
        <ele>252.60000610352</ele>
        <time>2014-01-09T15:15:34.000Z</time>
      </trkpt>
      <trkpt lat="48.71973" lon="-0.63726">
        <ele>252.60000610352</ele>
        <time>2014-01-09T15:15:35.000Z</time>
      </trkpt>
      <trkpt lat="48.71964" lon="-0.63749">
        <ele>253.19999694824</ele>
        <time>2014-01-09T15:15:41.000Z</time>
      </trkpt>
      <trkpt lat="48.71962" lon="-0.63757">
        <ele>253.60000610352</ele>
        <time>2014-01-09T15:15:43.000Z</time>
      </trkpt>
      <trkpt lat="48.7196" lon="-0.6377">
        <ele>254.19999694824</ele>
        <time>2014-01-09T15:15:46.000Z</time>
      </trkpt>
      <trkpt lat="48.71959" lon="-0.63775">
        <ele>254.60000610352</ele>
        <time>2014-01-09T15:15:47.000Z</time>
      </trkpt>
      <trkpt lat="48.71956" lon="-0.63798">
        <ele>255.80000305176</ele>
        <time>2014-01-09T15:15:52.000Z</time>
      </trkpt>
      <trkpt lat="48.71954" lon="-0.63806">
        <ele>256.39999389648</ele>
        <time>2014-01-09T15:15:54.000Z</time>
      </trkpt>
      <trkpt lat="48.71948" lon="-0.63822">
        <ele>257.20001220703</ele>
        <time>2014-01-09T15:15:58.000Z</time>
      </trkpt>
      <trkpt lat="48.71945" lon="-0.63833">
        <ele>258</ele>
        <time>2014-01-09T15:16:01.000Z</time>
      </trkpt>
      <trkpt lat="48.71944" lon="-0.63837">
        <ele>258.20001220703</ele>
        <time>2014-01-09T15:16:02.000Z</time>
      </trkpt>
      <trkpt lat="48.71935" lon="-0.63865">
        <ele>259.79998779297</ele>
        <time>2014-01-09T15:16:09.000Z</time>
      </trkpt>
      <trkpt lat="48.7193" lon="-0.63887">
        <ele>261</ele>
        <time>2014-01-09T15:16:14.000Z</time>
      </trkpt>
      <trkpt lat="48.71927" lon="-0.63899">
        <ele>261.79998779297</ele>
        <time>2014-01-09T15:16:17.000Z</time>
      </trkpt>
      <trkpt lat="48.71922" lon="-0.63915">
        <ele>262.79998779297</ele>
        <time>2014-01-09T15:16:21.000Z</time>
      </trkpt>
      <trkpt lat="48.71918" lon="-0.6393">
        <ele>263.20001220703</ele>
        <time>2014-01-09T15:16:25.000Z</time>
      </trkpt>
      <trkpt lat="48.71917" lon="-0.63934">
        <ele>263.20001220703</ele>
        <time>2014-01-09T15:16:26.000Z</time>
      </trkpt>
      <trkpt lat="48.71912" lon="-0.63956">
        <ele>263.20001220703</ele>
        <time>2014-01-09T15:16:32.000Z</time>
      </trkpt>
      <trkpt lat="48.71905" lon="-0.63984">
        <ele>263</ele>
        <time>2014-01-09T15:16:39.000Z</time>
      </trkpt>
      <trkpt lat="48.71905" lon="-0.63989">
        <ele>263</ele>
        <time>2014-01-09T15:16:40.000Z</time>
      </trkpt>
      <trkpt lat="48.71904" lon="-0.64009">
        <ele>263.60000610352</ele>
        <time>2014-01-09T15:16:45.000Z</time>
      </trkpt>
      <trkpt lat="48.71905" lon="-0.64017">
        <ele>264</ele>
        <time>2014-01-09T15:16:47.000Z</time>
      </trkpt>
      <trkpt lat="48.71906" lon="-0.64025">
        <ele>264.39999389648</ele>
        <time>2014-01-09T15:16:49.000Z</time>
      </trkpt>
      <trkpt lat="48.71909" lon="-0.64043">
        <ele>265.60000610352</ele>
        <time>2014-01-09T15:16:54.000Z</time>
      </trkpt>
      <trkpt lat="48.71909" lon="-0.64047">
        <ele>265.60000610352</ele>
        <time>2014-01-09T15:16:55.000Z</time>
      </trkpt>
      <trkpt lat="48.71914" lon="-0.64072">
        <ele>267.20001220703</ele>
        <time>2014-01-09T15:17:02.000Z</time>
      </trkpt>
      <trkpt lat="48.71915" lon="-0.6408">
        <ele>267.79998779297</ele>
        <time>2014-01-09T15:17:04.000Z</time>
      </trkpt>
      <trkpt lat="48.71922" lon="-0.64103">
        <ele>269</ele>
        <time>2014-01-09T15:17:10.000Z</time>
      </trkpt>
      <trkpt lat="48.71924" lon="-0.64111">
        <ele>269.60000610352</ele>
        <time>2014-01-09T15:17:12.000Z</time>
      </trkpt>
      <trkpt lat="48.71929" lon="-0.64124">
        <ele>270.39999389648</ele>
        <time>2014-01-09T15:17:16.000Z</time>
      </trkpt>
      <trkpt lat="48.71934" lon="-0.64138">
        <ele>271.20001220703</ele>
        <time>2014-01-09T15:17:20.000Z</time>
      </trkpt>
      <trkpt lat="48.71936" lon="-0.64141">
        <ele>271.39999389648</ele>
        <time>2014-01-09T15:17:21.000Z</time>
      </trkpt>
      <trkpt lat="48.71939" lon="-0.64151">
        <ele>272</ele>
        <time>2014-01-09T15:17:24.000Z</time>
      </trkpt>
      <trkpt lat="48.71945" lon="-0.6417">
        <ele>273.20001220703</ele>
        <time>2014-01-09T15:17:29.000Z</time>
      </trkpt>
      <trkpt lat="48.71945" lon="-0.64174">
        <ele>273.39999389648</ele>
        <time>2014-01-09T15:17:30.000Z</time>
      </trkpt>
      <trkpt lat="48.71946" lon="-0.64186">
        <ele>274.20001220703</ele>
        <time>2014-01-09T15:17:33.000Z</time>
      </trkpt>
      <trkpt lat="48.71945" lon="-0.64201">
        <ele>275</ele>
        <time>2014-01-09T15:17:37.000Z</time>
      </trkpt>
      <trkpt lat="48.71943" lon="-0.64228">
        <ele>276.60000610352</ele>
        <time>2014-01-09T15:17:44.000Z</time>
      </trkpt>
      <trkpt lat="48.71942" lon="-0.64232">
        <ele>276.79998779297</ele>
        <time>2014-01-09T15:17:45.000Z</time>
      </trkpt>
      <trkpt lat="48.71943" lon="-0.64271">
        <ele>278.79998779297</ele>
        <time>2014-01-09T15:17:54.000Z</time>
      </trkpt>
      <trkpt lat="48.71944" lon="-0.64275">
        <ele>279</ele>
        <time>2014-01-09T15:17:55.000Z</time>
      </trkpt>
      <trkpt lat="48.71945" lon="-0.64306">
        <ele>280.39999389648</ele>
        <time>2014-01-09T15:18:02.000Z</time>
      </trkpt>
      <trkpt lat="48.71946" lon="-0.64315">
        <ele>280.79998779297</ele>
        <time>2014-01-09T15:18:04.000Z</time>
      </trkpt>
      <trkpt lat="48.71947" lon="-0.64324">
        <ele>281.20001220703</ele>
        <time>2014-01-09T15:18:06.000Z</time>
      </trkpt>
      <trkpt lat="48.7195" lon="-0.64347">
        <ele>282.20001220703</ele>
        <time>2014-01-09T15:18:12.000Z</time>
      </trkpt>
      <trkpt lat="48.71953" lon="-0.64361">
        <ele>282.79998779297</ele>
        <time>2014-01-09T15:18:16.000Z</time>
      </trkpt>
      <trkpt lat="48.71954" lon="-0.64368">
        <ele>283</ele>
        <time>2014-01-09T15:18:18.000Z</time>
      </trkpt>
      <trkpt lat="48.71957" lon="-0.64396">
        <ele>284</ele>
        <time>2014-01-09T15:18:25.000Z</time>
      </trkpt>
      <trkpt lat="48.71959" lon="-0.64408">
        <ele>284.39999389648</ele>
        <time>2014-01-09T15:18:28.000Z</time>
      </trkpt>
      <trkpt lat="48.71961" lon="-0.64429">
        <ele>285.20001220703</ele>
        <time>2014-01-09T15:18:33.000Z</time>
      </trkpt>
      <trkpt lat="48.71964" lon="-0.64453">
        <ele>286.39999389648</ele>
        <time>2014-01-09T15:18:39.000Z</time>
      </trkpt>
      <trkpt lat="48.71964" lon="-0.64456">
        <ele>286.39999389648</ele>
        <time>2014-01-09T15:18:40.000Z</time>
      </trkpt>
      <trkpt lat="48.71969" lon="-0.64477">
        <ele>287.60000610352</ele>
        <time>2014-01-09T15:18:46.000Z</time>
      </trkpt>
      <trkpt lat="48.71971" lon="-0.64487">
        <ele>288</ele>
        <time>2014-01-09T15:18:49.000Z</time>
      </trkpt>
      <trkpt lat="48.71974" lon="-0.64505">
        <ele>288.79998779297</ele>
        <time>2014-01-09T15:18:54.000Z</time>
      </trkpt>
      <trkpt lat="48.71977" lon="-0.6452">
        <ele>289.20001220703</ele>
        <time>2014-01-09T15:18:58.000Z</time>
      </trkpt>
      <trkpt lat="48.7198" lon="-0.64536">
        <ele>289.39999389648</ele>
        <time>2014-01-09T15:19:03.000Z</time>
      </trkpt>
      <trkpt lat="48.71983" lon="-0.64555">
        <ele>289.79998779297</ele>
        <time>2014-01-09T15:19:10.000Z</time>
      </trkpt>
      <trkpt lat="48.71984" lon="-0.64561">
        <ele>289.79998779297</ele>
        <time>2014-01-09T15:19:13.000Z</time>
      </trkpt>
      <trkpt lat="48.71983" lon="-0.64567">
        <ele>289.79998779297</ele>
        <time>2014-01-09T15:19:16.000Z</time>
      </trkpt>
      <trkpt lat="48.71984" lon="-0.64569">
        <ele>289.79998779297</ele>
        <time>2014-01-09T15:19:17.000Z</time>
      </trkpt>
      <trkpt lat="48.71984" lon="-0.64573">
        <ele>290</ele>
        <time>2014-01-09T15:19:21.000Z</time>
      </trkpt>
      <trkpt lat="48.71983" lon="-0.64574">
        <ele>290</ele>
        <time>2014-01-09T15:19:34.000Z</time>
      </trkpt>
      <trkpt lat="48.71983" lon="-0.64574">
        <ele>290</ele>
        <time>2014-01-09T15:19:52.000Z</time>
      </trkpt>
      <trkpt lat="48.71983" lon="-0.64575">
        <ele>290</ele>
        <time>2014-01-09T15:20:08.000Z</time>
      </trkpt>
      <trkpt lat="48.71983" lon="-0.64575">
        <ele>290</ele>
        <time>2014-01-09T15:20:23.000Z</time>
      </trkpt>
      <trkpt lat="48.71983" lon="-0.64575">
        <ele>290</ele>
        <time>2014-01-09T15:20:41.000Z</time>
      </trkpt>
      <trkpt lat="48.71983" lon="-0.64575">
        <ele>290</ele>
        <time>2014-01-09T15:21:03.000Z</time>
      </trkpt>
      <trkpt lat="48.71983" lon="-0.64575">
        <ele>290</ele>
        <time>2014-01-09T15:21:13.000Z</time>
      </trkpt>
      <trkpt lat="48.71983" lon="-0.64575">
        <ele>290</ele>
        <time>2014-01-09T15:21:23.000Z</time>
      </trkpt>
      <trkpt lat="48.71986" lon="-0.64584">
        <ele>290</ele>
        <time>2014-01-09T15:21:29.000Z</time>
      </trkpt>
      <trkpt lat="48.7199" lon="-0.646">
        <ele>289.60000610352</ele>
        <time>2014-01-09T15:21:34.000Z</time>
      </trkpt>
      <trkpt lat="48.71992" lon="-0.64622">
        <ele>289</ele>
        <time>2014-01-09T15:21:40.000Z</time>
      </trkpt>
      <trkpt lat="48.71993" lon="-0.64641">
        <ele>288.60000610352</ele>
        <time>2014-01-09T15:21:45.000Z</time>
      </trkpt>
      <trkpt lat="48.71992" lon="-0.64672">
        <ele>287.79998779297</ele>
        <time>2014-01-09T15:21:51.000Z</time>
      </trkpt>
      <trkpt lat="48.71998" lon="-0.64693">
        <ele>287.39999389648</ele>
        <time>2014-01-09T15:21:55.000Z</time>
      </trkpt>
      <trkpt lat="48.72007" lon="-0.64702">
        <ele>287.39999389648</ele>
        <time>2014-01-09T15:21:59.000Z</time>
      </trkpt>
      <trkpt lat="48.72024" lon="-0.64718">
        <ele>287.20001220703</ele>
        <time>2014-01-09T15:22:06.000Z</time>
      </trkpt>
      <trkpt lat="48.72043" lon="-0.64721">
        <ele>287.60000610352</ele>
        <time>2014-01-09T15:22:13.000Z</time>
      </trkpt>
      <trkpt lat="48.72048" lon="-0.64724">
        <ele>287.60000610352</ele>
        <time>2014-01-09T15:22:15.000Z</time>
      </trkpt>
      <trkpt lat="48.7205" lon="-0.64729">
        <ele>287.39999389648</ele>
        <time>2014-01-09T15:22:17.000Z</time>
      </trkpt>
      <trkpt lat="48.72054" lon="-0.64747">
        <ele>286.79998779297</ele>
        <time>2014-01-09T15:22:22.000Z</time>
      </trkpt>
      <trkpt lat="48.72056" lon="-0.64753">
        <ele>286.60000610352</ele>
        <time>2014-01-09T15:22:24.000Z</time>
      </trkpt>
      <trkpt lat="48.72058" lon="-0.6477">
        <ele>286.20001220703</ele>
        <time>2014-01-09T15:22:28.000Z</time>
      </trkpt>
      <trkpt lat="48.72058" lon="-0.64802">
        <ele>285.39999389648</ele>
        <time>2014-01-09T15:22:35.000Z</time>
      </trkpt>
      <trkpt lat="48.72057" lon="-0.64817">
        <ele>285</ele>
        <time>2014-01-09T15:22:38.000Z</time>
      </trkpt>
      <trkpt lat="48.72055" lon="-0.64828">
        <ele>284.79998779297</ele>
        <time>2014-01-09T15:22:41.000Z</time>
      </trkpt>
      <trkpt lat="48.72052" lon="-0.64841">
        <ele>284.60000610352</ele>
        <time>2014-01-09T15:22:44.000Z</time>
      </trkpt>
      <trkpt lat="48.72048" lon="-0.64852">
        <ele>284.60000610352</ele>
        <time>2014-01-09T15:22:47.000Z</time>
      </trkpt>
      <trkpt lat="48.72043" lon="-0.64882">
        <ele>284.39999389648</ele>
        <time>2014-01-09T15:22:54.000Z</time>
      </trkpt>
      <trkpt lat="48.72041" lon="-0.64901">
        <ele>284.60000610352</ele>
        <time>2014-01-09T15:22:59.000Z</time>
      </trkpt>
      <trkpt lat="48.7204" lon="-0.64906">
        <ele>284.60000610352</ele>
        <time>2014-01-09T15:23:00.000Z</time>
      </trkpt>
      <trkpt lat="48.72039" lon="-0.64925">
        <ele>284.39999389648</ele>
        <time>2014-01-09T15:23:04.000Z</time>
      </trkpt>
      <trkpt lat="48.72035" lon="-0.64969">
        <ele>283.79998779297</ele>
        <time>2014-01-09T15:23:12.000Z</time>
      </trkpt>
      <trkpt lat="48.72031" lon="-0.65008">
        <ele>283.79998779297</ele>
        <time>2014-01-09T15:23:20.000Z</time>
      </trkpt>
      <trkpt lat="48.7203" lon="-0.65026">
        <ele>284.20001220703</ele>
        <time>2014-01-09T15:23:25.000Z</time>
      </trkpt>
      <trkpt lat="48.72029" lon="-0.65029">
        <ele>284.39999389648</ele>
        <time>2014-01-09T15:23:26.000Z</time>
      </trkpt>
      <trkpt lat="48.72021" lon="-0.65033">
        <ele>285</ele>
        <time>2014-01-09T15:23:29.000Z</time>
      </trkpt>
      <trkpt lat="48.72018" lon="-0.65034">
        <ele>285.20001220703</ele>
        <time>2014-01-09T15:23:30.000Z</time>
      </trkpt>
      <trkpt lat="48.72" lon="-0.65039">
        <ele>286.39999389648</ele>
        <time>2014-01-09T15:23:36.000Z</time>
      </trkpt>
      <trkpt lat="48.71989" lon="-0.65043">
        <ele>286.39999389648</ele>
        <time>2014-01-09T15:23:40.000Z</time>
      </trkpt>
      <trkpt lat="48.71986" lon="-0.65046">
        <ele>286.39999389648</ele>
        <time>2014-01-09T15:23:41.000Z</time>
      </trkpt>
      <trkpt lat="48.71984" lon="-0.65062">
        <ele>286.79998779297</ele>
        <time>2014-01-09T15:23:45.000Z</time>
      </trkpt>
      <trkpt lat="48.71983" lon="-0.65066">
        <ele>287</ele>
        <time>2014-01-09T15:23:46.000Z</time>
      </trkpt>
      <trkpt lat="48.71983" lon="-0.65084">
        <ele>287.39999389648</ele>
        <time>2014-01-09T15:23:51.000Z</time>
      </trkpt>
      <trkpt lat="48.71982" lon="-0.65104">
        <ele>287.79998779297</ele>
        <time>2014-01-09T15:23:56.000Z</time>
      </trkpt>
      <trkpt lat="48.7198" lon="-0.65127">
        <ele>288</ele>
        <time>2014-01-09T15:24:01.000Z</time>
      </trkpt>
      <trkpt lat="48.71979" lon="-0.65147">
        <ele>288.39999389648</ele>
        <time>2014-01-09T15:24:05.000Z</time>
      </trkpt>
      <trkpt lat="48.71979" lon="-0.65152">
        <ele>288.39999389648</ele>
        <time>2014-01-09T15:24:06.000Z</time>
      </trkpt>
      <trkpt lat="48.7198" lon="-0.65173">
        <ele>288.79998779297</ele>
        <time>2014-01-09T15:24:11.000Z</time>
      </trkpt>
      <trkpt lat="48.71981" lon="-0.65188">
        <ele>289.20001220703</ele>
        <time>2014-01-09T15:24:15.000Z</time>
      </trkpt>
      <trkpt lat="48.71982" lon="-0.65197">
        <ele>289.39999389648</ele>
        <time>2014-01-09T15:24:17.000Z</time>
      </trkpt>
      <trkpt lat="48.71985" lon="-0.6522">
        <ele>289.79998779297</ele>
        <time>2014-01-09T15:24:22.000Z</time>
      </trkpt>
      <trkpt lat="48.71986" lon="-0.65224">
        <ele>290</ele>
        <time>2014-01-09T15:24:23.000Z</time>
      </trkpt>
      <trkpt lat="48.71992" lon="-0.65252">
        <ele>290.60000610352</ele>
        <time>2014-01-09T15:24:29.000Z</time>
      </trkpt>
      <trkpt lat="48.71996" lon="-0.65269">
        <ele>291.39999389648</ele>
        <time>2014-01-09T15:24:33.000Z</time>
      </trkpt>
      <trkpt lat="48.71999" lon="-0.65281">
        <ele>292</ele>
        <time>2014-01-09T15:24:36.000Z</time>
      </trkpt>
      <trkpt lat="48.72001" lon="-0.65298">
        <ele>292.79998779297</ele>
        <time>2014-01-09T15:24:40.000Z</time>
      </trkpt>
      <trkpt lat="48.72002" lon="-0.65311">
        <ele>293.20001220703</ele>
        <time>2014-01-09T15:24:43.000Z</time>
      </trkpt>
      <trkpt lat="48.72002" lon="-0.65319">
        <ele>293.39999389648</ele>
        <time>2014-01-09T15:24:45.000Z</time>
      </trkpt>
      <trkpt lat="48.72002" lon="-0.6533">
        <ele>293.79998779297</ele>
        <time>2014-01-09T15:24:48.000Z</time>
      </trkpt>
      <trkpt lat="48.72001" lon="-0.65356">
        <ele>294.20001220703</ele>
        <time>2014-01-09T15:24:54.000Z</time>
      </trkpt>
      <trkpt lat="48.72001" lon="-0.65391">
        <ele>294.79998779297</ele>
        <time>2014-01-09T15:25:02.000Z</time>
      </trkpt>
      <trkpt lat="48.72001" lon="-0.65397">
        <ele>294.79998779297</ele>
        <time>2014-01-09T15:25:04.000Z</time>
      </trkpt>
      <trkpt lat="48.72001" lon="-0.65399">
        <ele>294.79998779297</ele>
        <time>2014-01-09T15:25:08.000Z</time>
      </trkpt>
      <trkpt lat="48.72001" lon="-0.65399">
        <ele>294.79998779297</ele>
        <time>2014-01-09T15:25:19.000Z</time>
      </trkpt>
      <trkpt lat="48.72001" lon="-0.65399">
        <ele>294.79998779297</ele>
        <time>2014-01-09T15:25:33.000Z</time>
      </trkpt>
      <trkpt lat="48.72001" lon="-0.654">
        <ele>294.79998779297</ele>
        <time>2014-01-09T15:25:52.000Z</time>
      </trkpt>
      <trkpt lat="48.72001" lon="-0.654">
        <ele>294.79998779297</ele>
        <time>2014-01-09T15:26:05.000Z</time>
      </trkpt>
      <trkpt lat="48.72001" lon="-0.654">
        <ele>294.79998779297</ele>
        <time>2014-01-09T15:26:15.000Z</time>
      </trkpt>
      <trkpt lat="48.72" lon="-0.654">
        <ele>294.79998779297</ele>
        <time>2014-01-09T15:26:28.000Z</time>
      </trkpt>
      <trkpt lat="48.72" lon="-0.654">
        <ele>294.79998779297</ele>
        <time>2014-01-09T15:26:36.000Z</time>
      </trkpt>
      <trkpt lat="48.72" lon="-0.654">
        <ele>294.79998779297</ele>
        <time>2014-01-09T15:26:49.000Z</time>
      </trkpt>
      <trkpt lat="48.72" lon="-0.654">
        <ele>294.79998779297</ele>
        <time>2014-01-09T15:27:01.000Z</time>
      </trkpt>
      <trkpt lat="48.72" lon="-0.654">
        <ele>294.79998779297</ele>
        <time>2014-01-09T15:27:13.000Z</time>
      </trkpt>
      <trkpt lat="48.71999" lon="-0.6541">
        <ele>294.79998779297</ele>
        <time>2014-01-09T15:27:17.000Z</time>
      </trkpt>
      <trkpt lat="48.72" lon="-0.65435">
        <ele>295.20001220703</ele>
        <time>2014-01-09T15:27:23.000Z</time>
      </trkpt>
      <trkpt lat="48.72" lon="-0.65445">
        <ele>295.39999389648</ele>
        <time>2014-01-09T15:27:25.000Z</time>
      </trkpt>
      <trkpt lat="48.71998" lon="-0.65472">
        <ele>295.60000610352</ele>
        <time>2014-01-09T15:27:31.000Z</time>
      </trkpt>
      <trkpt lat="48.71993" lon="-0.65508">
        <ele>295.60000610352</ele>
        <time>2014-01-09T15:27:38.000Z</time>
      </trkpt>
      <trkpt lat="48.71984" lon="-0.6555">
        <ele>295.39999389648</ele>
        <time>2014-01-09T15:27:46.000Z</time>
      </trkpt>
      <trkpt lat="48.71978" lon="-0.65586">
        <ele>295.20001220703</ele>
        <time>2014-01-09T15:27:53.000Z</time>
      </trkpt>
      <trkpt lat="48.71975" lon="-0.65629">
        <ele>294.60000610352</ele>
        <time>2014-01-09T15:28:01.000Z</time>
      </trkpt>
      <trkpt lat="48.71978" lon="-0.65676">
        <ele>294.60000610352</ele>
        <time>2014-01-09T15:28:09.000Z</time>
      </trkpt>
      <trkpt lat="48.71987" lon="-0.65729">
        <ele>295.39999389648</ele>
        <time>2014-01-09T15:28:18.000Z</time>
      </trkpt>
      <trkpt lat="48.71989" lon="-0.65746">
        <ele>295.60000610352</ele>
        <time>2014-01-09T15:28:21.000Z</time>
      </trkpt>
      <trkpt lat="48.71991" lon="-0.6577">
        <ele>295</ele>
        <time>2014-01-09T15:28:25.000Z</time>
      </trkpt>
      <trkpt lat="48.71992" lon="-0.65798">
        <ele>293.79998779297</ele>
        <time>2014-01-09T15:28:31.000Z</time>
      </trkpt>
      <trkpt lat="48.71993" lon="-0.65809">
        <ele>293.39999389648</ele>
        <time>2014-01-09T15:28:34.000Z</time>
      </trkpt>
      <trkpt lat="48.71995" lon="-0.65822">
        <ele>293</ele>
        <time>2014-01-09T15:28:38.000Z</time>
      </trkpt>
      <trkpt lat="48.71993" lon="-0.65837">
        <ele>292.20001220703</ele>
        <time>2014-01-09T15:28:43.000Z</time>
      </trkpt>
      <trkpt lat="48.71992" lon="-0.6585">
        <ele>292.39999389648</ele>
        <time>2014-01-09T15:28:47.000Z</time>
      </trkpt>
      <trkpt lat="48.71992" lon="-0.65853">
        <ele>292.39999389648</ele>
        <time>2014-01-09T15:28:48.000Z</time>
      </trkpt>
      <trkpt lat="48.71991" lon="-0.65866">
        <ele>292.60000610352</ele>
        <time>2014-01-09T15:28:52.000Z</time>
      </trkpt>
      <trkpt lat="48.71989" lon="-0.65877">
        <ele>292.60000610352</ele>
        <time>2014-01-09T15:28:55.000Z</time>
      </trkpt>
      <trkpt lat="48.71987" lon="-0.6589">
        <ele>292.60000610352</ele>
        <time>2014-01-09T15:28:59.000Z</time>
      </trkpt>
      <trkpt lat="48.71986" lon="-0.65893">
        <ele>292.60000610352</ele>
        <time>2014-01-09T15:29:00.000Z</time>
      </trkpt>
      <trkpt lat="48.71986" lon="-0.65896">
        <ele>292.60000610352</ele>
        <time>2014-01-09T15:29:01.000Z</time>
      </trkpt>
      <trkpt lat="48.71984" lon="-0.65907">
        <ele>292.60000610352</ele>
        <time>2014-01-09T15:29:04.000Z</time>
      </trkpt>
      <trkpt lat="48.71984" lon="-0.6591">
        <ele>292.79998779297</ele>
        <time>2014-01-09T15:29:05.000Z</time>
      </trkpt>
      <trkpt lat="48.71982" lon="-0.6593">
        <ele>293.20001220703</ele>
        <time>2014-01-09T15:29:10.000Z</time>
      </trkpt>
      <trkpt lat="48.71981" lon="-0.65948">
        <ele>293.60000610352</ele>
        <time>2014-01-09T15:29:14.000Z</time>
      </trkpt>
      <trkpt lat="48.7198" lon="-0.65956">
        <ele>293.79998779297</ele>
        <time>2014-01-09T15:29:16.000Z</time>
      </trkpt>
      <trkpt lat="48.71977" lon="-0.6598">
        <ele>294.20001220703</ele>
        <time>2014-01-09T15:29:21.000Z</time>
      </trkpt>
      <trkpt lat="48.71971" lon="-0.66007">
        <ele>294.60000610352</ele>
        <time>2014-01-09T15:29:27.000Z</time>
      </trkpt>
      <trkpt lat="48.71968" lon="-0.66025">
        <ele>294.60000610352</ele>
        <time>2014-01-09T15:29:31.000Z</time>
      </trkpt>
      <trkpt lat="48.71966" lon="-0.66033">
        <ele>294.60000610352</ele>
        <time>2014-01-09T15:29:33.000Z</time>
      </trkpt>
      <trkpt lat="48.71959" lon="-0.66053">
        <ele>294.39999389648</ele>
        <time>2014-01-09T15:29:38.000Z</time>
      </trkpt>
      <trkpt lat="48.71955" lon="-0.66079">
        <ele>294.39999389648</ele>
        <time>2014-01-09T15:29:44.000Z</time>
      </trkpt>
      <trkpt lat="48.71954" lon="-0.66083">
        <ele>294.39999389648</ele>
        <time>2014-01-09T15:29:45.000Z</time>
      </trkpt>
      <trkpt lat="48.71953" lon="-0.661">
        <ele>294.60000610352</ele>
        <time>2014-01-09T15:29:49.000Z</time>
      </trkpt>
      <trkpt lat="48.71951" lon="-0.66127">
        <ele>294.79998779297</ele>
        <time>2014-01-09T15:29:55.000Z</time>
      </trkpt>
      <trkpt lat="48.7195" lon="-0.66148">
        <ele>295</ele>
        <time>2014-01-09T15:30:00.000Z</time>
      </trkpt>
      <trkpt lat="48.71947" lon="-0.66177">
        <ele>295.39999389648</ele>
        <time>2014-01-09T15:30:07.000Z</time>
      </trkpt>
      <trkpt lat="48.71946" lon="-0.66201">
        <ele>296.39999389648</ele>
        <time>2014-01-09T15:30:14.000Z</time>
      </trkpt>
      <trkpt lat="48.71942" lon="-0.66218">
        <ele>297</ele>
        <time>2014-01-09T15:30:19.000Z</time>
      </trkpt>
      <trkpt lat="48.71942" lon="-0.66218">
        <ele>297</ele>
        <time>2014-01-09T15:30:23.000Z</time>
      </trkpt>
      <trkpt lat="48.71942" lon="-0.66218">
        <ele>297</ele>
        <time>2014-01-09T15:30:32.000Z</time>
      </trkpt>
      <trkpt lat="48.71942" lon="-0.66218">
        <ele>297</ele>
        <time>2014-01-09T15:30:41.000Z</time>
      </trkpt>
      <trkpt lat="48.71942" lon="-0.66218">
        <ele>297</ele>
        <time>2014-01-09T15:30:52.000Z</time>
      </trkpt>
      <trkpt lat="48.71942" lon="-0.6622">
        <ele>297</ele>
        <time>2014-01-09T15:31:05.000Z</time>
      </trkpt>
      <trkpt lat="48.71942" lon="-0.6622">
        <ele>297</ele>
        <time>2014-01-09T15:31:18.000Z</time>
      </trkpt>
      <trkpt lat="48.71942" lon="-0.6622">
        <ele>297</ele>
        <time>2014-01-09T15:31:37.000Z</time>
      </trkpt>
      <trkpt lat="48.71941" lon="-0.66221">
        <ele>297.20001220703</ele>
        <time>2014-01-09T15:31:49.000Z</time>
      </trkpt>
      <trkpt lat="48.71939" lon="-0.66243">
        <ele>298</ele>
        <time>2014-01-09T15:31:55.000Z</time>
      </trkpt>
      <trkpt lat="48.71938" lon="-0.66267">
        <ele>298.60000610352</ele>
        <time>2014-01-09T15:32:00.000Z</time>
      </trkpt>
      <trkpt lat="48.71938" lon="-0.66296">
        <ele>299</ele>
        <time>2014-01-09T15:32:07.000Z</time>
      </trkpt>
      <trkpt lat="48.71935" lon="-0.66322">
        <ele>299.20001220703</ele>
        <time>2014-01-09T15:32:13.000Z</time>
      </trkpt>
      <trkpt lat="48.71935" lon="-0.66351">
        <ele>299.20001220703</ele>
        <time>2014-01-09T15:32:19.000Z</time>
      </trkpt>
      <trkpt lat="48.71937" lon="-0.66369">
        <ele>298.79998779297</ele>
        <time>2014-01-09T15:32:24.000Z</time>
      </trkpt>
      <trkpt lat="48.71937" lon="-0.66407">
        <ele>298.20001220703</ele>
        <time>2014-01-09T15:32:31.000Z</time>
      </trkpt>
      <trkpt lat="48.71936" lon="-0.66421">
        <ele>298</ele>
        <time>2014-01-09T15:32:34.000Z</time>
      </trkpt>
      <trkpt lat="48.71936" lon="-0.6644">
        <ele>298</ele>
        <time>2014-01-09T15:32:38.000Z</time>
      </trkpt>
      <trkpt lat="48.71936" lon="-0.66467">
        <ele>298</ele>
        <time>2014-01-09T15:32:44.000Z</time>
      </trkpt>
      <trkpt lat="48.71935" lon="-0.6649">
        <ele>298</ele>
        <time>2014-01-09T15:32:50.000Z</time>
      </trkpt>
      <trkpt lat="48.71936" lon="-0.6651">
        <ele>298.20001220703</ele>
        <time>2014-01-09T15:32:56.000Z</time>
      </trkpt>
      <trkpt lat="48.71937" lon="-0.66518">
        <ele>298.20001220703</ele>
        <time>2014-01-09T15:33:01.000Z</time>
      </trkpt>
      <trkpt lat="48.71937" lon="-0.66526">
        <ele>298.20001220703</ele>
        <time>2014-01-09T15:33:08.000Z</time>
      </trkpt>
      <trkpt lat="48.71939" lon="-0.66547">
        <ele>298.20001220703</ele>
        <time>2014-01-09T15:33:15.000Z</time>
      </trkpt>
      <trkpt lat="48.7194" lon="-0.66562">
        <ele>298.20001220703</ele>
        <time>2014-01-09T15:33:20.000Z</time>
      </trkpt>
      <trkpt lat="48.7194" lon="-0.66582">
        <ele>298.20001220703</ele>
        <time>2014-01-09T15:33:25.000Z</time>
      </trkpt>
      <trkpt lat="48.71941" lon="-0.66599">
        <ele>298</ele>
        <time>2014-01-09T15:33:31.000Z</time>
      </trkpt>
      <trkpt lat="48.71941" lon="-0.66602">
        <ele>298</ele>
        <time>2014-01-09T15:33:32.000Z</time>
      </trkpt>
      <trkpt lat="48.71941" lon="-0.66613">
        <ele>298</ele>
        <time>2014-01-09T15:33:36.000Z</time>
      </trkpt>
      <trkpt lat="48.71941" lon="-0.66636">
        <ele>297.60000610352</ele>
        <time>2014-01-09T15:33:43.000Z</time>
      </trkpt>
      <trkpt lat="48.71941" lon="-0.66656">
        <ele>297.60000610352</ele>
        <time>2014-01-09T15:33:48.000Z</time>
      </trkpt>
      <trkpt lat="48.71942" lon="-0.66675">
        <ele>297.39999389648</ele>
        <time>2014-01-09T15:33:53.000Z</time>
      </trkpt>
      <trkpt lat="48.71942" lon="-0.6668">
        <ele>297.39999389648</ele>
        <time>2014-01-09T15:33:54.000Z</time>
      </trkpt>
      <trkpt lat="48.71943" lon="-0.66707">
        <ele>297</ele>
        <time>2014-01-09T15:34:00.000Z</time>
      </trkpt>
      <trkpt lat="48.71945" lon="-0.66727">
        <ele>296.79998779297</ele>
        <time>2014-01-09T15:34:05.000Z</time>
      </trkpt>
      <trkpt lat="48.71948" lon="-0.66751">
        <ele>296.60000610352</ele>
        <time>2014-01-09T15:34:10.000Z</time>
      </trkpt>
      <trkpt lat="48.7195" lon="-0.66774">
        <ele>296.39999389648</ele>
        <time>2014-01-09T15:34:15.000Z</time>
      </trkpt>
      <trkpt lat="48.7195" lon="-0.66778">
        <ele>296.39999389648</ele>
        <time>2014-01-09T15:34:16.000Z</time>
      </trkpt>
      <trkpt lat="48.71954" lon="-0.668">
        <ele>296.60000610352</ele>
        <time>2014-01-09T15:34:21.000Z</time>
      </trkpt>
      <trkpt lat="48.71959" lon="-0.66828">
        <ele>296.60000610352</ele>
        <time>2014-01-09T15:34:27.000Z</time>
      </trkpt>
      <trkpt lat="48.71962" lon="-0.6685">
        <ele>296.20001220703</ele>
        <time>2014-01-09T15:34:32.000Z</time>
      </trkpt>
      <trkpt lat="48.71961" lon="-0.66874">
        <ele>295.20001220703</ele>
        <time>2014-01-09T15:34:38.000Z</time>
      </trkpt>
      <trkpt lat="48.71961" lon="-0.66877">
        <ele>295.20001220703</ele>
        <time>2014-01-09T15:34:39.000Z</time>
      </trkpt>
      <trkpt lat="48.71961" lon="-0.66893">
        <ele>294.60000610352</ele>
        <time>2014-01-09T15:34:43.000Z</time>
      </trkpt>
      <trkpt lat="48.71963" lon="-0.669">
        <ele>294.39999389648</ele>
        <time>2014-01-09T15:34:45.000Z</time>
      </trkpt>
      <trkpt lat="48.71966" lon="-0.66915">
        <ele>294.20001220703</ele>
        <time>2014-01-09T15:34:49.000Z</time>
      </trkpt>
      <trkpt lat="48.71974" lon="-0.66939">
        <ele>293.20001220703</ele>
        <time>2014-01-09T15:34:55.000Z</time>
      </trkpt>
      <trkpt lat="48.71976" lon="-0.66943">
        <ele>293.20001220703</ele>
        <time>2014-01-09T15:34:56.000Z</time>
      </trkpt>
      <trkpt lat="48.71985" lon="-0.66967">
        <ele>292.20001220703</ele>
        <time>2014-01-09T15:35:02.000Z</time>
      </trkpt>
      <trkpt lat="48.71986" lon="-0.66971">
        <ele>292</ele>
        <time>2014-01-09T15:35:03.000Z</time>
      </trkpt>
      <trkpt lat="48.71995" lon="-0.66988">
        <ele>291.39999389648</ele>
        <time>2014-01-09T15:35:07.000Z</time>
      </trkpt>
      <trkpt lat="48.71997" lon="-0.66993">
        <ele>291.39999389648</ele>
        <time>2014-01-09T15:35:08.000Z</time>
      </trkpt>
      <trkpt lat="48.72006" lon="-0.67009">
        <ele>290.60000610352</ele>
        <time>2014-01-09T15:35:12.000Z</time>
      </trkpt>
      <trkpt lat="48.72008" lon="-0.67013">
        <ele>290.39999389648</ele>
        <time>2014-01-09T15:35:13.000Z</time>
      </trkpt>
      <trkpt lat="48.72016" lon="-0.67032">
        <ele>289</ele>
        <time>2014-01-09T15:35:19.000Z</time>
      </trkpt>
      <trkpt lat="48.72017" lon="-0.67035">
        <ele>288.79998779297</ele>
        <time>2014-01-09T15:35:20.000Z</time>
      </trkpt>
      <trkpt lat="48.72021" lon="-0.6705">
        <ele>287.79998779297</ele>
        <time>2014-01-09T15:35:24.000Z</time>
      </trkpt>
      <trkpt lat="48.72023" lon="-0.67053">
        <ele>287.60000610352</ele>
        <time>2014-01-09T15:35:25.000Z</time>
      </trkpt>
      <trkpt lat="48.72024" lon="-0.6706">
        <ele>287</ele>
        <time>2014-01-09T15:35:27.000Z</time>
      </trkpt>
      <trkpt lat="48.72027" lon="-0.6707">
        <ele>286.39999389648</ele>
        <time>2014-01-09T15:35:30.000Z</time>
      </trkpt>
      <trkpt lat="48.72028" lon="-0.67073">
        <ele>286</ele>
        <time>2014-01-09T15:35:31.000Z</time>
      </trkpt>
      <trkpt lat="48.72032" lon="-0.67092">
        <ele>285</ele>
        <time>2014-01-09T15:35:37.000Z</time>
      </trkpt>
      <trkpt lat="48.72032" lon="-0.67095">
        <ele>284.79998779297</ele>
        <time>2014-01-09T15:35:38.000Z</time>
      </trkpt>
      <trkpt lat="48.72035" lon="-0.67111">
        <ele>284.20001220703</ele>
        <time>2014-01-09T15:35:43.000Z</time>
      </trkpt>
      <trkpt lat="48.72039" lon="-0.6714">
        <ele>283</ele>
        <time>2014-01-09T15:35:50.000Z</time>
      </trkpt>
      <trkpt lat="48.72042" lon="-0.67164">
        <ele>282</ele>
        <time>2014-01-09T15:35:56.000Z</time>
      </trkpt>
      <trkpt lat="48.72043" lon="-0.67188">
        <ele>282</ele>
        <time>2014-01-09T15:36:01.000Z</time>
      </trkpt>
      <trkpt lat="48.72044" lon="-0.67199">
        <ele>282</ele>
        <time>2014-01-09T15:36:03.000Z</time>
      </trkpt>
      <trkpt lat="48.72045" lon="-0.67221">
        <ele>282</ele>
        <time>2014-01-09T15:36:08.000Z</time>
      </trkpt>
      <trkpt lat="48.72044" lon="-0.67238">
        <ele>282</ele>
        <time>2014-01-09T15:36:13.000Z</time>
      </trkpt>
      <trkpt lat="48.72043" lon="-0.67247">
        <ele>282</ele>
        <time>2014-01-09T15:36:16.000Z</time>
      </trkpt>
      <trkpt lat="48.72043" lon="-0.67253">
        <ele>282</ele>
        <time>2014-01-09T15:36:18.000Z</time>
      </trkpt>
      <trkpt lat="48.72046" lon="-0.67279">
        <ele>282</ele>
        <time>2014-01-09T15:36:26.000Z</time>
      </trkpt>
      <trkpt lat="48.72048" lon="-0.67305">
        <ele>282.20001220703</ele>
        <time>2014-01-09T15:36:34.000Z</time>
      </trkpt>
      <trkpt lat="48.7205" lon="-0.67332">
        <ele>282.20001220703</ele>
        <time>2014-01-09T15:36:41.000Z</time>
      </trkpt>
      <trkpt lat="48.72056" lon="-0.67344">
        <ele>282.60000610352</ele>
        <time>2014-01-09T15:36:46.000Z</time>
      </trkpt>
      <trkpt lat="48.72067" lon="-0.67355">
        <ele>283.20001220703</ele>
        <time>2014-01-09T15:36:52.000Z</time>
      </trkpt>
      <trkpt lat="48.72085" lon="-0.67371">
        <ele>284</ele>
        <time>2014-01-09T15:37:00.000Z</time>
      </trkpt>
      <trkpt lat="48.72093" lon="-0.67381">
        <ele>284.20001220703</ele>
        <time>2014-01-09T15:37:06.000Z</time>
      </trkpt>
      <trkpt lat="48.72098" lon="-0.67386">
        <ele>284.39999389648</ele>
        <time>2014-01-09T15:37:11.000Z</time>
      </trkpt>
      <trkpt lat="48.72101" lon="-0.67389">
        <ele>284.39999389648</ele>
        <time>2014-01-09T15:37:13.000Z</time>
      </trkpt>
      <trkpt lat="48.72109" lon="-0.67398">
        <ele>284.60000610352</ele>
        <time>2014-01-09T15:37:19.000Z</time>
      </trkpt>
      <trkpt lat="48.72119" lon="-0.67407">
        <ele>284.79998779297</ele>
        <time>2014-01-09T15:37:25.000Z</time>
      </trkpt>
      <trkpt lat="48.72125" lon="-0.67412">
        <ele>285</ele>
        <time>2014-01-09T15:37:28.000Z</time>
      </trkpt>
      <trkpt lat="48.72134" lon="-0.6742">
        <ele>285</ele>
        <time>2014-01-09T15:37:32.000Z</time>
      </trkpt>
      <trkpt lat="48.72142" lon="-0.67428">
        <ele>285</ele>
        <time>2014-01-09T15:37:38.000Z</time>
      </trkpt>
      <trkpt lat="48.72151" lon="-0.67433">
        <ele>285</ele>
        <time>2014-01-09T15:37:43.000Z</time>
      </trkpt>
      <trkpt lat="48.72152" lon="-0.67432">
        <ele>285</ele>
        <time>2014-01-09T15:37:44.000Z</time>
      </trkpt>
      <trkpt lat="48.72157" lon="-0.67434">
        <ele>285</ele>
        <time>2014-01-09T15:37:49.000Z</time>
      </trkpt>
      <trkpt lat="48.72158" lon="-0.67435">
        <ele>285</ele>
        <time>2014-01-09T15:37:50.000Z</time>
      </trkpt>
      <trkpt lat="48.72163" lon="-0.67436">
        <ele>285</ele>
        <time>2014-01-09T15:37:54.000Z</time>
      </trkpt>
      <trkpt lat="48.72164" lon="-0.67436">
        <ele>285</ele>
        <time>2014-01-09T15:37:55.000Z</time>
      </trkpt>
      <trkpt lat="48.72165" lon="-0.67437">
        <ele>285</ele>
        <time>2014-01-09T15:37:56.000Z</time>
      </trkpt>
      <trkpt lat="48.72167" lon="-0.67438">
        <ele>285</ele>
        <time>2014-01-09T15:37:58.000Z</time>
      </trkpt>
      <trkpt lat="48.7217" lon="-0.67439">
        <ele>284.79998779297</ele>
        <time>2014-01-09T15:38:00.000Z</time>
      </trkpt>
      <trkpt lat="48.72172" lon="-0.67439">
        <ele>284.60000610352</ele>
        <time>2014-01-09T15:38:02.000Z</time>
      </trkpt>
      <trkpt lat="48.72176" lon="-0.67441">
        <ele>284.39999389648</ele>
        <time>2014-01-09T15:38:07.000Z</time>
      </trkpt>
      <trkpt lat="48.72176" lon="-0.67441">
        <ele>284.39999389648</ele>
        <time>2014-01-09T15:38:13.000Z</time>
      </trkpt>
      <trkpt lat="48.72176" lon="-0.67441">
        <ele>284.39999389648</ele>
        <time>2014-01-09T15:38:23.000Z</time>
      </trkpt>
      <trkpt lat="48.72181" lon="-0.67443">
        <ele>284.20001220703</ele>
        <time>2014-01-09T15:38:39.000Z</time>
      </trkpt>
      <trkpt lat="48.72188" lon="-0.67443">
        <ele>283.79998779297</ele>
        <time>2014-01-09T15:38:44.000Z</time>
      </trkpt>
      <trkpt lat="48.72192" lon="-0.67445">
        <ele>283.60000610352</ele>
        <time>2014-01-09T15:38:46.000Z</time>
      </trkpt>
      <trkpt lat="48.722" lon="-0.67447">
        <ele>283.20001220703</ele>
        <time>2014-01-09T15:38:49.000Z</time>
      </trkpt>
      <trkpt lat="48.7221" lon="-0.6745">
        <ele>282.79998779297</ele>
        <time>2014-01-09T15:38:52.000Z</time>
      </trkpt>
      <trkpt lat="48.72229" lon="-0.67459">
        <ele>282</ele>
        <time>2014-01-09T15:38:58.000Z</time>
      </trkpt>
      <trkpt lat="48.72243" lon="-0.67464">
        <ele>281.60000610352</ele>
        <time>2014-01-09T15:39:04.000Z</time>
      </trkpt>
      <trkpt lat="48.72256" lon="-0.67471">
        <ele>281.39999389648</ele>
        <time>2014-01-09T15:39:09.000Z</time>
      </trkpt>
      <trkpt lat="48.72262" lon="-0.67473">
        <ele>281.20001220703</ele>
        <time>2014-01-09T15:39:11.000Z</time>
      </trkpt>
      <trkpt lat="48.72274" lon="-0.6748">
        <ele>281</ele>
        <time>2014-01-09T15:39:15.000Z</time>
      </trkpt>
      <trkpt lat="48.72276" lon="-0.67481">
        <ele>281</ele>
        <time>2014-01-09T15:39:16.000Z</time>
      </trkpt>
      <trkpt lat="48.72288" lon="-0.67487">
        <ele>280.79998779297</ele>
        <time>2014-01-09T15:39:21.000Z</time>
      </trkpt>
      <trkpt lat="48.72299" lon="-0.67496">
        <ele>280.60000610352</ele>
        <time>2014-01-09T15:39:26.000Z</time>
      </trkpt>
      <trkpt lat="48.72302" lon="-0.67498">
        <ele>280.39999389648</ele>
        <time>2014-01-09T15:39:27.000Z</time>
      </trkpt>
      <trkpt lat="48.72319" lon="-0.67504">
        <ele>279.60000610352</ele>
        <time>2014-01-09T15:39:32.000Z</time>
      </trkpt>
      <trkpt lat="48.72322" lon="-0.67505">
        <ele>279.60000610352</ele>
        <time>2014-01-09T15:39:33.000Z</time>
      </trkpt>
      <trkpt lat="48.72331" lon="-0.67505">
        <ele>279.20001220703</ele>
        <time>2014-01-09T15:39:36.000Z</time>
      </trkpt>
      <trkpt lat="48.72339" lon="-0.67505">
        <ele>279.20001220703</ele>
        <time>2014-01-09T15:39:39.000Z</time>
      </trkpt>
      <trkpt lat="48.7235" lon="-0.67509">
        <ele>279.39999389648</ele>
        <time>2014-01-09T15:39:44.000Z</time>
      </trkpt>
      <trkpt lat="48.7236" lon="-0.67513">
        <ele>279.60000610352</ele>
        <time>2014-01-09T15:39:50.000Z</time>
      </trkpt>
      <trkpt lat="48.72363" lon="-0.67515">
        <ele>279.60000610352</ele>
        <time>2014-01-09T15:39:56.000Z</time>
      </trkpt>
      <trkpt lat="48.72363" lon="-0.67515">
        <ele>279.60000610352</ele>
        <time>2014-01-09T15:40:04.000Z</time>
      </trkpt>
      <trkpt lat="48.72365" lon="-0.67516">
        <ele>279.60000610352</ele>
        <time>2014-01-09T15:40:10.000Z</time>
      </trkpt>
      <trkpt lat="48.72365" lon="-0.67516">
        <ele>279.60000610352</ele>
        <time>2014-01-09T15:40:21.000Z</time>
      </trkpt>
      <trkpt lat="48.72365" lon="-0.67516">
        <ele>279.60000610352</ele>
        <time>2014-01-09T15:40:27.000Z</time>
      </trkpt>
      <trkpt lat="48.72365" lon="-0.67516">
        <ele>279.60000610352</ele>
        <time>2014-01-09T15:40:35.000Z</time>
      </trkpt>
      <trkpt lat="48.72377" lon="-0.67519">
        <ele>280</ele>
        <time>2014-01-09T15:40:44.000Z</time>
      </trkpt>
      <trkpt lat="48.72387" lon="-0.67525">
        <ele>280.20001220703</ele>
        <time>2014-01-09T15:40:48.000Z</time>
      </trkpt>
      <trkpt lat="48.7239" lon="-0.67526">
        <ele>280.20001220703</ele>
        <time>2014-01-09T15:40:49.000Z</time>
      </trkpt>
      <trkpt lat="48.72403" lon="-0.67535">
        <ele>280.39999389648</ele>
        <time>2014-01-09T15:40:56.000Z</time>
      </trkpt>
      <trkpt lat="48.72411" lon="-0.67541">
        <ele>280.39999389648</ele>
        <time>2014-01-09T15:41:00.000Z</time>
      </trkpt>
      <trkpt lat="48.7242" lon="-0.67549">
        <ele>280.60000610352</ele>
        <time>2014-01-09T15:41:05.000Z</time>
      </trkpt>
      <trkpt lat="48.72426" lon="-0.67553">
        <ele>280.60000610352</ele>
        <time>2014-01-09T15:41:08.000Z</time>
      </trkpt>
      <trkpt lat="48.72432" lon="-0.67556">
        <ele>280.79998779297</ele>
        <time>2014-01-09T15:41:11.000Z</time>
      </trkpt>
      <trkpt lat="48.72443" lon="-0.67566">
        <ele>281.20001220703</ele>
        <time>2014-01-09T15:41:17.000Z</time>
      </trkpt>
      <trkpt lat="48.72456" lon="-0.67577">
        <ele>281.39999389648</ele>
        <time>2014-01-09T15:41:23.000Z</time>
      </trkpt>
      <trkpt lat="48.72476" lon="-0.67586">
        <ele>282.20001220703</ele>
        <time>2014-01-09T15:41:30.000Z</time>
      </trkpt>
      <trkpt lat="48.72485" lon="-0.67589">
        <ele>282.39999389648</ele>
        <time>2014-01-09T15:41:34.000Z</time>
      </trkpt>
      <trkpt lat="48.72494" lon="-0.6759">
        <ele>282.79998779297</ele>
        <time>2014-01-09T15:41:37.000Z</time>
      </trkpt>
      <trkpt lat="48.72513" lon="-0.67603">
        <ele>283.20001220703</ele>
        <time>2014-01-09T15:41:44.000Z</time>
      </trkpt>
      <trkpt lat="48.72528" lon="-0.67615">
        <ele>283.39999389648</ele>
        <time>2014-01-09T15:41:50.000Z</time>
      </trkpt>
      <trkpt lat="48.72538" lon="-0.67626">
        <ele>283.39999389648</ele>
        <time>2014-01-09T15:41:54.000Z</time>
      </trkpt>
      <trkpt lat="48.72541" lon="-0.67631">
        <ele>283.39999389648</ele>
        <time>2014-01-09T15:41:55.000Z</time>
      </trkpt>
      <trkpt lat="48.72559" lon="-0.6765">
        <ele>283.79998779297</ele>
        <time>2014-01-09T15:42:02.000Z</time>
      </trkpt>
      <trkpt lat="48.7257" lon="-0.67658">
        <ele>283.79998779297</ele>
        <time>2014-01-09T15:42:08.000Z</time>
      </trkpt>
      <trkpt lat="48.72576" lon="-0.67665">
        <ele>284</ele>
        <time>2014-01-09T15:42:11.000Z</time>
      </trkpt>
      <trkpt lat="48.72588" lon="-0.67677">
        <ele>284</ele>
        <time>2014-01-09T15:42:16.000Z</time>
      </trkpt>
      <trkpt lat="48.72599" lon="-0.67687">
        <ele>284</ele>
        <time>2014-01-09T15:42:21.000Z</time>
      </trkpt>
      <trkpt lat="48.72601" lon="-0.67689">
        <ele>284</ele>
        <time>2014-01-09T15:42:22.000Z</time>
      </trkpt>
      <trkpt lat="48.72613" lon="-0.67697">
        <ele>284</ele>
        <time>2014-01-09T15:42:28.000Z</time>
      </trkpt>
      <trkpt lat="48.72616" lon="-0.67698">
        <ele>284</ele>
        <time>2014-01-09T15:42:30.000Z</time>
      </trkpt>
      <trkpt lat="48.72615" lon="-0.67698">
        <ele>284</ele>
        <time>2014-01-09T15:42:31.000Z</time>
      </trkpt>
      <trkpt lat="48.72616" lon="-0.67698">
        <ele>284</ele>
        <time>2014-01-09T15:42:32.000Z</time>
      </trkpt>
      <trkpt lat="48.72616" lon="-0.67698">
        <ele>284</ele>
        <time>2014-01-09T15:42:40.000Z</time>
      </trkpt>
      <trkpt lat="48.72616" lon="-0.67698">
        <ele>284</ele>
        <time>2014-01-09T15:42:54.000Z</time>
      </trkpt>
      <trkpt lat="48.72616" lon="-0.67698">
        <ele>284</ele>
        <time>2014-01-09T15:43:07.000Z</time>
      </trkpt>
      <trkpt lat="48.72616" lon="-0.67698">
        <ele>284</ele>
        <time>2014-01-09T15:43:25.000Z</time>
      </trkpt>
      <trkpt lat="48.72616" lon="-0.67698">
        <ele>284</ele>
        <time>2014-01-09T15:43:37.000Z</time>
      </trkpt>
      <trkpt lat="48.72617" lon="-0.67698">
        <ele>284</ele>
        <time>2014-01-09T15:43:51.000Z</time>
      </trkpt>
      <trkpt lat="48.72624" lon="-0.67698">
        <ele>284.20001220703</ele>
        <time>2014-01-09T15:43:56.000Z</time>
      </trkpt>
      <trkpt lat="48.72639" lon="-0.67697">
        <ele>284.39999389648</ele>
        <time>2014-01-09T15:44:02.000Z</time>
      </trkpt>
      <trkpt lat="48.7264" lon="-0.67694">
        <ele>284.39999389648</ele>
        <time>2014-01-09T15:44:03.000Z</time>
      </trkpt>
      <trkpt lat="48.72646" lon="-0.67684">
        <ele>284.60000610352</ele>
        <time>2014-01-09T15:44:06.000Z</time>
      </trkpt>
      <trkpt lat="48.72647" lon="-0.67681">
        <ele>284.60000610352</ele>
        <time>2014-01-09T15:44:07.000Z</time>
      </trkpt>
      <trkpt lat="48.7265" lon="-0.67679">
        <ele>284.60000610352</ele>
        <time>2014-01-09T15:44:08.000Z</time>
      </trkpt>
      <trkpt lat="48.7266" lon="-0.67674">
        <ele>284.79998779297</ele>
        <time>2014-01-09T15:44:13.000Z</time>
      </trkpt>
      <trkpt lat="48.72668" lon="-0.67678">
        <ele>284.79998779297</ele>
        <time>2014-01-09T15:44:17.000Z</time>
      </trkpt>
      <trkpt lat="48.72668" lon="-0.67678">
        <ele>284.79998779297</ele>
        <time>2014-01-09T15:44:19.000Z</time>
      </trkpt>
      <trkpt lat="48.72668" lon="-0.6768">
        <ele>284.79998779297</ele>
        <time>2014-01-09T15:44:28.000Z</time>
      </trkpt>
      <trkpt lat="48.72668" lon="-0.6768">
        <ele>284.79998779297</ele>
        <time>2014-01-09T15:44:34.000Z</time>
      </trkpt>
      <trkpt lat="48.72668" lon="-0.6768">
        <ele>284.79998779297</ele>
        <time>2014-01-09T15:44:48.000Z</time>
      </trkpt>
      <trkpt lat="48.72668" lon="-0.6768">
        <ele>284.79998779297</ele>
        <time>2014-01-09T15:44:57.000Z</time>
      </trkpt>
      <trkpt lat="48.72669" lon="-0.6768">
        <ele>284.79998779297</ele>
        <time>2014-01-09T15:45:07.000Z</time>
      </trkpt>
      <trkpt lat="48.72669" lon="-0.6768">
        <ele>284.79998779297</ele>
        <time>2014-01-09T15:45:17.000Z</time>
      </trkpt>
      <trkpt lat="48.72669" lon="-0.6768">
        <ele>284.79998779297</ele>
        <time>2014-01-09T15:45:28.000Z</time>
      </trkpt>
      <trkpt lat="48.72669" lon="-0.6768">
        <ele>284.79998779297</ele>
        <time>2014-01-09T15:45:51.000Z</time>
      </trkpt>
      <trkpt lat="48.72669" lon="-0.6768">
        <ele>284.79998779297</ele>
        <time>2014-01-09T15:46:11.000Z</time>
      </trkpt>
      <trkpt lat="48.72669" lon="-0.6768">
        <ele>284.79998779297</ele>
        <time>2014-01-09T15:46:26.000Z</time>
      </trkpt>
      <trkpt lat="48.72669" lon="-0.6768">
        <ele>284.79998779297</ele>
        <time>2014-01-09T15:46:40.000Z</time>
      </trkpt>
      <trkpt lat="48.72669" lon="-0.6768">
        <ele>284.79998779297</ele>
        <time>2014-01-09T15:46:54.000Z</time>
      </trkpt>
      <trkpt lat="48.72669" lon="-0.6768">
        <ele>284.79998779297</ele>
        <time>2014-01-09T15:47:04.000Z</time>
      </trkpt>
      <trkpt lat="48.72669" lon="-0.6768">
        <ele>284.79998779297</ele>
        <time>2014-01-09T15:47:31.000Z</time>
      </trkpt>
      <trkpt lat="48.72668" lon="-0.6768">
        <ele>284.79998779297</ele>
        <time>2014-01-09T15:47:46.000Z</time>
      </trkpt>
      <trkpt lat="48.72669" lon="-0.6768">
        <ele>284.79998779297</ele>
        <time>2014-01-09T15:47:56.000Z</time>
      </trkpt>
      <trkpt lat="48.72669" lon="-0.6768">
        <ele>284.79998779297</ele>
        <time>2014-01-09T15:48:06.000Z</time>
      </trkpt>
      <trkpt lat="48.72669" lon="-0.6768">
        <ele>284.79998779297</ele>
        <time>2014-01-09T15:48:24.000Z</time>
      </trkpt>
      <trkpt lat="48.72669" lon="-0.6768">
        <ele>284.79998779297</ele>
        <time>2014-01-09T15:48:41.000Z</time>
      </trkpt>
      <trkpt lat="48.72669" lon="-0.6768">
        <ele>284.79998779297</ele>
        <time>2014-01-09T15:48:55.000Z</time>
      </trkpt>
      <trkpt lat="48.72669" lon="-0.6768">
        <ele>284.79998779297</ele>
        <time>2014-01-09T15:49:07.000Z</time>
      </trkpt>
      <trkpt lat="48.7267" lon="-0.67681">
        <ele>284.79998779297</ele>
        <time>2014-01-09T15:49:19.000Z</time>
      </trkpt>
      <trkpt lat="48.72682" lon="-0.67691">
        <ele>285</ele>
        <time>2014-01-09T15:49:26.000Z</time>
      </trkpt>
      <trkpt lat="48.72702" lon="-0.67707">
        <ele>285.20001220703</ele>
        <time>2014-01-09T15:49:34.000Z</time>
      </trkpt>
      <trkpt lat="48.7272" lon="-0.67722">
        <ele>285.39999389648</ele>
        <time>2014-01-09T15:49:41.000Z</time>
      </trkpt>
      <trkpt lat="48.72735" lon="-0.67733">
        <ele>285.60000610352</ele>
        <time>2014-01-09T15:49:43.000Z</time>
      </trkpt>
      <trkpt lat="48.72744" lon="-0.67741">
        <ele>285.79998779297</ele>
        <time>2014-01-09T15:49:51.000Z</time>
      </trkpt>
      <trkpt lat="48.72746" lon="-0.67742">
        <ele>286</ele>
        <time>2014-01-09T15:49:52.000Z</time>
      </trkpt>
      <trkpt lat="48.72754" lon="-0.67742">
        <ele>286</ele>
        <time>2014-01-09T15:49:56.000Z</time>
      </trkpt>
      <trkpt lat="48.72756" lon="-0.67743">
        <ele>286.20001220703</ele>
        <time>2014-01-09T15:49:57.000Z</time>
      </trkpt>
      <trkpt lat="48.7277" lon="-0.67746">
        <ele>286.39999389648</ele>
        <time>2014-01-09T15:50:02.000Z</time>
      </trkpt>
      <trkpt lat="48.72782" lon="-0.67758">
        <ele>287</ele>
        <time>2014-01-09T15:50:07.000Z</time>
      </trkpt>
      <trkpt lat="48.72784" lon="-0.6776">
        <ele>287</ele>
        <time>2014-01-09T15:50:08.000Z</time>
      </trkpt>
      <trkpt lat="48.72799" lon="-0.67771">
        <ele>287.60000610352</ele>
        <time>2014-01-09T15:50:14.000Z</time>
      </trkpt>
      <trkpt lat="48.72812" lon="-0.67782">
        <ele>288</ele>
        <time>2014-01-09T15:50:20.000Z</time>
      </trkpt>
      <trkpt lat="48.72818" lon="-0.67787">
        <ele>288.20001220703</ele>
        <time>2014-01-09T15:50:23.000Z</time>
      </trkpt>
      <trkpt lat="48.7282" lon="-0.67787">
        <ele>288.20001220703</ele>
        <time>2014-01-09T15:50:24.000Z</time>
      </trkpt>
      <trkpt lat="48.72822" lon="-0.67783">
        <ele>288.20001220703</ele>
        <time>2014-01-09T15:50:27.000Z</time>
      </trkpt>
      <trkpt lat="48.72827" lon="-0.67771">
        <ele>288.20001220703</ele>
        <time>2014-01-09T15:50:32.000Z</time>
      </trkpt>
      <trkpt lat="48.72833" lon="-0.67763">
        <ele>288.20001220703</ele>
        <time>2014-01-09T15:50:35.000Z</time>
      </trkpt>
      <trkpt lat="48.72837" lon="-0.67756">
        <ele>288</ele>
        <time>2014-01-09T15:50:38.000Z</time>
      </trkpt>
      <trkpt lat="48.72838" lon="-0.67752">
        <ele>288</ele>
        <time>2014-01-09T15:50:39.000Z</time>
      </trkpt>
      <trkpt lat="48.72842" lon="-0.67747">
        <ele>287.79998779297</ele>
        <time>2014-01-09T15:50:41.000Z</time>
      </trkpt>
      <trkpt lat="48.72845" lon="-0.67746">
        <ele>287.79998779297</ele>
        <time>2014-01-09T15:50:42.000Z</time>
      </trkpt>
      <trkpt lat="48.72857" lon="-0.67753">
        <ele>287.79998779297</ele>
        <time>2014-01-09T15:50:46.000Z</time>
      </trkpt>
      <trkpt lat="48.7286" lon="-0.67755">
        <ele>287.79998779297</ele>
        <time>2014-01-09T15:50:47.000Z</time>
      </trkpt>
      <trkpt lat="48.72883" lon="-0.67771">
        <ele>287.60000610352</ele>
        <time>2014-01-09T15:50:54.000Z</time>
      </trkpt>
      <trkpt lat="48.72886" lon="-0.67773">
        <ele>287.39999389648</ele>
        <time>2014-01-09T15:50:55.000Z</time>
      </trkpt>
      <trkpt lat="48.72904" lon="-0.67786">
        <ele>287.20001220703</ele>
        <time>2014-01-09T15:51:01.000Z</time>
      </trkpt>
      <trkpt lat="48.72909" lon="-0.6779">
        <ele>287.20001220703</ele>
        <time>2014-01-09T15:51:03.000Z</time>
      </trkpt>
      <trkpt lat="48.72911" lon="-0.67792">
        <ele>287.20001220703</ele>
        <time>2014-01-09T15:51:05.000Z</time>
      </trkpt>
      <trkpt lat="48.72914" lon="-0.67793">
        <ele>287</ele>
        <time>2014-01-09T15:51:07.000Z</time>
      </trkpt>
      <trkpt lat="48.72916" lon="-0.67798">
        <ele>287</ele>
        <time>2014-01-09T15:51:09.000Z</time>
      </trkpt>
      <trkpt lat="48.72921" lon="-0.6781">
        <ele>286.60000610352</ele>
        <time>2014-01-09T15:51:14.000Z</time>
      </trkpt>
      <trkpt lat="48.72921" lon="-0.67811">
        <ele>286.79998779297</ele>
        <time>2014-01-09T15:51:15.000Z</time>
      </trkpt>
      <trkpt lat="48.7292" lon="-0.67813">
        <ele>286.79998779297</ele>
        <time>2014-01-09T15:51:19.000Z</time>
      </trkpt>
      <trkpt lat="48.7292" lon="-0.67813">
        <ele>286.79998779297</ele>
        <time>2014-01-09T15:51:29.000Z</time>
      </trkpt>
      <trkpt lat="48.7292" lon="-0.67813">
        <ele>286.79998779297</ele>
        <time>2014-01-09T15:51:37.000Z</time>
      </trkpt>
      <trkpt lat="48.7292" lon="-0.67813">
        <ele>286.79998779297</ele>
        <time>2014-01-09T15:51:44.000Z</time>
      </trkpt>
      <trkpt lat="48.7292" lon="-0.67813">
        <ele>286.79998779297</ele>
        <time>2014-01-09T15:51:50.000Z</time>
      </trkpt>
      <trkpt lat="48.72919" lon="-0.67812">
        <ele>286.79998779297</ele>
        <time>2014-01-09T15:51:58.000Z</time>
      </trkpt>
      <trkpt lat="48.72919" lon="-0.67811">
        <ele>286.79998779297</ele>
        <time>2014-01-09T15:52:09.000Z</time>
      </trkpt>
      <trkpt lat="48.72919" lon="-0.67811">
        <ele>286.79998779297</ele>
        <time>2014-01-09T15:52:18.000Z</time>
      </trkpt>
      <trkpt lat="48.72918" lon="-0.6781">
        <ele>286.79998779297</ele>
        <time>2014-01-09T15:52:27.000Z</time>
      </trkpt>
      <trkpt lat="48.72918" lon="-0.6781">
        <ele>286.79998779297</ele>
        <time>2014-01-09T15:52:37.000Z</time>
      </trkpt>
      <trkpt lat="48.72918" lon="-0.6781">
        <ele>286.79998779297</ele>
        <time>2014-01-09T15:52:46.000Z</time>
      </trkpt>
      <trkpt lat="48.72918" lon="-0.6781">
        <ele>287</ele>
        <time>2014-01-09T15:52:52.000Z</time>
      </trkpt>
      <trkpt lat="48.72918" lon="-0.67809">
        <ele>286.79998779297</ele>
        <time>2014-01-09T15:53:01.000Z</time>
      </trkpt>
      <trkpt lat="48.72918" lon="-0.67809">
        <ele>287</ele>
        <time>2014-01-09T15:53:09.000Z</time>
      </trkpt>
      <trkpt lat="48.72918" lon="-0.67809">
        <ele>286.79998779297</ele>
        <time>2014-01-09T15:53:14.000Z</time>
      </trkpt>
      <trkpt lat="48.72918" lon="-0.67809">
        <ele>286.79998779297</ele>
        <time>2014-01-09T15:53:22.000Z</time>
      </trkpt>
      <trkpt lat="48.72918" lon="-0.67809">
        <ele>286.79998779297</ele>
        <time>2014-01-09T15:53:34.000Z</time>
      </trkpt>
      <trkpt lat="48.72918" lon="-0.67809">
        <ele>286.79998779297</ele>
        <time>2014-01-09T15:53:46.000Z</time>
      </trkpt>
    </trkseg>
  </trk>
</gpx>